ECMWFNIL_sfc_thetae_000.txt.gz
Theta_e
325 324 321 319 320 321 323 321 321 322 320 319 319 320 321 323 322 322 322 322 322 321 319 318 317 317 317 317 316 315 315 317 316 316 316 315 314 314 312 312 311 311
328 327 322 321 319 320 322 324 324 321 320 320 320 320 322 324 324 323 323 323 322 321 320 319 318 317 317 316 316 315 315 316 315 315 315 315 315 314 313 312 311 311
330 330 329 326 321 323 326 327 326 324 321 321 321 321 321 324 324 325 324 324 322 322 321 319 318 317 316 316 316 315 315 315 315 316 315 313 314 314 313 313 313 311
329 330 328 330 328 327 329 328 328 327 325 323 322 322 322 323 325 324 324 323 323 322 321 320 318 317 316 316 317 315 315 315 314 315 314 313 313 312 311 311 310 311
329 329 329 329 329 330 331 329 328 326 326 325 325 324 322 323 324 323 323 323 323 322 321 320 319 318 317 317 316 315 315 314 315 314 313 312 311 311 310 310 309 309
329 326 326 326 329 331 329 329 328 327 326 326 326 324 322 323 322 322 323 323 322 321 321 320 318 318 317 317 316 316 315 313 313 313 312 311 311 310 307 309 308 308
328 329 329 328 329 330 330 329 328 327 327 327 326 325 323 322 321 322 321 322 321 321 320 319 318 317 317 316 316 315 314 313 312 311 310 310 310 310 309 308 306 306
325 328 328 328 329 329 329 328 328 327 329 327 327 326 324 322 320 322 322 322 321 320 320 318 318 316 316 316 314 314 314 313 313 311 310 309 310 307 309 308 309 306
326 325 325 327 327 328 328 327 327 328 328 328 326 326 324 323 321 322 322 321 321 320 319 318 317 316 316 315 315 314 312 313 312 311 310 310 309 307 306 306 307 306
326 327 326 326 326 326 327 328 327 327 327 327 326 326 324 324 322 323 322 321 321 320 319 317 316 316 315 315 314 313 312 311 311 311 310 309 308 307 306 306 306 305
325 325 325 325 326 326 326 326 327 326 326 324 325 325 325 324 322 324 321 320 321 319 318 317 316 315 315 314 314 314 312 312 311 310 310 309 308 307 307 306 305 305
324 324 324 325 325 326 325 324 324 325 325 325 322 322 324 324 324 322 321 320 321 319 318 317 316 315 314 313 313 313 312 312 311 310 309 307 307 306 305 305 305 304
322 324 325 326 327 327 327 325 325 325 324 324 324 323 323 323 323 322 322 321 320 319 318 317 315 315 314 314 313 312 311 311 310 309 308 307 305 303 303 304 304 303
320 322 323 324 325 325 325 326 326 325 325 324 324 324 323 323 321 321 322 321 320 318 318 316 315 314 314 313 312 312 311 311 309 308 306 305 304 302 303 303 303 303
316 318 321 322 323 323 323 324 325 326 325 325 324 324 323 323 322 321 320 319 318 318 317 316 315 314 313 313 312 311 311 309 307 305 304 303 302 302 302 302 301 302
314 317 319 320 321 321 322 323 323 324 324 324 324 323 323 323 322 321 318 318 316 316 315 315 314 314 308 303 305 309 308 306 305 304 302 302 301 301 301 301 301 302
310 313 316 318 319 320 321 321 321 321 322 322 323 322 323 321 318 317 316 318 315 315 314 314 314 310 295 294 294 297 305 306 304 303 302 301 301 300 300 301 301 301
309 310 312 315 318 318 319 321 321 321 320 320 321 321 320 318 318 315 315 314 314 313 314 314 311 296 292 292 293 293 298 303 303 302 301 301 300 300 300 300 300 301
308 309 310 312 315 317 318 320 319 319 319 319 318 319 318 317 315 316 316 316 314 311 309 308 301 291 291 291 292 292 293 298 302 302 301 300 300 300 299 299 300 299
309 309 309 310 313 316 318 317 317 317 319 319 318 318 317 317 316 315 315 314 311 310 308 306 300 292 291 291 291 290 290 294 303 302 301 300 300 299 300 300 300 300
309 309 309 310 312 314 316 316 316 316 317 317 317 317 316 315 314 314 313 311 310 309 308 306 300 291 290 290 290 290 289 292 302 301 300 300 300 300 300 300 300 301
310 309 310 310 311 313 314 315 316 316 315 316 317 317 317 316 313 312 311 310 310 309 307 304 299 289 290 290 290 290 288 297 301 301 301 300 300 300 300 300 300 301
310 310 310 310 311 312 313 315 315 315 315 316 315 316 315 314 312 311 310 310 308 307 305 303 298 291 290 290 290 289 292 299 301 300 300 301 301 301 301 301 301 301
309 309 309 310 311 312 313 314 315 315 314 314 314 315 315 313 311 310 311 308 306 304 303 304 300 293 289 290 290 289 293 300 301 300 300 300 300 301 301 301 301 300
310 310 310 310 311 312 313 314 314 313 314 314 314 315 315 315 310 309 308 307 307 306 302 303 302 297 289 290 290 290 294 299 299 299 299 300 300 300 301 301 301 300
310 310 310 311 311 312 313 313 314 314 314 314 314 314 314 314 310 307 305 306 305 304 303 302 300 299 294 289 290 289 290 298 300 299 298 299 299 298 299 300 300 300

ECMWFNIL_sfc_thetae_003.txt.gz
Theta_e
324 323 322 321 321 322 323 322 322 322 321 321 321 322 321 323 321 323 323 322 321 319 319 319 319 319 318 318 318 317 317 318 318 317 317 316 314 315 314 313 314 311
326 325 323 323 321 322 323 324 324 323 321 321 322 322 324 324 322 323 323 322 321 320 319 319 319 319 318 317 318 317 315 317 316 316 317 318 317 316 315 316 313 312
326 326 325 323 321 323 325 325 325 324 321 321 324 324 324 325 322 323 324 323 321 321 321 319 319 318 318 317 318 317 317 317 317 317 317 314 316 315 316 315 313 314
327 327 326 325 323 323 324 325 324 324 323 321 321 323 324 326 323 323 324 323 323 321 321 320 319 318 317 317 317 316 316 316 316 317 316 316 316 314 314 313 312 313
328 327 327 327 326 325 324 325 324 324 323 323 323 322 322 325 323 323 323 323 324 322 321 320 319 318 318 317 318 316 316 315 316 317 315 314 315 315 314 314 312 312
328 326 326 325 326 326 325 323 322 323 323 324 324 322 323 324 323 323 322 322 322 322 321 320 319 318 318 318 318 317 316 315 315 315 314 313 313 314 311 313 312 312
327 328 326 324 325 324 325 326 326 324 323 324 323 324 323 323 322 323 322 322 322 321 321 320 319 319 318 319 317 317 316 316 314 314 312 313 313 312 311 311 310 309
327 328 328 331 330 330 327 327 326 324 325 321 323 324 323 322 322 323 322 322 321 321 321 319 319 318 318 318 317 316 316 315 314 313 312 312 312 311 312 311 310 310
327 326 326 326 329 328 327 326 322 324 327 326 321 322 324 322 321 322 322 322 321 321 320 320 319 318 318 317 317 316 314 314 315 313 312 312 311 311 310 311 310 311
327 327 327 326 326 325 325 326 328 326 324 324 325 326 323 323 320 321 322 322 322 321 320 320 319 318 318 316 316 316 315 314 314 313 313 313 312 311 309 310 310 309
326 326 326 327 327 327 328 328 328 327 327 324 326 324 324 326 323 321 322 321 322 321 320 320 319 318 317 317 317 317 315 315 314 313 313 313 312 311 311 310 309 308
325 325 325 325 327 326 327 328 327 327 327 329 325 325 324 323 323 322 321 320 321 321 321 320 320 319 318 317 316 317 316 316 315 314 313 313 312 311 310 309 309 308
323 324 325 327 328 327 327 327 327 328 326 325 324 324 324 324 323 322 324 321 320 321 321 321 320 319 318 318 317 316 316 315 315 314 313 313 312 310 309 309 308 307
317 318 321 323 323 324 325 328 328 326 327 328 327 326 325 324 322 321 323 323 322 321 322 322 321 319 318 317 317 317 316 315 314 314 313 312 311 309 308 307 306 306
315 319 320 320 320 322 323 324 323 325 327 325 324 324 325 325 324 323 323 321 321 322 322 322 320 319 318 317 316 315 315 314 314 313 312 310 308 306 306 305 305 305
312 314 316 317 318 319 319 320 321 323 323 324 325 325 325 325 325 325 323 322 322 320 322 322 320 319 314 307 309 315 315 314 314 312 310 308 307 306 305 305 304 305
311 312 312 313 316 318 319 319 319 321 322 322 323 324 324 323 324 323 323 323 321 322 321 320 320 318 301 300 300 304 313 313 311 309 308 307 306 305 304 304 304 303
309 310 310 311 313 314 316 317 318 319 320 320 321 322 323 324 324 323 324 323 322 322 320 319 318 299 295 295 296 296 301 310 309 308 306 306 305 304 304 304 304 304
309 309 309 310 310 311 314 317 318 318 317 318 319 321 321 320 320 322 322 322 320 318 316 316 306 294 293 293 293 294 294 301 307 307 305 310 304 304 303 303 303 303
310 309 309 310 311 311 312 313 316 317 318 318 319 319 319 319 319 320 320 319 319 317 316 307 304 294 293 293 293 293 293 295 308 306 305 304 304 303 304 303 303 302
310 310 309 310 311 311 312 312 313 316 317 317 317 317 318 318 318 318 319 318 318 316 310 304 301 292 292 292 291 292 291 292 305 306 304 304 304 304 304 303 303 303
310 309 310 310 310 311 310 311 313 316 317 318 317 316 317 317 318 318 318 318 316 311 307 302 297 290 290 291 290 290 290 298 304 304 305 303 303 303 303 303 303 303
310 309 309 309 309 310 310 311 312 314 316 317 316 316 316 316 316 316 317 316 313 311 305 301 296 291 290 289 290 289 291 299 302 302 302 302 303 303 303 303 303 303
309 309 308 308 308 308 309 311 313 314 316 316 315 315 315 315 315 315 316 315 313 309 305 300 296 292 289 290 289 289 293 299 300 301 301 302 303 304 304 303 304 304
309 309 310 310 309 310 311 311 312 313 315 316 315 315 314 314 314 314 314 312 311 311 303 300 297 293 289 289 289 289 293 298 300 300 300 301 302 302 303 304 303 303
308 308 310 310 310 310 311 311 311 312 314 314 314 313 312 313 313 313 311 309 308 307 304 302 298 295 292 289 290 289 290 298 299 299 299 300 301 301 301 302 302 302

ECMWFNIL_sfc_thetae_006.txt.gz
Theta_e
326 324 324 324 324 324 324 325 324 323 324 322 322 321 321 322 322 324 324 322 322 321 322 321 320 320 322 321 320 316 317 318 317 317 316 316 315 314 314 312 312 313
325 325 323 324 325 324 324 328 325 323 326 326 324 323 323 321 322 324 322 322 320 322 321 321 321 320 320 319 320 317 317 318 316 319 318 317 316 315 315 314 313 315
325 326 323 323 323 326 325 328 328 324 327 327 327 325 324 322 323 324 323 321 320 320 321 321 321 321 320 320 321 318 318 318 317 318 317 316 317 315 315 316 314 313
326 327 325 326 326 328 327 326 329 324 327 325 328 326 324 323 323 324 323 323 322 321 322 321 321 321 318 319 320 317 317 318 318 318 316 316 316 315 314 314 314 313
328 328 328 328 327 329 327 326 327 326 325 323 327 326 324 323 322 323 323 322 322 320 321 320 320 320 319 317 318 317 318 317 318 317 316 316 316 315 315 315 312 312
330 328 328 330 330 331 329 324 326 326 327 323 324 323 325 324 322 322 322 321 322 320 320 319 318 319 319 317 319 316 317 315 315 317 315 314 313 314 312 315 311 312
331 332 331 329 332 330 328 331 329 326 326 326 324 322 324 323 322 322 321 321 321 320 319 318 317 318 317 318 318 316 316 316 314 314 314 312 313 312 314 313 311 311
330 327 331 332 330 328 327 329 331 329 329 330 328 324 324 322 321 322 321 321 320 320 320 318 317 317 316 317 316 316 315 318 313 312 312 312 313 310 312 314 312 310
327 326 330 331 331 330 328 326 327 328 330 328 329 330 327 323 321 322 322 321 320 320 319 318 317 317 317 317 316 315 314 315 315 312 312 313 311 311 310 310 311 311
329 330 331 330 330 331 330 328 329 329 329 329 328 327 328 330 324 320 320 320 320 320 319 319 318 318 317 316 316 315 314 313 313 313 312 313 311 310 309 310 309 310
326 326 330 331 330 330 328 324 323 323 325 324 326 325 328 327 328 327 322 319 321 320 319 319 319 318 316 316 316 316 315 314 313 312 312 312 312 311 313 311 309 310
326 327 327 326 326 325 322 322 321 321 319 322 324 323 322 324 325 325 323 321 320 320 319 319 319 318 317 316 315 316 315 314 313 313 313 312 312 313 311 311 310 309
323 324 325 325 324 323 323 323 323 323 323 323 322 323 323 321 322 322 322 322 323 322 319 320 320 319 318 317 316 315 315 314 314 313 314 313 313 312 311 310 309 309
317 320 325 326 325 322 320 321 321 320 320 321 321 321 322 321 320 321 321 321 320 318 320 322 321 320 320 318 316 315 315 314 314 314 312 312 313 311 311 309 309 309
318 318 323 322 324 325 323 322 322 322 321 320 320 320 319 319 318 319 319 321 322 322 321 321 321 320 319 318 316 315 316 314 314 313 312 311 310 310 309 308 307 307
314 317 319 319 319 320 320 323 323 322 322 322 324 324 323 323 322 321 320 321 321 320 320 321 321 319 315 308 309 316 315 316 315 314 313 311 309 307 307 306 306 306
316 313 318 318 320 322 320 321 319 321 322 321 323 323 324 324 323 323 322 321 321 320 319 321 320 318 307 303 301 305 314 314 313 312 312 311 308 307 305 306 306 305
313 315 316 314 317 317 319 320 320 320 320 321 322 323 324 325 324 322 322 322 322 321 320 321 319 310 304 301 299 301 307 314 313 310 309 308 306 306 305 304 303 304
315 314 314 316 316 316 316 317 317 319 319 319 319 322 323 321 322 322 321 321 321 321 317 310 308 297 298 297 297 299 301 306 309 309 308 307 306 306 306 305 304 305
314 314 314 315 315 315 315 315 315 315 319 320 320 319 320 320 319 319 319 319 320 318 311 306 304 295 295 295 296 296 298 302 306 306 306 306 306 305 305 303 305 304
310 310 314 314 314 314 314 313 314 314 316 319 319 319 318 318 317 317 317 318 318 313 306 305 302 293 293 294 294 294 296 300 306 308 305 304 306 308 307 306 305 306
311 313 314 314 314 314 314 313 314 314 315 318 318 318 317 317 318 317 317 317 317 309 306 303 298 292 292 293 292 292 294 301 305 306 303 306 306 306 305 306 304 303
313 314 314 313 313 313 312 313 313 314 315 317 317 317 316 316 315 316 316 315 311 308 305 301 296 293 291 291 290 292 296 302 305 302 302 303 304 304 302 302 303 302
311 309 312 313 312 311 311 312 312 313 313 316 315 315 314 314 315 315 316 314 309 307 304 300 297 292 290 290 290 292 296 302 302 303 303 302 301 303 303 303 304 307
313 313 313 313 312 312 314 312 313 313 312 315 316 315 315 314 313 313 313 312 308 305 302 300 296 292 290 289 289 290 296 300 300 299 300 300 301 301 302 302 301 303
313 313 311 309 309 314 313 313 313 312 311 311 314 314 313 311 311 311 311 308 304 302 302 300 295 294 292 289 290 289 290 298 299 298 297 297 299 300 303 303 303 298

ECMWFNIL_sfc_thetae_009.txt.gz
Theta_e
317 317 316 315 315 316 315 315 315 314 313 313 313 313 313 313 314 314 313 312 312 311 311 310 312 312 315 313 312 313 313 311 310 309 310 309 307 306 307 305 304 306
317 318 317 316 316 317 316 316 316 315 314 314 314 314 314 314 314 314 312 312 312 311 311 312 311 310 311 311 310 310 310 309 309 313 309 308 308 307 306 306 306 307
317 317 317 316 316 316 316 316 317 316 315 315 315 315 315 315 316 314 313 311 312 311 311 311 311 312 312 310 310 311 310 308 308 311 310 309 308 307 307 307 306 307
316 317 317 316 316 315 317 317 315 316 317 316 316 316 315 316 316 314 313 318 312 311 311 312 311 312 310 311 311 310 310 310 311 308 308 308 309 308 306 307 306 305
317 316 316 316 318 316 317 317 314 315 317 318 317 316 315 316 316 314 314 314 312 311 312 311 312 310 310 309 309 308 310 310 310 309 308 308 308 308 309 306 306 306
320 318 318 316 319 317 317 316 315 315 315 318 317 316 315 316 316 315 314 314 313 313 312 311 311 311 309 308 309 308 309 309 308 309 309 307 306 307 309 307 304 306
320 320 319 319 320 317 317 317 316 316 315 318 318 316 315 316 316 316 315 315 314 314 312 311 310 310 310 308 309 307 308 307 307 309 308 307 306 305 308 307 306 306
321 321 320 319 318 318 319 319 319 318 319 316 315 315 316 316 316 317 316 316 315 314 313 312 311 310 310 309 310 307 307 311 308 308 307 305 305 304 305 308 305 304
321 322 323 320 319 318 318 319 319 318 318 317 317 318 318 315 316 317 316 316 316 315 314 313 312 311 310 310 309 309 307 308 308 306 305 306 305 304 305 305 304 304
321 322 321 320 320 320 319 318 316 316 316 317 317 318 320 320 316 316 316 316 315 315 315 314 313 312 311 312 311 310 308 309 307 306 306 307 306 305 306 305 303 304
320 322 321 320 318 317 316 317 317 316 316 317 318 319 321 320 320 319 315 315 315 314 315 314 314 313 312 312 312 311 310 309 308 307 307 307 306 305 308 305 304 304
319 320 321 320 318 317 316 316 316 316 315 317 317 318 317 317 319 319 317 316 316 315 315 315 315 314 313 312 312 312 311 310 309 308 308 307 306 306 306 306 305 304
316 316 317 317 318 318 318 319 318 317 317 317 318 318 318 317 317 317 317 317 317 318 316 315 315 315 314 312 312 312 311 310 309 308 308 307 307 307 306 304 304 304
314 314 316 317 316 316 316 317 318 318 318 317 316 316 316 317 316 317 317 317 318 318 318 316 315 315 314 313 313 312 311 310 309 308 308 307 307 306 305 304 304 304
311 311 312 315 316 315 314 314 314 314 316 317 316 315 316 316 316 316 316 316 318 318 318 317 316 316 316 314 313 311 311 310 310 309 308 307 306 305 305 304 303 303
310 310 310 310 312 312 313 314 313 312 313 315 316 316 315 314 313 312 313 315 316 316 317 317 316 317 315 309 309 312 311 312 311 309 308 307 306 304 302 302 302 301
308 310 310 310 310 311 311 315 316 316 316 315 315 316 317 316 315 314 314 315 315 316 316 317 317 317 308 303 302 305 311 311 310 309 308 307 305 303 301 301 301 302
305 305 305 306 307 310 311 312 313 314 314 314 316 316 317 316 315 314 314 313 315 315 314 315 316 311 304 302 300 299 304 312 310 309 308 306 305 303 302 301 301 302
302 302 303 303 305 305 305 306 308 309 310 310 313 316 316 316 317 315 314 313 313 312 311 309 313 308 302 301 299 298 298 306 309 309 307 305 304 304 302 301 301 302
303 302 302 303 304 304 304 305 306 307 309 310 311 312 313 314 314 314 313 310 306 303 300 299 298 294 295 297 298 296 297 303 307 306 304 303 303 303 303 303 302 301
303 302 301 302 302 302 302 303 304 304 305 306 309 309 309 310 311 310 310 309 306 301 298 296 295 292 293 294 294 295 297 300 304 303 302 303 303 303 302 302 302 302
303 301 301 301 302 301 302 302 302 302 303 303 306 306 307 307 307 307 306 306 304 301 298 293 292 292 292 294 294 295 297 302 302 301 301 301 301 301 301 301 300 299
303 302 301 300 300 300 300 300 301 303 302 303 305 304 305 305 304 304 305 305 302 300 297 292 291 291 292 293 294 295 297 300 299 299 298 298 299 301 299 300 301 301
302 301 301 301 299 300 300 300 301 302 302 302 304 303 303 302 305 304 303 304 302 298 296 293 290 290 291 292 293 294 297 298 297 298 297 297 298 300 301 301 302 305
301 301 301 300 300 300 301 301 301 301 300 301 302 302 302 301 302 303 301 300 299 298 299 294 290 290 290 291 292 294 296 296 296 295 295 295 297 298 300 301 297 294
301 300 300 300 300 300 300 301 300 302 301 300 300 301 303 301 300 303 299 296 296 297 297 293 290 288 290 290 292 293 294 295 294 294 295 295 295 294 296 297 293 292

ECMWFNIL_sfc_thetae_012.txt.gz
Theta_e
315 315 315 315 314 313 312 312 311 309 309 309 309 309 308 309 310 309 309 308 308 307 308 308 309 309 311 309 309 310 309 308 307 307 307 306 303 303 305 303 303 301
316 316 315 315 314 314 313 313 312 310 310 309 310 310 310 311 310 310 309 309 308 307 307 307 307 308 308 308 308 307 306 306 306 310 307 305 303 303 303 303 302 301
317 316 315 314 314 313 314 314 312 311 310 311 311 311 311 312 311 309 309 309 308 307 307 307 307 307 307 306 307 308 307 306 307 307 308 306 304 305 304 303 303 302
318 317 315 315 315 314 314 314 313 312 310 311 311 312 313 314 310 309 310 315 308 307 307 307 308 307 307 306 307 306 306 306 307 307 307 306 306 305 304 305 304 303
318 317 316 315 315 315 314 314 313 312 311 312 312 312 313 313 309 309 310 308 308 307 307 307 307 307 307 306 306 306 306 306 305 305 305 304 304 305 305 305 304 303
318 318 317 316 316 315 315 315 314 314 313 312 312 313 313 313 310 310 310 309 308 309 308 307 307 307 306 306 305 306 306 306 305 304 305 304 304 305 307 304 303 302
318 316 316 316 316 315 316 315 314 315 314 314 313 312 313 313 311 311 311 310 309 310 309 308 308 307 305 306 306 304 305 305 304 305 305 303 304 303 305 302 303 303
316 315 315 316 315 314 316 315 313 315 315 314 313 312 314 313 312 312 312 311 310 310 309 309 308 308 307 306 307 305 304 306 306 305 304 304 303 302 303 305 302 301
316 315 315 315 315 313 315 314 313 314 315 314 313 312 314 314 313 313 313 312 311 311 310 310 309 308 308 307 307 306 305 306 306 304 304 303 302 301 302 302 300 301
317 317 317 316 315 315 315 315 315 314 316 315 314 313 314 314 313 313 313 312 312 311 311 310 310 309 308 308 308 307 305 306 306 304 303 303 304 302 302 302 301 300
315 316 316 316 316 316 315 315 315 315 315 315 315 315 315 314 314 313 313 313 313 312 311 311 311 310 310 309 308 308 307 306 307 305 304 304 305 304 306 302 302 301
313 314 316 317 317 316 315 315 315 314 315 315 316 316 315 315 315 314 314 313 313 313 313 312 312 311 310 310 309 309 309 307 307 306 305 304 305 304 304 303 302 302
313 314 314 315 317 316 316 316 315 315 315 315 315 316 315 315 315 315 315 314 314 315 315 314 314 313 312 310 310 309 309 308 307 306 305 305 305 304 304 304 303 303
312 311 313 314 314 315 316 316 315 314 313 314 315 314 313 314 314 315 314 314 315 314 314 314 314 314 313 312 311 310 309 308 308 307 306 305 305 304 304 304 303 303
312 312 313 314 314 315 314 314 315 315 315 313 314 314 313 313 313 313 312 313 312 312 313 312 313 313 314 313 312 311 310 309 308 308 307 306 305 304 304 303 302 303
312 312 312 313 312 312 312 313 313 313 314 314 314 314 313 311 310 310 309 309 310 311 312 311 310 312 312 308 308 313 312 311 310 309 308 307 306 305 303 302 302 302
308 309 310 310 311 310 309 311 312 312 312 313 312 311 311 308 309 310 308 308 309 307 308 311 313 315 307 302 300 303 311 311 310 309 309 308 306 305 303 302 301 301
307 307 307 307 307 308 309 309 310 311 311 309 308 308 308 308 308 308 308 307 308 307 307 309 309 309 304 302 299 298 303 311 310 309 309 307 307 306 304 303 301 300
301 302 302 301 302 305 304 305 306 307 307 307 307 308 308 308 309 308 308 308 307 308 307 307 308 297 297 300 300 298 297 303 310 309 308 307 306 306 304 301 300 300
299 300 299 300 300 300 300 301 302 304 303 303 305 305 307 308 307 307 308 307 305 306 303 298 297 294 296 297 298 296 296 298 307 307 307 305 304 303 302 300 300 300
299 299 299 299 299 298 298 298 299 299 301 299 302 304 306 308 308 307 307 305 302 299 296 294 294 292 293 297 296 295 294 295 302 302 302 301 301 302 301 301 300 302
299 298 298 298 298 298 299 299 297 297 299 298 301 300 301 301 302 302 302 300 300 296 293 291 291 292 292 293 293 294 296 300 299 299 299 298 299 299 301 301 300 301
299 299 298 297 298 298 298 297 298 298 298 298 300 298 299 299 300 301 299 300 298 295 292 289 290 291 292 293 293 294 296 298 298 297 297 296 297 298 298 299 299 299
300 299 299 298 297 298 297 295 295 295 296 298 300 299 299 298 299 297 299 299 298 295 293 291 289 292 293 293 294 294 296 296 295 296 295 295 295 296 296 297 298 305
299 299 299 298 298 297 296 296 296 297 296 296 297 298 298 296 296 297 297 296 295 294 298 292 289 291 292 292 293 294 296 295 296 295 294 293 293 293 294 292 291 294
296 298 297 297 297 296 295 297 296 297 297 297 296 295 295 294 295 295 294 293 293 293 293 290 289 289 291 292 293 293 294 295 294 293 291 289 290 293 291 290 289 289

ECMWFNIL_sfc_thetae_015.txt.gz
Theta_e
315 314 314 314 314 313 310 307 307 307 305 304 304 304 305 305 307 305 305 305 305 306 305 306 306 307 309 307 307 307 306 305 305 303 303 303 301 302 302 300 300 301
315 315 316 315 315 313 311 309 309 308 307 305 305 305 304 306 306 306 306 306 306 305 305 306 306 306 306 307 305 305 304 304 304 306 303 302 301 302 301 300 300 299
315 315 315 315 315 313 311 311 309 308 308 307 306 306 306 308 306 305 306 306 305 304 305 306 306 306 306 305 304 305 304 303 304 302 304 302 301 302 300 300 300 300
314 315 315 316 314 313 312 311 309 308 307 308 307 307 308 310 306 305 306 311 305 305 304 305 306 305 305 304 304 304 303 303 303 303 304 302 303 302 300 302 303 301
315 315 315 316 316 314 312 312 310 309 308 309 307 307 309 308 306 306 306 306 305 304 304 305 304 304 304 304 304 304 303 304 302 302 302 302 302 302 302 302 301 301
315 316 317 317 314 313 312 312 312 311 310 309 309 309 307 308 306 306 307 305 305 306 306 305 305 304 304 304 304 305 305 304 301 302 302 301 301 303 304 301 300 300
316 316 317 316 314 314 313 313 312 312 310 310 310 310 309 309 308 307 307 307 306 307 306 306 306 305 304 304 304 304 304 303 302 302 303 300 302 302 302 300 300 299
316 316 316 315 314 313 313 313 312 312 311 310 310 310 310 311 309 308 307 306 305 306 305 305 306 306 305 305 305 304 303 305 304 303 302 301 300 301 301 302 299 300
314 313 313 313 312 311 311 311 312 312 312 312 311 310 310 311 310 309 308 307 306 306 306 306 306 306 305 305 305 305 305 304 304 304 303 302 301 300 300 300 299 300
314 314 313 313 313 312 311 311 312 313 313 313 312 311 310 311 310 309 309 308 307 306 306 306 306 306 306 306 306 305 305 305 304 304 304 303 303 301 300 301 300 298
312 313 313 312 312 313 313 314 313 312 313 313 312 311 311 311 311 310 309 309 309 308 308 307 307 307 307 306 306 305 305 305 305 304 304 304 304 303 304 302 301 300
311 312 313 312 313 314 314 314 313 313 313 313 314 314 314 314 313 313 314 313 312 311 309 308 308 307 307 306 306 306 305 304 305 305 304 304 304 304 303 302 302 301
310 311 313 313 313 313 314 314 314 312 313 314 313 314 314 314 314 314 314 314 314 313 312 311 310 309 308 307 307 306 306 305 305 305 305 304 304 304 303 303 302 302
311 311 313 314 314 314 313 314 314 313 312 312 313 312 313 314 314 314 315 314 314 313 313 312 312 310 309 308 308 308 306 305 305 304 305 304 304 304 303 303 302 302
311 311 312 313 314 314 314 314 314 314 314 313 313 313 314 315 314 313 311 311 311 311 312 312 312 312 312 311 310 309 307 306 306 306 306 305 304 304 303 302 302 302
309 310 311 312 312 313 314 314 314 313 314 314 313 314 314 313 313 311 311 310 310 311 311 311 310 311 311 308 308 310 309 309 308 307 306 305 305 305 304 304 303 303
307 307 308 310 311 312 312 313 313 312 313 312 312 312 312 311 311 310 310 308 309 310 311 312 312 312 306 302 300 302 309 308 308 308 308 307 306 305 305 305 304 302
305 306 307 309 309 309 309 310 308 309 310 311 311 310 308 308 309 310 310 310 308 309 309 310 310 307 302 301 299 298 301 308 308 308 307 306 306 305 305 305 303 301
303 305 307 307 308 308 307 307 308 308 309 309 309 310 308 308 309 309 308 306 307 308 309 308 307 299 295 298 299 297 297 300 306 307 306 306 306 305 304 303 301 301
300 302 303 303 303 303 305 305 306 308 308 308 308 305 307 308 307 308 307 307 308 307 306 298 296 295 293 294 296 296 295 296 302 303 303 304 303 304 303 300 300 300
298 297 297 297 297 299 299 299 300 298 299 300 303 304 305 305 305 305 306 306 305 302 298 293 293 293 291 294 295 295 295 295 300 299 298 297 298 299 299 299 299 301
297 296 296 295 296 295 296 295 294 296 296 297 296 295 296 297 298 299 299 298 297 294 294 294 291 292 292 293 293 292 295 298 296 296 295 295 295 296 297 297 298 299
296 297 296 295 295 296 294 294 295 295 295 294 294 294 296 297 297 297 297 297 295 293 292 291 290 292 292 292 293 294 295 296 295 295 295 295 294 294 295 296 296 296
297 297 298 298 296 296 294 293 293 293 293 296 295 295 296 295 295 293 296 295 296 294 292 290 289 292 293 292 293 294 296 295 294 294 293 293 292 291 291 292 297 301
298 299 298 299 299 297 295 293 294 295 293 292 293 294 294 292 293 294 293 292 292 291 299 289 288 292 292 292 292 293 295 294 295 294 293 290 290 289 288 289 290 294
297 299 299 298 299 298 296 296 295 293 293 292 291 293 293 291 292 292 291 289 289 288 289 288 288 288 290 292 293 293 294 295 294 293 291 289 289 290 288 287 288 289

ECMWFNIL_sfc_thetae_018.txt.gz
Theta_e
315 314 313 313 312 313 310 309 308 306 304 303 305 304 305 306 308 305 306 306 307 306 306 307 308 308 308 307 308 307 306 305 305 304 304 304 303 304 304 303 304 304
314 316 316 314 313 313 311 310 309 307 305 304 304 305 305 306 306 306 306 307 307 305 305 306 307 306 306 306 306 306 305 304 305 307 303 303 303 303 303 303 303 303
314 314 314 314 314 312 311 310 309 307 306 305 305 305 307 309 306 306 306 306 306 305 305 305 306 306 306 305 305 306 304 304 304 304 305 303 303 303 302 303 303 304
315 314 314 314 314 313 312 310 308 307 306 306 306 307 308 310 306 306 306 311 305 305 305 305 306 305 305 304 305 304 304 304 304 305 305 304 305 303 303 304 305 304
315 314 314 315 315 314 312 311 309 308 307 307 306 308 311 308 306 306 307 305 305 305 305 306 305 305 305 304 304 304 306 305 304 304 304 303 304 305 304 305 304 303
315 315 315 315 315 314 313 312 310 309 308 307 308 310 308 307 306 307 307 306 305 305 306 305 305 305 305 304 305 306 306 305 304 304 304 304 304 304 304 303 303 302
315 315 315 315 315 315 315 313 312 311 309 309 309 309 309 308 307 307 307 307 306 308 306 306 306 306 305 305 306 305 305 305 303 304 303 303 305 304 303 303 302 302
315 314 315 315 314 313 312 311 312 310 309 309 309 310 310 310 308 307 307 306 306 306 305 306 306 306 305 305 306 305 305 306 304 304 303 303 304 303 303 303 302 302
314 314 314 314 312 311 311 311 310 310 311 309 308 308 309 309 308 307 307 306 306 306 306 305 305 305 304 304 304 304 304 304 305 304 303 303 303 303 303 302 302 303
313 313 313 313 311 310 310 310 311 311 312 310 309 309 309 310 309 309 308 307 307 307 306 306 306 306 306 305 306 305 305 304 304 304 304 304 304 303 302 303 303 302
312 312 313 312 311 311 311 312 312 312 312 311 310 310 310 311 311 311 309 309 309 309 308 307 307 307 307 307 306 306 306 306 305 305 305 304 304 303 305 304 303 303
311 311 311 311 311 311 311 312 313 313 313 313 313 312 312 312 312 312 313 313 313 313 311 310 309 308 308 308 308 307 307 306 306 306 306 306 305 305 305 304 304 304
311 311 311 311 312 312 312 313 313 313 314 313 314 313 313 312 313 313 313 313 314 314 312 312 311 311 311 310 309 308 308 308 306 306 306 305 305 306 305 305 304 304
310 311 312 312 312 312 313 313 313 313 314 314 314 313 313 314 313 313 313 313 313 313 313 313 313 313 312 312 311 310 308 308 307 307 306 306 306 306 306 306 306 305
310 311 312 313 313 313 313 313 313 313 314 314 314 313 314 314 314 313 312 312 312 311 311 312 312 313 313 312 313 312 309 309 308 308 307 307 306 306 306 306 306 306
310 311 312 312 312 313 313 313 313 313 313 313 314 314 314 313 313 312 312 311 309 310 311 312 313 312 311 307 308 312 312 311 309 308 307 307 307 307 307 306 306 306
308 309 309 310 311 311 310 311 311 311 311 312 312 313 313 312 312 311 310 309 311 311 311 311 311 312 305 301 300 302 311 312 310 309 308 307 307 307 307 307 307 307
306 307 307 308 308 309 309 309 308 309 309 309 309 309 309 310 311 311 310 309 309 310 309 310 311 307 301 300 299 298 301 309 310 309 309 308 308 307 308 308 308 307
304 306 307 307 307 307 306 306 306 307 307 306 307 308 307 309 309 309 310 310 309 309 309 309 309 304 299 297 295 295 295 300 308 309 308 308 308 308 307 307 306 306
303 304 304 305 304 303 303 305 305 305 305 306 307 307 307 307 307 307 307 307 308 308 308 307 306 300 295 294 294 293 293 295 304 304 305 306 306 306 306 306 305 304
300 301 303 302 301 302 302 303 303 302 304 305 306 307 307 307 307 306 306 306 306 305 306 305 301 295 293 292 292 293 293 294 301 301 300 299 299 301 303 303 303 303
297 297 297 297 298 298 299 299 298 300 300 299 302 300 301 301 301 302 304 304 303 303 302 301 296 292 291 292 293 292 294 299 298 297 297 297 297 297 297 299 300 300
296 296 296 295 296 297 296 295 295 295 295 296 298 297 298 299 299 299 300 300 300 299 300 297 294 293 292 292 292 293 295 297 297 296 295 294 293 293 295 298 299 298
296 296 297 296 296 297 296 296 295 296 297 297 300 298 299 298 296 296 296 297 296 294 294 295 293 293 293 292 292 294 296 297 296 295 293 292 291 291 292 295 298 298
298 299 299 298 297 298 298 297 296 297 296 294 295 297 297 295 297 296 293 292 293 295 298 292 291 294 292 292 292 293 296 296 296 294 292 291 291 290 290 291 292 295
298 299 299 299 299 298 297 296 296 296 295 295 294 296 296 294 295 294 292 290 289 290 291 291 292 292 293 292 292 293 294 296 295 295 292 290 290 291 290 290 290 291

ECMWFNIL_sfc_thetae_021.txt.gz
Theta_e
326 325 324 324 323 323 321 320 320 321 321 322 322 321 321 321 320 322 322 323 323 322 321 321 321 321 320 320 321 320 320 320 319 319 320 320 319 319 318 318 320 318
324 324 324 323 321 319 320 322 322 322 321 322 321 320 320 321 320 321 322 322 321 320 320 320 320 319 319 319 320 320 318 319 316 317 319 319 318 318 318 319 318 318
323 322 322 323 322 321 322 322 322 321 320 320 322 322 321 322 321 321 321 322 321 320 320 320 319 318 318 318 319 319 318 318 317 318 318 317 318 317 317 317 317 318
322 322 322 322 323 323 322 321 321 320 320 319 321 322 322 321 322 321 322 320 321 320 320 320 320 318 317 317 318 317 317 316 316 318 316 317 317 316 316 317 317 316
322 321 322 322 323 323 322 322 321 320 319 321 321 322 321 321 321 320 321 320 321 320 320 319 319 319 318 317 317 316 317 315 316 317 315 315 316 317 317 317 316 316
322 321 321 322 322 322 322 321 320 319 319 320 320 320 322 321 320 320 320 319 319 319 319 319 318 318 317 317 318 318 317 315 316 316 313 314 314 315 314 316 315 315
322 322 322 323 323 323 323 322 320 319 320 321 319 319 321 320 319 319 318 318 317 317 317 318 318 317 318 318 317 317 317 317 315 315 313 313 314 314 314 314 313 312
323 323 323 323 323 322 321 320 319 319 320 319 320 319 320 320 319 319 319 318 317 317 318 317 317 317 317 318 317 317 317 317 316 314 313 313 315 312 313 314 315 312
324 323 322 323 323 322 321 319 320 319 318 318 319 318 318 319 318 318 318 318 318 318 317 317 317 317 318 317 317 318 317 318 317 316 315 314 314 313 311 312 312 313
323 324 323 323 323 323 321 320 320 320 319 319 318 319 318 319 319 318 318 319 318 317 317 317 317 318 317 316 315 316 316 315 316 317 316 316 314 313 312 312 313 313
323 323 323 324 324 324 322 321 322 321 320 319 319 319 319 319 319 319 319 318 319 317 317 317 317 317 317 317 318 317 316 317 316 315 316 315 316 316 315 314 314 314
323 323 323 323 324 323 322 323 323 322 321 320 320 319 320 320 320 320 319 319 320 319 319 318 318 318 317 317 317 318 318 318 317 317 316 316 316 315 314 315 315 314
322 322 323 324 324 324 324 323 322 323 322 320 320 320 320 321 321 321 322 321 321 321 320 319 319 320 320 320 319 319 319 319 319 318 318 318 317 316 315 315 314 314
322 323 323 324 324 324 323 323 323 323 322 322 321 321 321 321 321 321 321 321 321 321 321 321 321 321 321 322 322 322 321 320 320 320 319 319 319 317 317 316 316 315
322 322 323 324 323 323 322 323 323 323 323 323 322 322 323 321 321 321 320 320 319 319 319 320 320 320 320 321 322 322 322 322 321 320 321 320 320 319 317 316 316 316
321 322 322 323 323 322 322 323 323 323 323 323 322 323 321 320 320 319 319 320 319 318 318 318 319 319 316 309 310 320 322 321 322 321 321 321 320 319 318 317 316 317
320 321 322 322 323 323 323 322 321 321 321 321 321 321 321 319 319 319 320 320 320 319 319 319 318 317 305 301 299 300 315 321 322 321 321 320 319 319 319 319 319 317
319 319 320 320 321 320 321 321 321 320 319 320 320 321 322 321 322 320 320 320 320 318 318 318 316 308 302 300 298 298 302 318 320 320 320 320 320 319 319 319 319 319
318 318 319 319 319 319 319 320 320 319 319 319 319 321 321 319 320 320 319 319 318 317 318 319 319 303 299 298 297 296 295 302 317 320 320 320 320 319 318 319 319 318
318 318 318 318 318 318 318 319 319 319 319 320 320 319 319 318 319 320 320 319 318 318 318 319 319 302 297 296 296 294 293 295 315 318 319 319 319 319 319 318 318 317
314 316 317 318 317 317 317 317 317 318 318 319 319 318 318 318 318 318 318 320 320 319 318 317 315 296 296 294 293 292 291 294 315 316 317 316 314 313 314 315 315 316
310 312 314 315 316 316 316 316 316 316 317 318 318 318 318 319 319 319 319 318 318 317 316 315 312 292 292 292 292 291 292 312 315 314 312 310 309 310 310 311 312 312
306 309 311 312 313 314 316 316 316 315 316 317 317 317 316 316 317 316 316 316 315 316 316 314 308 296 292 292 292 292 302 314 312 310 308 307 306 307 309 309 310 310
307 305 306 306 308 312 315 316 316 315 315 314 317 316 316 316 313 310 311 313 313 313 315 313 309 298 291 292 293 294 304 312 310 308 306 304 303 304 306 305 302 301
306 307 308 308 307 308 310 312 312 313 312 311 314 316 314 312 312 313 312 312 312 312 305 312 311 301 291 292 292 293 304 312 308 306 305 304 303 302 303 303 301 298
307 307 308 307 307 308 307 307 309 310 310 311 311 312 311 311 310 311 309 307 306 308 308 310 311 308 300 291 293 293 297 310 309 307 304 303 303 302 301 301 301 299

ECMWFNIL_sfc_thetae_024.txt.gz
Theta_e
333 333 331 330 328 327 327 325 325 324 324 324 323 324 324 325 325 325 327 328 328 328 328 328 328 328 326 326 326 324 324 325 325 326 326 326 326 327 325 324 324 321
334 333 331 330 328 326 326 326 326 324 323 324 323 324 325 324 325 325 326 325 325 324 324 324 325 325 325 324 325 324 321 323 322 323 324 324 323 324 324 323 321 319
333 333 331 329 328 329 328 328 327 324 323 323 325 324 324 325 325 325 324 323 322 322 321 321 322 322 323 323 324 322 321 320 321 322 321 320 320 320 320 319 320 319
333 333 331 330 330 330 328 327 326 325 324 322 323 324 324 325 325 324 323 322 322 321 321 319 319 319 319 320 322 319 320 320 319 319 318 318 318 318 319 319 318 318
332 331 331 331 331 329 327 327 325 324 322 321 324 324 323 324 324 322 322 322 321 321 320 319 318 318 319 319 318 317 317 316 318 317 316 317 319 319 319 320 320 319
331 329 330 331 330 329 328 326 324 324 322 323 324 323 323 323 322 321 321 321 320 320 320 319 318 318 318 318 319 318 317 315 316 316 315 315 315 317 317 319 319 318
330 330 331 330 329 330 328 328 324 324 324 324 322 323 323 322 321 321 319 320 319 319 319 321 319 319 319 319 318 318 317 317 317 316 315 315 317 318 317 318 316 316
331 331 330 330 330 330 330 328 325 325 326 324 323 324 323 320 320 322 321 321 320 319 321 321 320 319 320 319 317 317 318 319 318 316 315 315 316 315 317 317 318 316
330 330 330 331 330 328 329 327 326 326 326 324 323 324 324 322 321 322 320 320 320 320 320 321 320 320 321 320 319 318 316 318 318 317 316 316 316 314 313 315 316 316
329 329 329 329 329 329 329 328 326 325 325 325 324 323 321 324 323 321 320 319 319 319 320 320 320 321 320 319 319 320 320 318 318 318 317 316 315 314 313 314 316 316
328 328 328 328 327 327 328 328 327 325 325 325 325 324 322 323 322 322 321 320 320 318 318 319 319 319 319 320 320 321 320 319 319 318 319 318 318 317 316 316 316 317
328 328 327 328 327 327 327 328 328 327 325 325 325 324 324 323 322 322 321 321 320 319 319 320 320 320 319 319 319 320 321 321 320 320 319 319 319 319 318 318 319 317
327 327 327 327 327 327 327 327 327 327 326 325 325 326 326 325 324 323 323 323 321 321 321 321 322 321 322 321 320 321 321 321 321 321 321 321 320 319 319 320 319 318
328 327 327 327 327 327 327 327 327 327 326 326 325 325 325 325 324 323 324 324 324 324 324 324 324 323 323 324 324 325 325 325 325 324 323 323 323 322 322 321 321 320
327 327 327 327 326 326 326 325 325 326 326 325 326 326 326 325 325 325 324 324 325 325 325 326 325 325 325 324 324 324 326 326 326 325 325 325 325 325 325 324 324 323
326 326 325 326 326 327 325 325 325 325 326 326 326 326 327 326 326 326 325 325 325 325 326 326 326 327 321 310 313 323 325 325 326 325 324 325 325 325 325 326 325 325
324 324 324 324 325 325 324 324 324 325 326 327 326 326 327 327 327 326 326 326 325 325 325 324 324 324 304 301 302 305 319 324 324 324 325 325 324 325 324 323 325 325
323 324 324 324 324 324 324 324 325 325 325 325 326 326 327 328 326 325 325 325 325 325 324 324 325 309 299 299 298 298 308 322 324 324 323 323 324 324 323 323 323 323
322 323 324 324 324 324 324 324 323 324 325 325 325 326 326 324 324 324 323 325 325 323 324 325 325 302 299 297 297 297 298 311 322 322 322 324 323 323 322 321 322 325
319 320 321 322 324 324 324 323 323 322 324 325 324 324 324 324 324 323 323 323 324 324 323 323 323 303 298 297 296 295 295 305 323 321 323 324 324 322 321 323 324 322
313 314 316 319 321 321 323 324 324 324 324 324 324 324 324 323 323 323 324 325 325 325 323 322 321 298 297 296 295 293 292 304 323 322 321 320 321 323 322 322 322 322
312 312 314 316 318 320 321 321 322 323 323 324 324 325 325 325 325 325 325 325 325 324 323 321 323 294 295 294 294 292 295 319 322 320 319 319 320 321 322 322 321 322
312 312 312 313 315 317 318 319 321 322 322 323 323 323 323 323 323 324 325 325 324 323 322 322 320 299 292 293 292 291 302 318 319 319 318 318 318 319 318 318 318 318
310 310 311 312 313 313 316 319 320 320 321 322 320 320 321 322 323 322 323 324 323 322 321 322 319 302 291 292 292 292 306 319 317 317 317 317 316 316 315 312 307 299
309 310 310 311 311 313 316 317 318 319 319 320 320 321 322 324 322 322 322 321 321 321 315 319 319 303 291 292 293 293 308 320 317 316 315 315 314 312 312 310 308 303
309 309 309 310 310 312 313 315 317 318 318 317 318 317 318 320 320 321 321 320 320 320 319 321 319 315 303 292 294 295 298 319 317 314 313 313 313 311 310 309 307 305

ECMWFNIL_sfc_thetae_027.txt.gz
Theta_e
332 333 330 329 326 327 327 325 325 325 325 324 324 326 326 326 326 327 328 328 328 328 327 327 326 325 325 327 327 325 325 327 326 327 327 327 328 327 325 324 325 323
332 333 331 330 327 326 327 327 327 325 325 325 325 325 325 324 325 327 327 326 326 325 325 326 325 325 325 325 325 323 322 323 322 322 324 325 325 324 323 322 320 319
333 332 330 328 326 327 326 327 327 325 324 324 327 325 323 325 325 325 325 323 322 322 323 324 325 325 325 325 324 322 322 322 322 323 322 321 321 321 321 320 319 319
331 332 330 330 328 327 326 325 325 324 325 323 324 324 324 324 325 324 323 322 320 320 320 320 321 322 322 323 322 320 321 320 320 320 319 319 320 320 320 320 320 320
329 331 330 330 330 329 328 325 323 322 322 322 324 323 323 323 322 320 321 321 320 318 319 318 319 320 320 320 319 318 318 317 318 319 318 319 320 321 321 322 321 321
328 329 329 330 330 328 327 324 321 321 322 323 322 321 322 322 319 319 320 319 319 317 317 317 317 317 318 318 318 317 316 316 317 317 316 316 317 320 319 322 321 319
325 327 329 329 329 329 327 324 322 321 322 324 321 321 321 320 319 319 318 319 318 317 316 317 317 318 319 319 317 317 316 316 316 315 314 316 318 319 318 320 318 318
327 327 328 329 328 329 328 324 322 321 323 323 323 321 321 319 318 319 319 318 317 317 317 316 317 317 318 319 318 318 318 319 318 316 316 316 318 317 319 318 319 317
328 328 329 329 328 328 328 324 322 323 324 323 323 322 321 320 319 319 318 318 318 318 317 317 317 317 319 318 318 318 318 319 319 318 317 317 317 316 316 317 317 317
329 329 329 329 328 327 329 327 324 325 323 324 323 324 321 321 320 319 318 318 318 318 318 317 317 319 319 317 316 316 317 318 318 318 318 317 316 315 315 316 317 316
329 328 328 327 327 329 330 328 326 325 324 321 323 323 324 323 320 320 318 318 319 317 317 318 318 318 318 318 320 319 317 318 318 317 318 318 318 317 318 317 317 318
328 328 328 327 326 326 327 329 328 325 325 325 323 320 322 324 322 320 319 317 317 317 317 318 317 318 318 318 319 320 320 319 319 319 319 319 319 319 317 318 318 319
327 327 328 327 327 327 328 328 328 327 325 323 324 323 321 321 322 321 320 320 318 318 317 318 318 318 318 318 318 319 320 319 320 320 319 320 319 319 319 319 320 320
328 329 329 329 329 329 328 329 329 328 327 325 324 324 323 321 320 321 322 321 320 319 319 319 319 318 318 319 318 319 320 320 320 321 321 321 322 320 321 321 320 320
329 330 329 329 327 328 328 327 328 327 327 326 324 323 324 323 322 321 321 320 320 321 320 320 321 320 320 320 320 320 321 321 321 321 321 321 321 322 323 323 322 322
327 328 327 328 328 328 325 328 327 328 327 326 325 324 323 323 322 322 321 321 320 320 321 322 323 323 323 313 315 322 324 324 324 324 323 324 323 323 324 324 325 324
325 325 326 325 327 327 326 326 324 326 326 327 327 326 324 324 324 324 323 322 322 322 322 325 325 324 303 305 306 311 322 325 325 325 325 324 324 324 323 324 324 324
325 325 324 325 325 325 324 325 325 325 325 326 327 328 326 326 325 324 324 325 325 324 324 327 328 309 299 301 304 305 311 326 326 325 326 325 325 324 325 325 322 321
322 324 324 325 326 325 325 326 325 326 326 325 324 327 326 325 326 325 325 327 327 325 325 326 328 301 300 299 300 300 301 310 324 325 324 324 324 323 324 325 323 321
317 319 319 321 324 326 326 325 325 325 327 327 327 325 325 323 324 325 326 325 324 325 324 325 324 302 299 298 298 297 298 302 323 323 323 322 323 323 325 324 324 324
314 315 316 317 318 320 322 324 325 326 326 326 326 326 324 323 322 321 324 324 324 323 322 319 321 298 298 298 298 296 295 297 321 324 324 324 325 325 325 324 323 323
314 313 314 314 316 318 318 318 320 323 325 326 326 326 326 325 324 323 321 320 321 322 320 318 320 299 297 297 296 295 294 315 319 323 323 323 320 322 322 323 322 322
313 313 313 313 314 314 314 317 318 320 322 325 324 324 323 323 323 322 322 320 319 322 319 321 321 304 296 296 295 294 298 318 319 322 321 319 320 318 317 318 315 315
311 311 312 312 313 313 314 315 316 318 319 322 322 322 321 322 322 322 323 324 323 321 319 319 318 306 294 295 294 293 304 318 318 317 319 318 317 316 318 316 309 300
309 310 311 311 311 312 314 314 316 316 317 319 319 320 319 321 321 321 323 323 324 323 317 318 319 306 293 294 293 293 304 319 317 316 314 314 315 315 315 314 310 303
307 308 309 310 311 312 313 313 314 315 316 318 319 318 317 318 319 320 321 322 323 322 322 320 320 315 301 293 294 295 297 317 319 316 315 314 315 312 312 313 310 306

ECMWFNIL_sfc_thetae_030.txt.gz
Theta_e
330 333 330 330 329 331 332 332 333 331 333 330 329 328 327 329 330 330 331 331 330 328 325 327 328 328 330 327 326 324 325 327 327 327 328 328 328 327 326 325 325 325
330 331 330 330 329 330 333 336 333 334 331 332 328 326 326 328 330 331 328 326 325 326 328 328 328 328 328 324 326 325 323 325 323 327 326 324 321 322 322 323 322 321
332 331 329 329 327 330 331 334 335 332 333 329 327 326 326 329 328 329 328 325 323 324 326 327 326 326 326 326 324 323 322 321 319 320 319 318 320 319 319 319 318 318
331 331 334 328 327 327 328 330 330 330 329 327 325 326 327 328 327 325 324 323 323 322 323 325 327 327 324 323 324 323 322 320 321 322 320 321 320 320 321 322 320 319
329 328 332 328 327 326 327 327 326 327 327 327 325 326 325 326 324 323 324 322 322 321 323 322 323 323 324 321 320 318 318 319 321 320 319 318 320 321 321 321 320 319
329 329 332 328 328 327 327 325 323 324 326 325 325 324 324 324 323 322 321 321 320 319 320 320 321 322 319 320 321 319 320 318 318 317 317 316 318 320 320 320 318 318
328 330 331 330 329 329 329 325 323 324 326 326 324 324 324 323 321 320 318 320 318 318 317 320 320 321 321 321 320 319 317 317 317 315 315 317 318 318 319 318 317 316
328 330 330 328 329 328 328 324 322 324 326 324 324 324 323 322 319 322 320 320 317 316 318 317 319 319 321 321 319 319 319 321 319 317 315 316 319 317 317 319 319 316
328 329 330 332 329 329 327 322 322 324 325 325 324 323 324 323 321 322 320 319 319 319 316 317 317 319 322 321 320 319 319 321 320 318 319 317 316 316 314 317 317 316
327 328 329 329 330 328 329 324 323 324 325 325 325 322 321 326 321 321 321 321 320 317 317 317 318 321 320 318 320 320 320 319 317 318 319 319 317 315 315 316 316 316
327 328 326 328 328 328 329 326 325 324 325 323 328 325 323 326 320 324 321 320 321 317 316 317 318 318 318 319 321 321 321 321 318 318 319 319 319 316 319 316 316 315
327 326 325 327 328 330 331 329 327 325 324 325 324 324 327 326 321 322 319 318 318 317 316 317 317 318 317 317 317 320 321 320 320 320 320 319 319 317 317 318 318 317
327 327 327 327 327 327 330 331 330 328 324 322 323 324 327 326 326 323 324 323 317 319 318 318 317 317 319 320 319 321 320 320 321 320 321 321 320 319 318 319 318 319
328 328 327 327 327 327 328 328 329 330 328 326 325 323 323 322 324 324 324 323 322 321 321 319 320 319 319 318 318 322 321 321 322 320 319 321 320 320 319 319 320 320
327 327 328 328 327 329 328 329 329 330 329 328 328 326 328 324 322 322 323 322 322 323 323 322 322 321 323 320 320 318 321 319 321 319 320 319 320 319 320 319 318 320
327 326 326 327 327 326 326 327 327 329 329 328 327 326 324 325 326 324 321 323 322 322 322 324 323 323 319 311 313 319 319 321 321 320 319 319 319 318 319 320 322 320
327 326 327 326 326 328 328 327 326 327 327 328 328 326 324 325 326 324 323 323 322 322 322 323 321 316 302 305 306 308 318 321 320 320 320 320 320 319 320 321 318 320
324 325 325 326 326 325 326 326 326 325 325 326 327 325 323 324 326 325 325 322 322 320 319 316 317 308 303 301 304 308 311 324 324 322 322 321 321 321 321 321 319 318
320 323 323 325 325 325 325 327 324 323 324 324 324 324 323 323 325 326 322 322 322 321 319 318 319 308 304 303 300 301 303 311 323 322 322 322 321 322 321 318 318 318
318 318 321 322 324 324 327 327 327 324 325 324 323 325 323 323 324 323 322 322 321 319 318 320 319 307 300 302 301 299 298 302 321 323 323 322 323 323 319 317 315 313
313 314 314 315 320 324 324 323 325 326 325 324 322 321 322 323 322 322 323 322 321 319 320 320 320 305 299 299 298 299 298 298 315 320 322 321 321 319 319 318 316 316
311 312 314 313 314 316 319 321 323 323 323 325 324 323 323 324 323 323 322 321 321 320 320 318 319 303 298 297 296 297 298 309 315 316 319 319 316 317 319 320 319 319
308 309 310 312 313 313 313 316 317 321 323 323 323 323 322 322 322 321 322 322 321 320 319 319 317 308 301 300 297 296 298 312 314 314 316 316 317 317 319 318 319 321
305 306 307 309 310 311 312 314 316 316 317 321 321 320 320 320 321 321 322 322 321 320 320 319 319 312 302 301 298 297 300 312 314 313 315 316 315 317 315 314 307 307
304 305 305 307 309 310 312 312 313 314 315 316 317 318 318 320 318 317 318 320 322 321 317 319 320 313 299 298 297 296 300 312 314 313 314 315 315 314 314 309 306 302
303 304 305 307 307 308 310 312 312 312 313 313 314 314 314 315 316 316 316 316 319 320 319 318 319 318 303 295 296 295 297 311 315 314 313 312 313 314 312 309 306 303

ECMWFNIL_sfc_thetae_033.txt.gz
Theta_e
325 324 322 322 322 322 321 319 320 318 320 320 320 319 319 320 321 320 321 321 318 317 317 316 317 319 320 319 319 321 321 321 322 322 323 322 323 323 324 323 320 320
324 323 323 322 322 322 322 320 319 321 321 320 319 317 318 319 321 319 318 318 318 318 318 318 319 319 317 318 317 317 318 318 319 323 316 315 316 317 317 319 318 317
324 322 322 321 320 321 321 321 322 320 319 318 318 318 320 319 319 319 318 317 316 316 316 317 317 317 317 316 315 314 313 313 313 314 314 312 311 312 311 311 310 311
323 323 322 321 321 321 320 319 320 320 318 317 317 319 320 320 317 315 317 319 315 315 315 316 317 316 316 316 314 314 312 313 314 314 313 313 315 315 314 313 313 313
322 322 322 321 320 320 319 319 319 318 317 317 318 318 318 315 314 314 314 313 312 312 313 313 313 314 313 311 310 310 312 312 313 312 312 312 313 314 314 314 313 313
321 322 321 319 318 319 319 318 319 319 318 317 317 318 317 315 314 314 312 311 312 312 312 311 312 312 311 311 310 310 311 312 311 311 312 312 313 314 315 313 311 311
322 322 321 320 319 319 318 317 317 319 317 317 318 316 316 315 315 314 312 312 310 311 310 310 311 310 311 311 310 310 309 310 311 311 311 311 312 312 313 312 312 311
321 323 321 321 320 320 317 316 317 318 318 317 316 316 316 316 314 313 312 311 310 310 310 311 311 310 311 311 310 308 308 313 311 310 310 311 310 310 311 314 311 310
322 322 322 320 319 319 316 315 316 317 317 315 316 315 316 315 313 313 312 310 310 310 309 309 310 310 312 310 310 309 311 311 311 310 310 310 310 310 311 311 310 310
322 322 322 321 319 320 315 315 316 317 318 317 316 314 314 315 314 313 312 312 311 309 310 310 311 312 311 311 312 311 311 311 311 311 311 310 310 310 311 310 309 309
321 321 320 321 320 319 316 316 316 316 317 317 316 313 314 316 312 313 312 312 312 310 310 311 312 311 311 311 312 311 310 310 310 310 310 310 310 311 314 310 309 308
321 320 320 321 321 320 317 317 316 316 316 316 317 314 315 314 311 312 312 312 311 311 311 311 311 311 311 311 312 312 311 311 310 310 311 311 311 312 311 310 309 308
318 318 319 319 321 322 322 319 318 317 316 316 316 316 316 314 310 312 312 312 312 312 311 311 312 311 311 311 311 312 311 311 311 311 311 311 310 312 312 311 311 311
320 320 320 321 321 321 322 320 321 318 315 316 316 315 316 315 314 314 313 312 311 311 312 312 311 311 311 311 311 312 311 311 310 310 311 311 310 311 312 312 312 312
318 320 321 320 320 321 321 321 321 320 320 319 317 315 317 315 315 314 315 312 313 311 311 312 312 312 313 312 311 312 311 312 312 311 311 311 310 311 311 312 312 313
318 318 318 319 319 320 321 321 320 320 319 318 319 317 315 314 314 313 312 312 312 312 312 312 312 313 312 310 310 313 312 313 313 311 311 311 311 310 311 311 314 312
318 319 319 319 318 319 319 320 320 319 317 318 318 316 314 316 318 316 314 314 314 313 312 312 312 311 298 302 303 306 313 312 313 312 311 311 311 310 311 313 312 312
319 319 318 318 317 316 317 318 319 317 317 317 316 315 314 314 317 315 314 313 314 312 310 311 312 309 300 302 301 302 307 313 313 314 314 313 314 313 315 313 313 313
317 317 318 317 317 318 318 317 317 316 316 317 316 315 313 314 316 314 313 313 313 311 311 310 310 306 302 302 301 300 299 304 313 314 315 314 314 313 313 312 312 313
305 307 312 315 316 317 318 317 316 315 314 314 315 314 313 313 314 314 313 312 310 310 310 311 311 307 301 299 299 299 298 302 310 313 313 314 313 313 313 312 310 311
302 302 303 305 306 309 312 313 313 314 316 316 315 313 313 313 312 312 312 311 309 309 309 311 313 305 299 296 295 297 297 298 306 312 314 313 314 314 314 313 313 312
301 300 301 301 303 305 306 306 307 310 311 313 312 312 311 312 311 314 314 313 311 310 310 311 313 304 299 296 296 296 297 303 305 308 311 312 310 314 314 314 314 314
300 300 299 300 302 303 304 304 305 306 306 310 311 311 311 312 314 314 315 314 312 312 312 312 312 306 299 298 297 296 299 305 305 308 309 310 310 312 313 314 315 315
299 299 298 299 300 301 302 302 304 304 305 306 305 305 308 311 314 315 314 315 314 313 314 313 313 309 302 300 298 297 301 308 307 308 307 308 309 310 311 313 314 313
298 299 299 300 300 300 301 301 302 302 303 304 304 304 305 305 307 312 315 315 315 315 314 314 313 311 303 300 299 298 300 306 308 309 307 307 309 309 311 310 309 309
300 300 300 300 300 300 301 300 300 300 300 301 301 303 304 304 304 305 306 311 314 316 316 315 315 314 311 302 300 299 298 305 308 309 308 307 310 310 308 304 304 304

ECMWFNIL_sfc_thetae_036.txt.gz
Theta_e
322 319 318 317 317 319 318 318 318 318 317 318 317 315 315 315 316 317 315 314 314 313 314 315 316 317 319 318 318 320 319 317 317 317 318 318 317 318 319 317 316 316
320 319 319 318 318 319 318 319 318 318 318 318 317 317 317 317 316 317 315 315 315 314 314 315 315 315 315 316 316 317 316 316 317 320 317 317 316 318 317 316 316 315
319 318 318 317 318 318 317 317 319 319 318 317 317 317 318 316 316 314 315 314 313 313 313 313 314 314 314 313 313 313 313 312 312 311 312 311 310 313 313 315 314 315
318 318 318 317 318 317 318 318 317 317 316 316 316 318 318 317 315 314 316 318 313 311 311 313 312 312 312 311 311 310 310 310 310 310 310 310 311 311 309 310 311 310
319 317 317 318 317 317 317 317 315 315 315 316 316 316 316 313 312 312 311 311 311 309 310 311 311 311 310 310 310 309 310 310 310 311 310 309 309 311 310 311 310 310
318 318 318 317 316 316 316 315 315 315 315 315 316 315 312 312 311 311 310 309 309 309 309 309 309 308 308 308 309 309 309 310 309 310 311 310 309 309 312 310 309 308
319 317 316 316 316 316 316 315 315 315 315 315 314 313 312 311 310 309 309 309 308 309 308 308 307 307 307 307 307 307 307 308 308 310 310 308 309 308 309 310 310 309
319 317 316 316 315 315 315 315 315 314 314 314 313 312 312 312 310 310 309 308 307 308 308 307 307 307 307 307 307 307 307 309 308 309 308 307 307 308 308 310 308 307
320 318 318 317 316 314 314 315 314 314 315 314 313 312 312 312 311 309 309 307 307 307 307 307 307 307 307 306 305 306 306 307 308 306 307 307 308 308 308 307 307 307
320 320 320 319 317 315 314 314 315 314 314 314 313 312 313 312 310 310 309 307 307 307 307 307 307 308 307 306 306 306 307 307 306 306 306 306 308 308 307 307 306 305
319 320 319 320 319 316 314 314 314 313 313 313 312 311 312 312 311 311 309 308 308 306 306 307 308 308 306 307 307 307 308 307 307 307 307 307 308 308 311 307 306 305
318 318 319 317 318 317 315 315 315 314 314 313 313 311 312 312 311 309 310 308 307 307 306 307 308 307 306 308 308 307 307 307 308 307 307 307 307 308 308 307 306 306
317 317 317 317 317 318 319 318 315 315 314 314 312 310 311 310 309 309 310 309 308 308 308 309 308 308 307 308 308 307 307 307 307 307 307 307 307 308 307 306 306 306
317 317 316 316 316 318 319 319 319 317 314 314 314 312 312 309 308 309 309 309 309 308 309 309 308 307 307 307 308 308 307 306 307 307 307 307 307 307 307 306 306 307
316 317 317 317 317 317 317 318 318 319 318 316 314 314 314 312 310 310 309 308 307 308 308 308 309 309 309 308 307 308 307 307 307 308 308 307 306 307 307 307 306 307
315 315 316 317 317 317 317 318 318 317 317 316 315 314 313 313 312 311 309 308 308 308 307 309 309 310 312 308 308 310 307 309 308 306 307 307 307 307 306 307 308 307
316 315 315 315 316 316 314 317 317 317 316 315 315 314 314 313 312 311 310 308 310 309 309 310 310 310 305 300 300 304 309 308 308 307 306 306 306 307 307 308 309 308
314 315 314 314 313 315 315 315 316 315 314 311 313 313 312 312 313 311 310 308 309 308 308 310 310 306 296 298 299 300 305 310 310 309 309 308 308 308 309 309 310 309
314 315 315 313 313 313 313 313 312 313 314 314 313 313 311 313 310 310 310 308 308 308 308 307 307 298 295 297 300 300 299 306 310 310 309 309 310 309 310 310 309 309
301 301 302 304 308 309 310 310 311 312 311 311 311 309 311 312 311 310 309 309 308 308 307 306 306 301 294 296 297 295 296 303 311 311 310 310 311 312 312 311 311 310
298 297 298 300 302 303 303 304 305 306 307 309 310 310 309 310 310 310 309 309 308 307 306 307 309 303 295 293 293 295 294 298 307 310 311 311 311 312 313 312 312 312
297 297 297 298 298 299 299 299 300 301 302 304 305 307 307 308 306 307 307 308 309 307 307 308 310 302 297 294 293 293 294 304 305 309 309 310 310 311 312 310 311 313
297 297 297 297 297 297 297 297 297 298 298 300 300 300 301 303 306 307 309 310 307 306 307 308 309 305 298 296 295 294 296 305 305 308 309 309 310 311 311 311 312 312
297 297 297 297 296 296 296 296 297 297 297 298 297 297 298 299 302 304 306 307 308 309 309 310 311 309 302 299 297 294 299 306 306 306 305 307 307 309 309 312 314 311
298 298 298 297 297 297 297 297 296 296 297 297 297 297 298 298 299 300 301 302 305 309 312 311 311 309 303 300 299 296 299 306 307 306 305 304 306 308 308 309 310 310
298 298 298 298 298 298 298 298 298 297 297 297 297 297 297 297 298 298 298 299 301 303 307 309 310 311 309 302 300 299 298 305 306 306 306 306 306 308 308 307 308 309

ECMWFNIL_sfc_thetae_039.txt.gz
Theta_e
318 317 316 315 316 317 315 315 315 315 315 314 314 312 312 312 315 314 313 311 312 312 314 315 315 315 317 315 316 318 317 316 315 315 316 316 314 315 316 315 315 315
318 317 318 316 317 316 316 317 316 316 316 315 313 313 312 313 314 313 312 312 312 311 312 313 313 313 314 315 316 317 315 314 315 318 317 315 315 316 315 314 314 315
317 316 316 315 316 315 315 314 316 316 317 315 314 314 315 313 313 312 311 311 311 310 311 311 312 312 313 312 313 314 315 312 311 311 317 316 315 316 315 315 315 316
317 317 316 315 315 315 315 316 315 316 315 315 314 315 316 315 312 312 314 315 311 310 310 311 311 310 310 309 309 310 309 309 308 309 309 308 311 314 314 314 314 313
316 316 315 314 315 315 315 315 315 314 314 314 314 314 315 312 311 310 310 309 308 308 309 309 309 308 308 308 308 308 308 308 307 307 307 306 307 310 311 313 312 311
316 316 316 315 315 315 314 314 314 314 314 313 314 313 311 311 310 309 309 307 307 307 307 307 307 306 306 306 307 307 307 308 307 307 308 307 306 307 310 310 309 309
317 317 317 315 314 314 314 313 313 314 314 314 312 310 310 310 309 308 308 307 307 308 307 306 305 305 304 305 306 305 305 306 306 307 307 306 307 306 307 306 307 307
318 319 319 316 314 314 314 313 313 313 313 311 310 309 309 309 308 308 307 307 306 306 306 306 306 304 304 304 305 305 306 307 307 306 306 305 305 306 306 307 306 306
319 318 319 316 314 313 313 313 313 312 312 311 310 309 308 308 307 306 307 306 306 306 306 305 305 304 304 304 304 304 305 305 306 305 305 305 305 305 305 304 305 306
318 318 318 316 315 315 314 314 313 313 312 310 309 308 309 308 306 306 306 306 306 306 305 305 305 305 305 304 304 304 305 305 304 304 304 304 305 305 305 304 304 305
317 317 317 316 316 317 315 314 314 314 312 310 308 308 308 307 308 307 306 306 307 306 306 305 305 305 305 304 304 304 304 304 304 304 304 304 305 304 310 303 304 304
315 316 317 316 316 315 314 313 313 314 313 310 309 308 308 308 307 306 307 306 306 306 305 305 305 304 304 304 304 304 304 304 304 304 304 304 305 305 305 303 303 303
317 316 317 316 315 315 316 315 313 313 312 311 311 309 309 310 309 307 308 307 306 305 305 305 305 304 304 304 305 304 304 304 304 304 304 304 304 305 304 303 303 304
315 316 316 316 316 316 316 316 316 316 314 311 311 309 309 309 309 308 307 307 306 305 305 306 305 305 304 304 305 304 304 303 304 304 304 304 305 304 304 304 303 304
315 315 316 316 317 316 316 316 316 316 316 314 311 311 312 310 308 308 307 307 306 306 306 307 307 307 307 305 305 304 303 303 303 304 305 304 304 304 304 304 304 304
314 314 314 315 315 315 314 315 316 315 314 313 314 313 311 311 308 308 307 307 307 305 305 306 307 307 310 307 307 307 304 305 304 304 304 304 304 304 303 303 304 303
314 313 313 312 314 314 313 314 314 314 313 312 313 314 314 312 310 308 307 307 307 306 304 306 307 308 304 301 299 303 307 305 305 304 303 303 303 303 303 304 304 304
312 313 312 312 313 313 312 312 312 312 312 312 312 312 312 313 311 309 308 307 307 306 305 306 306 306 301 300 298 297 301 307 305 305 305 304 304 304 305 304 305 305
300 301 301 302 304 307 309 311 311 310 309 310 310 310 310 311 312 311 309 307 306 306 305 305 305 303 295 294 296 297 297 300 304 305 305 306 305 305 305 306 304 305
298 298 298 298 299 300 300 300 301 303 305 308 308 308 308 309 311 312 312 309 306 305 305 304 304 302 295 295 295 295 295 298 303 304 304 304 306 307 307 306 306 307
297 297 297 297 297 297 297 297 297 298 299 301 302 303 305 306 307 308 309 309 309 307 305 305 307 302 296 294 293 293 293 294 303 305 306 307 307 307 307 306 307 308
296 296 296 296 296 296 296 295 295 295 296 297 298 298 298 299 300 302 303 305 307 306 305 307 308 301 297 294 293 293 293 300 302 303 305 307 308 308 309 309 308 308
296 295 295 295 295 295 295 295 295 295 295 296 295 295 295 296 297 298 300 301 302 304 305 306 308 304 299 295 295 294 295 303 303 303 303 304 307 308 309 310 310 310
295 295 294 294 294 294 294 294 294 294 295 296 294 294 294 294 296 296 296 298 299 301 303 304 306 305 300 299 298 295 296 303 304 303 305 306 307 308 307 308 309 310
296 296 295 294 294 294 294 294 294 294 294 294 294 293 294 293 295 294 295 295 296 298 303 302 302 302 300 298 297 298 298 303 305 305 304 304 305 306 305 306 308 309
297 296 295 294 294 294 294 294 295 294 294 294 294 294 293 293 293 293 293 293 294 295 297 298 299 301 300 296 296 296 296 302 306 305 304 304 304 306 307 304 305 306

ECMWFNIL_sfc_thetae_042.txt.gz
Theta_e
318 319 319 319 318 317 315 315 314 315 315 315 316 315 316 316 316 314 313 313 314 315 316 317 317 318 318 319 320 321 321 320 319 318 318 318 318 319 319 318 318 319
317 318 318 318 317 316 315 316 315 315 315 315 315 314 314 316 314 313 313 313 314 313 314 315 316 315 316 318 318 318 318 318 318 319 318 317 317 317 318 317 318 317
316 316 316 317 317 316 316 315 316 315 315 314 314 315 316 315 313 312 311 312 313 313 313 313 314 314 314 315 316 318 316 316 317 317 318 317 316 318 317 317 317 318
315 316 316 316 316 316 315 315 314 315 314 315 315 315 316 316 313 313 315 316 312 312 312 312 312 311 312 312 313 312 312 311 311 315 316 316 317 317 316 316 317 317
315 315 315 315 315 316 316 315 314 314 314 314 314 315 316 313 312 311 310 310 311 310 311 310 309 310 310 310 311 311 311 310 310 311 312 312 312 316 315 317 317 317
316 316 316 315 315 315 315 314 314 314 314 314 314 314 312 312 311 310 309 309 309 309 309 308 308 307 308 309 309 309 309 309 309 309 309 310 310 311 314 315 315 315
315 315 314 315 314 314 314 314 313 314 314 314 313 312 311 310 310 309 308 309 309 310 308 307 306 307 307 308 309 308 308 308 308 309 308 308 310 309 310 312 314 314
315 315 315 315 314 313 313 313 313 313 313 312 312 310 310 310 309 309 308 307 307 307 307 306 306 305 305 307 308 308 308 309 308 308 308 307 308 308 308 309 310 312
316 315 315 315 314 313 313 313 313 313 313 312 311 309 309 309 308 307 307 307 307 306 306 306 306 305 305 305 306 307 307 307 307 307 308 308 308 307 307 307 308 310
316 315 315 315 314 313 313 313 313 313 313 312 310 309 309 308 307 306 306 306 307 306 306 306 306 306 305 305 306 306 307 307 306 307 307 307 307 307 306 307 307 308
314 315 315 314 314 314 313 313 313 313 313 311 310 309 308 308 308 306 305 306 306 305 306 306 306 306 306 305 305 306 306 306 307 306 307 307 307 307 311 307 308 308
315 314 315 315 314 314 313 313 312 312 312 311 310 309 308 307 307 307 308 306 306 305 305 306 306 305 306 306 306 306 306 306 307 307 307 307 307 308 306 307 307 307
315 314 315 314 314 314 315 315 313 312 312 311 311 310 310 309 307 308 309 307 306 305 305 306 306 306 305 306 306 305 306 306 306 306 306 306 306 307 306 305 306 307
314 314 315 315 315 315 315 316 315 315 313 311 309 309 309 310 310 309 308 308 307 306 306 307 306 305 304 305 305 305 306 305 306 307 306 307 307 306 307 306 306 306
315 315 315 315 315 315 315 315 314 314 314 314 313 312 312 311 310 309 309 309 308 307 306 307 307 307 307 306 306 305 305 306 306 307 307 307 307 307 306 306 307 307
313 313 314 314 314 314 314 314 314 314 313 313 313 313 313 311 308 308 307 307 308 307 306 307 307 307 310 306 306 307 305 306 306 306 306 307 308 307 307 306 306 306
312 312 312 313 313 313 313 313 313 313 312 312 312 312 312 312 312 311 308 307 307 306 306 306 307 308 304 300 299 301 306 306 307 306 306 306 307 307 307 308 307 307
303 302 303 305 306 307 308 309 309 310 310 310 310 310 310 311 311 311 310 309 308 308 307 307 307 302 295 295 295 296 301 307 306 307 306 306 306 306 307 307 307 307
300 299 298 299 299 300 300 300 300 301 302 303 304 306 306 306 306 307 308 309 309 309 308 306 307 297 293 293 293 292 294 300 305 307 307 306 306 306 306 307 306 307
298 298 297 297 298 297 298 297 297 297 299 300 300 301 300 301 302 302 303 305 306 307 307 308 309 299 295 294 293 293 292 295 303 305 306 307 307 307 307 307 307 307
297 296 296 296 296 296 296 296 296 296 296 297 297 297 298 298 299 299 300 301 302 304 304 305 307 296 295 294 294 294 293 297 305 305 306 307 308 307 308 308 308 308
296 295 295 295 296 295 295 295 294 294 294 296 296 295 296 296 297 298 298 298 300 301 301 302 304 294 293 294 295 294 296 305 305 305 306 308 309 309 309 309 309 309
296 295 295 295 295 295 294 294 294 294 294 295 294 294 294 295 295 295 296 297 298 299 299 300 301 297 293 293 294 294 298 305 306 306 306 306 308 309 310 310 310 310
295 295 294 294 294 293 293 293 294 294 294 294 293 293 293 293 294 294 295 295 296 297 299 297 298 297 293 293 293 293 297 303 304 305 306 306 307 308 309 309 310 308
295 295 294 294 293 293 293 293 293 293 294 294 293 293 293 293 294 293 293 293 294 295 298 296 296 297 294 292 292 292 297 302 304 305 305 305 306 306 308 308 308 308
295 295 294 293 293 293 293 292 293 293 292 292 293 293 292 292 293 293 292 293 293 294 294 295 296 296 296 292 292 292 293 299 303 304 304 304 305 306 306 307 308 308

ECMWFNIL_sfc_thetae_045.txt.gz
Theta_e
330 332 330 330 330 331 331 331 332 333 334 334 331 332 331 333 330 331 331 333 335 336 335 336 335 335 334 335 335 334 335 335 334 334 333 333 333 333 332 331 332 332
328 329 329 330 330 330 331 332 332 332 332 333 333 333 332 331 330 330 331 332 333 334 334 334 334 334 334 334 334 334 333 333 333 331 333 332 332 331 331 332 332 333
325 327 328 329 328 329 330 331 332 332 331 331 332 332 331 331 329 329 332 333 332 333 333 333 333 334 334 334 334 334 334 333 332 333 333 331 332 331 332 331 332 333
324 327 329 330 329 328 329 329 329 329 330 328 329 331 331 329 329 329 330 330 332 331 331 332 332 332 332 333 333 332 332 332 332 333 332 332 332 331 331 331 332 332
326 328 330 329 328 328 329 329 328 328 328 330 330 329 328 327 327 327 328 329 331 330 330 330 330 331 331 331 331 331 331 331 331 333 332 332 332 331 331 330 330 331
326 327 327 327 327 327 328 329 328 328 328 329 330 329 329 328 326 326 327 327 328 328 328 328 328 328 329 329 329 329 328 327 327 328 328 330 330 331 329 330 330 329
324 325 326 327 327 329 329 330 329 328 328 329 327 328 327 326 325 325 325 326 326 325 326 326 326 326 326 327 325 324 324 324 323 322 322 323 326 328 329 330 329 328
324 326 326 327 328 327 328 327 328 327 328 327 328 325 326 325 324 325 325 325 324 323 323 322 323 323 324 324 323 324 325 324 324 322 321 322 323 323 326 328 329 328
324 325 326 327 327 327 327 326 327 327 327 327 326 324 325 325 324 324 323 323 322 322 321 321 321 321 323 323 323 323 323 323 323 323 323 322 322 322 321 324 327 328
323 324 326 326 326 327 327 326 326 326 326 326 325 324 323 323 324 322 322 322 321 321 321 320 320 321 321 320 320 321 321 321 321 322 322 322 321 320 318 321 324 326
323 324 324 325 325 325 324 324 324 323 323 323 323 323 322 322 321 321 321 320 321 319 319 320 320 320 319 320 321 323 322 322 321 321 322 321 322 321 320 320 321 324
322 323 324 323 323 323 323 322 322 321 321 321 321 321 321 322 321 320 319 318 318 318 319 318 319 320 318 318 319 321 323 323 323 322 322 321 321 321 320 321 322 321
319 319 320 320 322 322 323 322 322 322 320 319 319 320 320 320 320 319 321 319 318 318 318 318 318 319 320 320 319 319 321 321 322 322 322 323 322 321 320 320 321 321
321 320 319 319 321 322 323 324 323 322 321 321 321 321 320 319 319 319 320 319 320 319 319 320 320 319 319 320 320 321 321 321 321 322 321 322 324 323 322 321 321 321
320 321 321 321 321 322 322 323 323 325 324 324 323 322 322 321 321 320 320 319 319 319 318 319 320 320 320 322 322 322 322 321 321 320 321 320 321 322 322 321 321 321
318 319 320 320 319 319 319 320 320 321 321 320 319 319 320 320 321 321 320 319 319 318 318 318 318 317 309 300 303 318 321 320 322 322 320 321 320 321 322 322 321 322
313 313 314 313 314 315 316 317 317 318 319 319 318 318 319 319 321 322 322 322 321 321 320 318 314 305 293 294 295 299 315 319 320 321 321 320 321 321 321 321 322 321
305 305 306 306 306 307 309 309 311 311 311 312 313 313 313 315 315 317 319 322 322 320 318 314 308 296 293 293 293 294 302 318 319 319 320 320 320 320 320 320 322 323
303 303 304 304 304 305 305 306 306 306 307 307 307 309 310 310 310 312 314 316 317 315 313 310 305 294 294 294 293 293 293 306 317 318 318 318 318 319 320 321 322 321
301 301 301 301 302 303 303 303 303 303 304 305 306 307 307 308 308 309 310 311 313 312 309 306 303 294 293 293 294 293 294 304 319 319 318 318 318 318 319 319 319 319
301 300 300 300 301 301 302 302 302 302 302 303 304 304 305 305 306 306 307 308 309 310 308 306 301 292 292 292 292 293 295 304 320 321 323 323 322 321 320 320 320 320
299 299 300 300 300 299 300 300 301 302 302 303 303 302 303 304 304 305 305 306 307 308 308 306 302 292 292 292 292 292 297 315 317 318 320 321 323 322 322 322 322 321
298 298 297 297 298 298 298 299 299 299 300 302 302 302 302 302 302 303 304 305 305 305 306 305 303 295 291 292 292 292 303 314 315 314 316 316 318 318 319 320 321 321
297 297 297 297 297 297 298 299 300 300 300 301 300 300 300 301 302 302 302 303 303 303 304 305 303 296 291 292 292 291 298 311 311 312 313 314 315 318 318 319 319 311
298 298 298 298 298 298 299 298 299 299 300 301 301 301 300 301 301 301 301 301 302 302 300 303 303 299 292 291 291 291 299 309 309 310 311 312 312 313 315 317 318 315
296 297 298 298 298 298 298 300 300 299 300 300 300 300 299 300 300 300 300 300 301 301 301 302 301 301 296 290 291 292 292 304 308 307 307 307 309 309 310 313 315 316

ECMWFNIL_sfc_thetae_048.txt.gz
Theta_e
335 334 334 333 333 335 335 333 333 333 333 332 331 331 331 333 333 334 334 335 334 335 335 335 334 334 334 335 335 334 336 336 335 335 335 335 334 334 333 333 334 331
336 336 335 333 333 335 334 334 334 333 334 333 332 332 333 333 334 333 332 333 333 333 333 333 333 333 333 332 334 336 337 337 336 335 336 336 336 337 336 335 335 334
338 338 337 335 334 334 334 334 335 334 333 333 333 333 333 334 334 333 333 334 332 332 333 333 333 332 332 332 334 337 337 338 338 337 338 336 338 337 337 337 335 334
336 337 335 334 334 334 335 334 333 333 334 333 332 332 332 332 333 332 332 331 332 332 332 332 332 332 331 331 333 332 333 335 335 337 337 337 337 336 337 337 335 333
334 335 335 333 333 334 334 333 333 333 332 332 333 333 331 331 331 331 331 330 331 331 331 331 331 331 331 331 331 330 331 331 334 334 332 333 335 335 336 336 335 333
334 335 335 333 333 334 333 332 331 332 332 332 333 332 331 330 330 330 330 329 328 330 330 330 329 329 331 331 331 330 330 328 331 331 331 331 331 333 331 333 335 333
332 334 334 333 333 333 333 332 332 332 332 333 332 332 331 330 328 330 328 329 328 328 327 328 327 328 330 331 330 329 328 328 328 328 326 326 327 330 329 331 332 332
331 333 334 334 333 332 332 331 332 332 332 332 332 332 331 328 328 329 328 328 326 327 327 326 325 325 328 330 328 328 328 327 327 326 326 326 327 325 327 329 333 332
332 332 333 334 333 332 330 331 331 331 331 331 331 331 331 329 328 328 327 326 325 327 327 325 323 323 327 328 328 328 327 327 327 326 325 325 326 325 324 326 329 333
331 332 334 334 333 331 329 331 331 331 331 331 330 330 328 328 327 327 326 325 324 325 325 323 322 322 324 325 325 326 326 326 325 325 325 325 323 322 322 325 327 331
331 333 332 330 332 330 331 331 331 331 332 330 330 329 327 326 326 326 324 323 324 323 322 322 321 320 322 323 325 326 326 326 325 324 324 324 324 323 325 325 327 331
331 331 329 329 329 332 333 332 331 331 330 329 327 325 324 324 323 322 321 321 322 321 322 321 320 320 319 321 323 324 325 326 326 325 323 323 323 323 323 324 326 327
329 329 330 330 330 331 332 330 330 330 328 326 324 322 322 321 321 321 321 320 320 321 320 320 319 319 320 321 321 322 323 323 324 325 325 324 323 322 323 324 324 326
328 330 330 329 329 329 328 329 328 327 326 324 323 323 322 321 321 321 321 319 319 319 319 320 319 319 319 320 320 321 321 321 321 322 324 324 325 323 324 324 324 325
327 328 329 329 328 327 326 326 326 325 323 322 322 323 322 321 322 321 320 320 320 321 320 322 323 323 323 323 323 320 321 321 321 319 321 323 324 324 323 322 323 324
327 327 327 326 326 326 326 326 326 326 326 325 324 323 324 324 323 323 322 322 322 322 324 326 326 320 304 296 299 319 323 321 321 322 319 321 321 322 322 322 323 324
324 323 324 324 324 325 325 324 324 326 326 325 326 326 327 326 325 323 323 323 324 325 324 321 315 307 294 292 294 292 317 322 322 322 322 321 321 321 320 321 322 323
318 319 319 319 319 319 318 317 317 318 318 319 321 322 323 326 326 326 326 326 324 323 321 317 311 296 292 294 293 292 296 318 322 322 322 322 323 322 322 322 322 324
313 312 313 313 313 313 314 314 314 314 315 316 317 319 322 323 324 325 323 321 318 315 314 312 309 293 293 292 294 293 294 305 323 322 321 321 322 321 323 323 323 323
311 310 310 310 312 313 313 312 313 312 315 316 317 319 320 321 322 321 320 318 316 313 310 308 306 295 292 291 293 292 294 300 326 324 324 322 321 322 322 322 322 321
307 307 307 307 307 308 309 309 310 310 310 312 313 313 313 314 315 315 316 317 316 313 310 307 302 291 292 291 292 292 292 297 328 328 325 326 326 327 326 326 325 324
304 304 304 305 305 304 303 304 306 307 307 308 309 309 310 310 310 311 311 314 314 313 310 306 302 291 291 292 292 292 292 321 324 325 325 325 327 328 327 328 328 328
302 302 302 302 303 303 303 303 304 305 305 307 306 306 305 305 307 307 309 310 311 311 310 307 304 295 291 291 292 290 304 320 321 321 322 323 324 324 325 326 327 327
301 301 301 301 301 301 302 302 302 302 304 305 306 305 306 305 306 306 306 306 306 308 309 307 304 296 291 292 292 291 297 316 316 318 318 319 320 321 322 323 323 309
301 301 301 301 301 301 302 302 302 303 303 305 306 307 307 307 306 306 305 305 305 306 305 308 307 300 291 291 291 291 299 313 313 314 315 317 316 316 319 319 321 316
301 301 301 301 300 301 302 302 303 304 305 305 305 306 306 306 306 306 305 305 306 307 307 308 308 306 297 291 291 292 291 304 312 311 311 311 312 312 312 315 316 319

ECMWFNIL_sfc_thetae_051.txt.gz
Theta_e
334 335 334 336 336 335 334 332 333 333 333 334 333 334 333 335 335 335 335 334 334 334 333 334 334 335 334 334 338 338 337 337 337 336 336 336 334 333 334 333 335 335
332 334 335 333 334 334 334 334 334 333 334 334 333 333 334 335 334 335 334 333 334 333 334 334 335 334 334 332 333 333 334 335 336 335 336 336 336 335 335 335 335 336
338 336 334 333 332 334 334 335 335 334 333 334 334 334 334 335 334 334 333 334 332 333 333 333 333 333 332 331 333 335 335 335 334 335 336 335 335 335 334 336 336 337
337 336 332 333 334 334 335 334 334 335 335 333 333 334 334 335 334 334 332 333 332 332 333 333 332 332 331 331 333 334 336 336 336 336 336 335 336 334 333 336 335 333
335 335 334 334 335 335 335 333 333 333 334 333 334 333 333 333 334 331 331 331 332 332 332 332 332 331 331 331 331 330 333 336 336 335 332 335 336 335 336 335 334 334
337 336 334 333 334 333 332 333 332 333 333 333 332 330 331 331 331 330 330 330 330 330 330 330 329 330 330 330 331 330 331 329 332 333 331 332 331 333 333 335 334 333
336 335 333 331 332 332 332 333 334 333 333 334 332 330 330 330 330 330 329 329 328 328 328 327 327 329 330 331 329 329 329 329 328 328 326 327 328 330 328 330 333 330
336 335 332 332 331 332 332 331 332 332 334 333 332 331 329 329 329 330 330 328 328 327 327 326 327 327 329 329 327 328 328 328 328 327 326 326 327 326 327 328 332 332
335 335 333 332 332 332 331 331 332 333 333 332 331 331 330 329 328 330 329 327 328 328 327 327 325 326 329 328 327 327 326 327 327 326 326 326 326 326 324 327 330 332
334 333 333 331 331 331 331 331 332 332 331 332 330 330 329 330 329 328 327 326 326 327 326 325 324 324 327 327 325 326 325 326 326 327 326 326 325 325 323 325 327 331
333 333 332 332 330 329 331 332 332 331 332 331 330 329 328 328 326 327 326 324 326 325 324 323 323 321 323 325 327 327 326 325 325 325 326 325 324 324 327 325 326 331
333 332 331 332 331 330 330 330 331 331 331 331 329 327 328 326 325 326 323 322 324 324 322 322 320 321 322 323 324 326 327 326 326 325 325 324 324 323 324 326 327 328
331 331 332 333 332 330 330 329 329 331 330 330 328 327 325 325 325 324 323 322 322 323 322 321 321 320 321 322 324 324 325 325 325 326 325 325 324 323 324 325 325 325
326 329 333 333 331 330 330 330 331 331 329 329 326 325 323 322 321 321 323 322 323 322 322 321 320 320 320 322 322 324 324 325 325 325 324 325 325 324 325 324 326 326
326 328 330 331 331 331 331 330 330 329 327 325 324 323 323 322 322 321 320 320 319 321 320 321 323 322 313 313 318 322 323 322 323 322 323 323 324 324 324 324 324 326
326 328 328 330 327 328 329 329 327 326 325 323 322 323 323 323 322 322 320 320 320 321 323 328 323 317 302 296 297 310 323 321 322 322 321 322 323 322 323 323 324 325
327 328 325 328 328 328 328 327 324 323 321 321 321 321 322 321 321 320 321 321 321 324 325 322 316 305 294 293 294 294 311 325 321 321 320 321 321 322 321 321 323 322
325 325 326 327 328 327 327 326 326 324 323 324 324 325 325 324 323 323 326 325 323 321 319 316 309 295 292 293 293 293 297 315 325 322 321 321 321 321 320 320 321 324
317 316 316 317 320 322 323 322 322 322 322 322 322 325 325 324 324 323 320 318 317 315 312 310 306 293 292 292 293 292 293 304 322 323 320 320 322 322 321 321 321 322
317 316 315 315 316 316 317 317 318 318 320 322 323 324 324 323 322 320 318 316 314 312 308 306 301 294 292 291 292 291 291 297 327 322 321 321 322 322 323 323 322 322
311 311 310 311 313 314 314 313 313 314 314 316 318 320 321 321 321 320 318 316 315 312 308 305 300 291 291 291 292 292 291 296 326 323 322 322 322 322 322 323 322 323
308 309 310 309 310 311 310 310 311 312 312 315 314 314 313 314 316 317 315 314 313 311 309 306 303 291 291 291 291 291 292 318 324 324 323 323 325 324 324 323 323 323
306 307 309 309 310 310 309 309 309 309 311 310 309 309 309 310 310 311 312 313 311 310 308 306 303 294 291 291 291 290 299 320 323 322 321 322 324 326 325 326 327 328
305 305 304 305 306 305 305 305 306 307 307 308 308 307 306 306 306 307 307 308 309 309 309 306 303 296 291 291 291 291 296 314 319 320 322 322 323 325 325 325 323 313
304 304 304 304 304 304 305 305 305 305 306 308 310 309 307 306 305 305 305 306 307 307 308 307 303 298 291 291 291 291 297 309 315 316 317 319 320 319 321 321 320 305
302 303 303 303 303 303 303 304 305 306 306 306 308 306 306 306 306 306 305 305 306 307 308 310 307 300 295 291 291 292 291 302 313 313 313 313 314 313 314 316 317 311

ECMWFNIL_sfc_thetae_054.txt.gz
Theta_e
331 332 333 333 331 330 334 336 335 334 336 336 335 334 335 337 336 337 337 336 338 338 337 337 336 337 336 335 339 337 338 336 337 336 335 335 334 333 334 332 333 333
330 332 332 332 330 328 330 333 335 335 336 337 336 335 336 335 335 337 335 336 337 337 337 336 336 336 337 334 336 336 337 338 335 334 335 334 334 333 333 334 332 333
331 332 331 330 329 328 329 334 336 337 334 336 336 336 335 335 335 336 335 335 333 335 337 337 338 337 335 335 334 335 334 336 334 336 334 332 334 334 334 334 334 333
331 331 330 329 330 331 332 333 335 337 336 335 334 335 334 335 336 334 335 335 334 334 336 337 336 336 334 334 333 334 335 336 336 336 335 335 334 333 333 334 333 332
330 330 330 330 331 331 332 333 334 335 335 335 336 334 333 334 334 331 334 335 333 332 335 335 335 335 334 332 333 332 334 335 336 336 334 334 334 333 334 333 332 332
332 331 332 332 332 333 333 332 333 334 334 333 333 333 333 334 332 330 331 332 332 332 333 333 333 334 332 334 334 334 332 332 332 334 334 331 334 334 331 333 331 332
331 330 331 331 333 333 332 332 333 333 334 333 331 331 331 331 331 329 329 331 329 329 329 331 331 332 332 334 331 330 331 332 330 331 327 328 329 331 330 330 330 328
329 329 330 331 332 332 332 333 332 333 333 331 331 329 329 329 329 331 330 331 327 327 329 326 328 329 331 332 330 329 330 333 332 328 327 326 327 326 328 331 332 331
329 328 328 328 330 331 331 331 332 333 332 332 330 328 330 330 330 331 330 329 327 328 326 326 327 328 331 331 329 329 327 329 330 327 327 326 326 326 324 326 329 330
330 329 329 329 329 330 330 331 332 332 332 332 330 328 328 332 330 330 330 331 327 326 326 324 328 326 330 329 327 328 328 328 328 329 326 326 327 324 323 324 326 328
331 330 329 329 329 330 330 331 331 331 332 330 330 329 327 332 327 332 328 330 331 328 324 324 325 325 327 328 329 330 328 329 327 326 328 327 328 325 326 325 326 328
330 330 329 329 329 330 330 331 331 331 332 329 328 327 328 328 326 329 325 325 327 327 322 323 323 324 326 327 326 328 329 328 327 328 327 326 320 325 325 326 326 327
329 330 330 330 330 330 331 332 330 331 330 331 329 328 326 326 327 326 329 326 323 327 322 322 322 323 325 326 327 326 328 326 327 326 326 329 323 325 326 326 326 326
329 332 330 329 329 330 329 330 329 329 329 330 328 326 324 324 325 324 328 327 328 325 323 322 317 314 312 314 318 325 327 327 326 326 326 324 327 327 324 324 326 328
331 333 331 330 331 329 328 328 329 327 330 329 327 325 328 324 325 323 323 326 322 323 322 320 315 309 304 302 309 313 319 326 327 326 325 324 324 325 323 324 326 328
329 331 329 328 326 325 325 323 325 328 329 326 323 323 326 323 323 323 324 321 322 321 320 316 311 307 299 296 298 304 314 321 326 324 324 324 322 323 322 325 321 324
325 327 326 323 324 325 324 324 324 323 324 322 323 324 324 323 323 321 322 323 321 318 314 310 305 299 294 292 293 295 309 315 320 323 322 322 323 323 322 322 318 317
324 324 326 325 324 323 323 323 323 322 323 321 323 323 324 324 321 320 319 318 315 312 310 306 302 295 292 293 293 293 296 310 319 322 323 322 321 321 321 321 320 318
318 317 317 318 320 322 323 322 323 324 323 323 323 324 322 320 317 316 315 313 310 307 304 303 300 293 292 292 292 292 291 302 319 321 322 321 322 323 321 322 321 321
315 315 315 317 317 316 316 318 319 319 320 322 322 322 320 318 317 314 312 310 308 306 303 300 298 293 292 292 292 291 291 295 318 324 324 323 322 323 323 323 321 321
312 312 313 313 313 312 311 312 313 314 314 315 317 318 318 317 317 315 312 310 307 306 303 301 297 292 291 291 291 292 292 298 320 325 322 323 322 323 322 323 323 324
309 310 310 310 309 309 309 309 309 310 311 312 312 313 314 315 315 314 312 311 311 309 305 301 298 291 291 291 291 291 295 314 321 323 323 322 323 324 322 323 323 323
305 306 306 307 307 307 306 306 307 308 309 310 309 309 309 309 309 310 311 310 309 307 304 300 297 292 291 291 291 291 297 311 317 320 322 323 323 326 325 316 314 319
303 304 304 305 305 305 306 306 306 307 308 308 307 306 306 307 308 307 307 308 307 306 304 301 297 294 291 291 291 291 296 306 311 315 322 322 322 323 318 308 303 305
302 303 303 304 304 304 305 304 305 306 307 308 308 307 307 308 308 306 305 307 308 308 306 301 297 295 291 291 291 291 295 304 311 311 308 308 312 313 314 306 301 296
301 302 302 303 303 303 304 305 305 306 307 307 308 309 308 307 306 305 304 305 307 308 306 302 298 296 293 291 292 292 293 303 305 301 300 302 304 305 308 308 303 299

ECMWFNIL_sfc_thetae_060.txt.gz
Theta_e
327 327 327 325 326 328 328 328 328 330 329 329 329 328 328 328 329 328 328 328 328 328 327 327 327 328 330 330 329 329 329 328 327 326 326 325 324 324 324 323 323 324
325 326 326 327 326 326 328 328 329 330 329 329 328 327 327 328 328 328 327 327 328 327 326 326 327 328 329 329 329 328 327 327 326 328 326 324 324 324 324 324 324 322
323 324 326 327 327 328 329 329 329 329 329 329 328 328 328 328 327 327 326 327 327 325 325 326 327 328 328 328 327 327 327 325 325 325 326 325 325 325 324 324 322 323
324 324 326 327 327 327 329 329 329 329 329 327 328 329 328 328 327 325 325 330 325 325 324 325 327 327 327 326 326 325 324 325 325 326 325 325 325 325 324 324 323 323
325 324 324 325 325 326 326 327 328 328 328 328 328 328 327 326 326 325 325 324 325 324 324 324 325 325 326 326 325 324 324 323 323 323 324 324 324 325 324 324 323 323
325 325 325 324 325 326 325 326 328 328 328 328 328 327 327 326 325 324 324 323 324 324 323 323 322 323 324 324 324 325 324 323 323 324 325 325 324 325 327 324 323 322
326 325 325 325 326 326 325 323 325 326 327 328 328 327 326 325 324 324 324 324 324 323 323 321 321 322 323 323 323 323 323 325 324 325 325 324 324 323 325 325 324 323
326 325 324 325 325 325 323 324 326 327 327 327 327 326 326 324 325 324 324 324 323 322 321 320 320 322 322 322 323 322 321 324 324 324 324 324 324 324 323 326 324 323
327 325 324 324 324 323 324 325 326 327 328 326 326 325 324 324 324 324 324 324 323 322 321 319 319 320 321 322 322 321 321 321 323 323 322 322 322 324 324 323 322 323
327 326 325 324 323 322 323 325 325 326 327 326 326 324 323 323 324 324 324 323 323 321 320 318 318 319 320 321 321 320 319 320 320 320 321 321 321 321 321 321 321 320
326 325 324 323 322 322 323 324 325 325 326 325 325 324 323 322 323 323 323 322 321 320 318 317 318 318 319 319 318 318 318 318 319 318 319 319 319 320 322 320 320 321
324 324 322 322 320 322 323 324 325 325 326 324 324 323 322 322 322 322 322 320 320 318 317 314 313 314 317 318 317 317 317 316 317 318 317 318 317 317 320 321 321 320
322 322 322 322 321 322 323 324 325 325 324 324 324 324 322 321 320 320 319 318 316 314 312 310 309 310 310 311 313 314 315 314 314 315 314 313 315 319 320 320 320 319
322 321 322 322 321 323 324 324 324 324 324 323 323 322 321 320 318 315 314 313 311 310 309 308 306 306 305 307 310 313 314 314 314 314 315 315 316 319 320 319 319 318
322 321 321 321 321 322 322 323 323 323 323 322 322 321 319 316 315 313 310 309 307 307 305 305 303 302 301 302 308 311 312 313 313 314 315 316 317 318 317 317 315 315
321 321 321 321 321 321 321 321 321 322 321 320 318 317 316 314 312 310 308 306 304 303 302 301 300 300 300 298 301 307 311 313 313 312 313 315 317 317 315 315 317 315
320 321 321 320 321 321 320 320 320 320 319 318 316 315 313 311 309 306 305 304 302 301 300 298 297 297 294 293 294 302 310 312 312 311 311 315 317 317 317 316 314 313
320 320 320 320 320 320 319 318 318 317 317 315 313 310 308 307 305 303 302 300 299 298 297 297 296 295 292 293 294 297 308 312 312 312 312 314 316 316 315 313 311 310
318 319 319 319 318 318 318 318 317 315 314 311 309 307 305 303 301 300 299 298 298 296 295 295 295 293 292 294 294 297 303 309 313 312 311 310 312 312 311 310 309 308
308 317 317 317 317 317 317 316 314 312 310 309 306 304 302 301 300 299 298 297 296 295 294 295 295 294 292 294 296 298 302 307 314 313 313 313 312 311 312 310 308 305
304 307 312 314 315 314 313 312 310 309 308 307 305 303 301 300 299 298 297 296 295 295 295 295 295 293 293 294 296 298 301 305 311 309 308 307 308 308 307 305 302 300
302 303 306 309 310 310 309 308 308 308 306 306 304 303 302 301 300 298 296 295 295 294 295 294 294 292 293 295 297 299 303 309 306 303 301 300 300 300 299 299 299 298
302 302 303 305 306 306 305 305 305 305 305 305 304 303 302 301 299 298 297 295 295 294 294 293 294 293 292 293 295 298 302 305 303 300 298 297 297 298 298 299 299 298
302 302 302 303 304 304 304 304 304 304 302 303 303 301 300 299 298 296 296 296 295 295 295 294 294 294 292 293 294 296 301 305 303 300 298 297 296 296 296 297 299 302
301 301 301 302 302 303 303 303 303 303 304 304 304 303 301 300 298 297 296 296 297 297 300 296 295 295 293 292 293 295 300 303 303 301 299 297 296 296 296 296 296 296
301 301 301 301 301 302 303 303 304 304 304 304 303 303 301 300 299 297 297 297 297 297 297 297 296 295 294 292 293 293 295 301 302 302 300 299 299 297 297 296 296 296

ECMWFNIL_sfc_thetae_063.txt.gz
Theta_e
324 323 324 325 325 325 325 325 326 328 328 327 326 325 325 326 327 327 328 328 327 328 328 328 327 327 328 327 327 327 326 326 326 325 325 324 322 322 323 321 320 321
326 324 324 325 324 324 324 325 326 328 328 327 327 326 326 327 327 329 328 328 328 327 326 326 326 326 327 327 326 326 325 325 325 326 324 323 322 322 322 321 321 319
325 324 324 325 325 325 325 325 326 328 329 328 328 327 327 328 327 328 328 327 327 325 325 325 326 326 327 327 326 326 325 324 324 324 324 323 321 322 322 321 320 320
323 323 324 325 325 325 326 326 325 326 326 326 326 326 327 327 327 326 326 330 325 324 323 324 325 326 327 327 326 325 324 324 324 324 323 321 322 322 321 321 320 320
325 324 323 324 324 323 323 325 326 325 326 326 326 326 326 324 325 325 325 325 324 323 323 324 324 325 325 325 325 324 322 322 321 323 323 321 321 322 320 322 320 320
325 325 324 324 323 323 322 323 326 326 326 325 325 326 325 325 325 325 325 324 324 323 323 323 324 324 325 324 324 324 323 322 321 322 322 322 320 320 323 322 321 320
324 325 325 325 324 324 324 325 325 326 326 325 325 325 325 324 323 323 324 324 324 323 323 322 323 323 323 323 323 322 321 321 321 322 322 320 321 320 321 321 321 321
325 326 326 325 323 323 323 324 325 324 324 325 325 325 325 325 324 323 323 324 323 323 322 322 322 323 321 322 322 321 320 321 321 321 321 321 320 321 321 322 321 321
326 326 326 324 322 322 324 323 324 324 325 325 325 324 324 324 324 323 323 323 323 322 321 321 322 322 321 321 321 321 321 320 322 322 322 321 321 321 322 321 320 320
326 327 326 325 321 322 323 322 324 324 326 325 325 324 324 323 323 323 322 323 323 321 320 320 320 321 321 322 322 321 321 321 321 321 322 322 322 322 322 321 321 319
323 325 326 325 321 321 323 323 323 324 325 326 324 323 323 322 323 323 322 322 322 320 319 318 319 321 321 320 320 320 321 321 321 320 320 320 321 322 324 321 321 321
323 324 325 323 321 321 322 323 323 324 324 324 325 324 322 322 322 322 322 321 321 320 318 317 318 319 320 319 318 317 317 319 319 319 319 319 318 319 321 320 321 321
322 323 323 322 322 322 322 323 323 323 324 324 324 323 322 322 322 322 321 321 319 316 315 314 315 316 317 316 315 315 315 315 316 317 316 316 316 317 319 319 319 319
319 320 322 323 323 323 322 322 322 322 323 324 323 322 322 321 321 320 317 315 313 311 309 309 309 309 308 310 312 314 313 312 314 315 314 313 314 315 317 318 318 318
314 320 320 322 323 323 322 321 321 321 322 322 322 322 321 321 318 315 312 309 307 306 306 306 306 305 304 306 311 310 311 312 313 314 314 313 312 313 314 314 313 312
309 317 321 321 321 322 322 321 321 320 321 321 321 318 317 315 314 312 310 307 305 303 303 303 302 301 302 301 306 309 311 312 312 311 313 314 315 314 313 314 313 312
307 311 320 320 320 322 321 321 321 320 320 321 319 316 313 313 313 310 307 306 304 303 301 300 299 299 296 296 298 305 310 311 311 311 311 314 315 315 313 311 308 308
305 308 315 319 320 320 321 321 320 319 319 318 314 313 311 310 309 307 305 303 302 301 299 298 297 296 293 296 297 302 307 311 311 313 313 313 313 313 312 308 306 305
304 306 309 318 319 320 320 319 320 318 316 313 310 310 308 306 304 303 302 301 301 299 298 298 297 294 293 296 298 301 302 307 310 310 311 310 311 310 308 306 304 303
303 304 305 309 318 319 317 318 317 315 311 309 307 306 304 302 301 300 299 299 300 299 298 298 297 295 294 297 298 298 300 305 311 310 310 309 309 308 305 303 301 300
303 303 304 305 307 313 316 314 312 308 306 305 304 303 302 300 298 297 297 298 298 299 298 297 295 293 295 297 298 298 300 303 307 306 304 302 301 300 299 298 297 298
302 302 302 303 305 305 307 307 306 304 302 302 301 300 299 298 297 297 296 297 298 298 298 296 295 293 296 297 297 297 299 304 303 301 299 298 297 297 297 297 296 296
301 302 301 302 303 303 303 303 302 302 301 301 299 299 297 296 295 295 296 296 297 297 296 295 295 293 294 296 296 297 299 302 300 298 297 296 296 296 297 298 297 295
301 301 301 301 301 301 302 302 302 301 300 300 298 297 296 296 296 296 296 296 296 295 296 295 295 294 293 294 296 296 300 301 299 297 295 294 294 294 295 296 299 301
300 301 301 301 300 301 302 302 301 300 299 299 298 297 297 297 297 296 296 297 297 297 299 296 295 295 293 293 294 296 300 300 299 297 296 294 294 294 294 295 295 296
299 300 301 301 301 300 301 302 302 300 299 299 298 298 298 297 298 297 297 297 297 297 297 296 295 294 294 293 294 295 297 301 300 298 296 296 295 295 295 295 295 294

ECMWFNIL_sfc_thetae_066.txt.gz
Theta_e
324 325 327 326 325 325 325 325 326 326 326 326 325 326 326 327 327 328 328 328 328 328 328 328 328 327 328 328 328 328 328 327 327 327 326 326 325 324 324 323 323 324
324 326 326 327 325 324 325 326 326 327 326 326 326 325 325 325 325 326 327 327 327 328 328 328 328 328 328 327 326 327 326 327 326 327 326 325 325 324 324 324 324 324
323 323 324 325 326 325 324 324 324 325 327 326 325 326 325 326 326 326 326 326 326 327 327 327 328 328 327 327 327 327 326 325 325 326 326 325 325 324 324 324 324 323
322 323 323 324 324 324 324 324 324 325 325 324 325 326 326 326 326 326 326 328 326 326 326 326 327 326 326 326 326 326 326 326 326 326 325 324 324 325 323 324 323 322
322 323 323 324 325 325 324 324 325 325 324 324 324 325 325 325 325 325 325 326 326 325 324 325 326 325 326 326 326 326 325 324 324 325 325 324 323 324 323 323 322 322
322 323 324 324 323 323 324 323 324 325 325 324 324 325 325 325 325 324 324 325 325 325 323 324 325 325 326 326 326 325 324 323 323 324 324 323 322 323 323 323 323 322
321 321 322 324 324 324 323 324 325 325 325 326 325 325 325 325 324 324 324 324 323 322 321 322 324 324 325 325 325 324 324 324 323 324 324 323 323 322 323 323 323 323
323 323 324 325 324 323 323 324 324 325 326 325 325 325 325 325 324 323 323 323 322 322 322 322 323 324 324 324 324 323 322 323 323 324 324 323 322 323 323 323 323 323
324 325 325 324 323 323 323 324 324 324 325 325 325 325 325 325 324 323 323 323 322 322 322 322 323 323 323 324 324 323 322 322 323 324 324 323 322 323 323 323 322 323
322 324 325 325 324 323 323 323 324 324 325 325 325 324 324 324 324 323 323 322 322 322 322 322 323 323 323 324 324 323 323 322 322 323 323 323 323 323 323 323 323 322
316 319 323 325 324 323 323 323 323 323 324 324 324 323 323 323 323 323 322 322 322 322 322 321 322 323 323 323 323 323 323 322 322 322 323 323 324 323 324 323 322 323
312 314 316 320 323 324 323 323 323 323 323 323 324 323 322 323 322 322 322 322 322 322 322 321 321 322 323 323 322 321 322 322 322 322 322 323 323 323 324 323 324 323
309 310 312 316 321 323 324 323 323 323 323 323 323 323 322 322 322 322 322 322 322 322 321 321 320 321 322 322 321 320 320 321 321 321 321 321 321 322 323 323 324 324
306 308 310 314 319 323 323 322 322 323 323 323 323 323 322 321 321 321 321 321 321 321 321 319 318 319 319 320 320 319 319 319 320 320 320 320 320 320 321 320 321 321
305 306 309 311 316 321 323 322 322 322 323 323 323 322 321 321 321 321 319 317 316 316 314 315 316 317 317 317 317 317 317 317 318 319 319 319 317 316 317 317 315 315
304 305 306 309 314 319 322 323 322 322 322 323 323 322 322 321 320 318 317 315 312 311 310 311 312 310 311 309 311 316 315 316 316 317 318 317 316 315 314 314 314 315
303 304 305 307 310 315 321 322 322 322 322 322 322 321 320 319 318 314 314 313 312 310 308 308 307 306 300 299 302 306 314 315 315 314 315 316 316 316 313 311 310 310
302 303 304 305 307 309 316 321 321 321 321 321 320 318 317 317 316 314 312 311 310 309 308 306 304 300 295 296 298 300 307 314 314 314 314 315 316 314 311 310 308 307
302 302 303 304 305 308 311 318 320 320 320 319 318 316 314 314 314 312 309 308 308 306 305 303 302 295 294 296 297 299 301 308 314 315 315 314 314 312 309 307 306 306
301 302 302 303 304 305 307 310 316 319 318 317 314 311 311 310 309 308 306 306 306 305 303 302 301 297 294 296 297 297 299 305 313 313 312 311 310 308 307 306 306 307
300 301 301 302 303 303 303 304 303 304 307 307 307 307 306 305 305 304 303 303 303 303 302 300 298 295 295 295 296 298 300 303 310 307 305 302 301 301 301 301 302 303
299 300 301 301 301 301 301 300 300 300 300 301 301 300 300 300 300 301 301 300 300 300 301 300 299 294 294 295 297 298 300 306 304 302 301 299 299 298 298 299 299 301
299 299 300 300 300 300 299 299 298 298 298 299 298 298 297 297 297 297 298 298 299 299 300 299 298 295 294 295 296 297 300 303 301 300 299 298 298 299 299 298 298 297
298 299 299 299 299 299 298 298 299 298 298 298 297 297 296 297 297 297 298 297 297 297 299 298 297 295 293 295 296 297 300 301 300 298 297 296 296 296 297 298 300 301
297 298 298 299 298 298 299 298 298 298 298 299 298 298 297 297 298 297 297 297 297 297 299 297 297 296 293 293 294 296 300 300 299 297 295 295 295 295 296 296 296 296
297 297 298 298 299 299 299 299 299 299 298 298 298 298 297 297 297 296 295 295 296 296 296 296 295 295 294 293 294 295 296 300 299 297 295 294 295 295 295 296 296 296

ECMWFNIL_sfc_thetae_069.txt.gz
Theta_e
330 330 330 330 330 331 331 331 332 331 329 329 327 328 330 332 331 331 330 331 332 333 334 333 333 333 333 332 332 332 332 332 333 335 333 331 333 335 334 333 332 331
330 330 330 331 331 331 331 332 331 331 331 329 329 329 332 332 331 330 330 330 331 331 331 333 333 332 333 332 332 331 332 332 331 333 334 333 334 335 334 335 334 333
329 329 329 329 330 331 331 332 331 331 332 330 330 330 330 330 330 329 329 329 330 331 330 331 331 332 332 331 332 331 331 331 331 332 334 334 335 331 333 333 333 332
326 327 327 329 330 330 331 330 331 331 332 331 330 331 330 330 330 329 328 330 329 330 331 330 331 332 332 332 332 331 332 332 333 334 334 334 334 333 332 332 331 331
326 327 328 329 329 330 330 329 329 331 330 330 330 331 330 330 330 329 328 329 330 329 330 330 331 331 331 331 330 331 331 331 333 333 333 333 333 331 331 330 330 332
326 327 328 328 328 328 328 328 329 330 330 331 331 331 331 331 330 330 329 329 330 330 329 330 330 330 330 329 329 330 331 332 333 332 332 332 331 331 330 331 331 332
322 325 326 327 327 328 327 328 329 330 330 332 331 330 331 332 331 330 330 330 330 330 328 328 329 329 330 330 329 329 330 333 333 332 331 332 331 329 331 332 331 332
319 322 323 325 327 328 328 328 328 330 330 330 330 331 331 331 331 332 331 331 330 330 329 329 329 330 330 329 328 329 330 333 332 330 331 333 333 331 331 332 335 334
316 318 320 322 323 327 327 328 329 330 330 329 330 331 332 331 331 331 331 331 330 329 330 329 329 329 330 330 328 327 329 331 333 332 332 333 333 333 333 334 334 334
312 314 315 317 318 322 325 327 329 329 330 330 330 331 331 331 330 330 330 330 330 328 328 328 328 328 329 329 329 329 329 330 333 333 334 335 334 334 333 333 332 333
310 311 311 312 313 316 319 323 327 329 330 329 330 330 331 331 329 330 330 330 329 328 328 328 328 328 328 329 330 331 332 332 333 333 334 334 334 334 333 334 334 334
308 309 310 310 311 313 315 319 324 326 328 329 329 329 331 330 330 330 330 330 330 329 329 329 329 330 329 329 330 331 332 333 333 333 334 334 335 335 334 335 335 334
307 308 309 310 311 311 313 317 321 325 326 327 328 328 329 329 329 330 330 330 331 331 330 329 329 329 329 329 330 330 331 331 333 334 334 335 332 328 328 333 335 335
307 308 308 309 310 312 313 316 320 324 325 327 327 327 327 327 328 329 330 330 330 330 331 330 330 329 329 329 329 329 330 330 332 333 333 332 331 329 330 331 334 335
306 307 308 309 310 311 312 314 317 321 325 326 326 326 327 327 327 328 329 329 330 330 329 329 329 329 328 329 328 329 330 331 331 332 332 332 332 331 329 331 331 332
306 306 307 308 308 309 311 312 315 319 322 324 325 326 327 327 326 327 327 328 328 328 328 327 327 328 322 315 317 328 329 330 331 332 332 332 331 330 329 329 328 330
305 305 306 306 307 308 310 310 312 317 321 323 324 325 325 326 326 325 326 327 327 327 327 326 326 323 308 304 306 311 325 329 331 332 332 331 330 330 329 329 329 330
303 304 305 305 306 306 308 309 310 310 312 316 321 324 324 325 324 324 325 326 326 327 326 325 324 311 301 302 303 305 313 328 331 331 331 330 329 328 328 327 326 326
303 303 303 304 304 305 307 307 307 307 307 307 309 317 323 321 321 322 323 324 323 324 324 324 320 301 298 300 301 301 305 317 329 330 329 329 329 328 326 325 324 323
302 302 302 303 303 304 305 305 305 305 305 305 306 308 311 317 320 320 318 317 319 320 322 319 314 297 295 297 298 298 300 311 327 328 328 328 327 326 325 324 323 322
302 302 302 302 303 303 303 303 303 303 303 303 303 302 302 304 306 310 311 311 312 313 313 311 306 294 294 295 296 297 300 310 324 324 324 323 323 323 323 323 323 322
301 301 301 302 302 302 302 302 302 302 301 302 302 300 300 301 301 303 304 305 307 308 307 305 302 292 293 294 296 298 302 315 317 317 316 315 315 316 317 319 320 321
301 301 301 301 301 301 301 301 301 301 301 301 300 300 299 299 299 300 301 302 303 304 303 300 300 295 293 295 296 298 305 311 309 308 309 309 309 309 310 313 316 318
302 301 301 301 301 300 300 301 301 301 300 301 299 298 298 298 298 299 299 300 300 300 300 299 298 295 293 294 296 299 304 308 306 305 304 304 304 305 307 309 307 302
302 301 301 301 301 301 301 300 300 300 300 300 299 299 298 298 298 297 297 297 298 298 299 297 297 295 292 292 293 296 304 306 304 302 301 301 301 301 302 303 303 300
302 301 301 301 302 301 301 301 301 301 300 299 299 299 298 298 298 297 296 296 296 297 296 296 295 295 294 292 293 293 295 305 304 301 300 300 300 300 299 300 301 300

ECMWFNIL_sfc_thetae_072.txt.gz
Theta_e
332 333 333 334 334 334 334 334 335 335 336 337 337 336 336 337 337 337 337 336 336 336 335 335 336 334 334 335 336 336 337 338 335 334 332 332 337 337 336 335 334 334
331 333 333 334 334 334 335 337 336 335 336 337 337 337 338 338 337 337 337 336 336 336 336 336 335 336 336 335 334 335 337 333 332 335 333 331 336 336 337 336 334 336
328 330 332 332 333 335 337 337 337 335 335 336 337 338 337 337 336 337 337 336 334 335 336 336 336 337 336 336 336 334 334 334 334 334 334 334 336 335 337 336 332 335
327 329 331 332 332 333 334 333 333 336 336 334 335 337 336 337 336 336 337 336 334 334 336 336 336 336 336 336 336 335 333 332 336 336 334 333 333 337 334 336 333 333
324 325 327 330 332 332 332 332 333 333 334 334 335 336 336 337 337 336 335 335 335 334 335 334 335 336 336 336 335 333 334 333 333 335 332 333 337 335 336 336 336 335
322 323 326 327 329 332 331 331 331 332 333 334 335 335 336 337 337 337 335 335 335 334 333 333 333 334 334 335 334 334 334 333 335 334 334 330 333 335 335 336 336 336
319 321 322 324 326 328 331 333 332 332 332 333 334 334 334 335 335 335 335 334 335 334 334 333 332 332 333 334 333 333 333 334 335 336 334 334 330 330 335 335 336 335
318 320 320 321 322 324 326 329 331 332 333 332 333 333 335 334 334 335 335 335 334 334 334 334 332 332 334 334 332 332 332 333 333 334 332 333 328 329 328 332 336 335
317 318 319 320 320 321 321 322 325 329 332 333 332 333 334 335 335 335 335 335 335 335 334 334 334 333 334 334 332 332 331 332 334 336 334 330 330 333 330 331 334 333
316 317 318 318 318 318 319 320 322 324 328 331 332 333 332 335 336 335 335 335 335 334 334 333 333 334 334 334 333 332 331 333 334 334 334 334 331 331 332 332 333 334
316 316 316 316 316 317 317 319 320 322 325 327 330 331 333 334 335 335 335 334 334 333 333 331 333 333 333 333 333 334 334 334 335 334 335 332 330 331 332 328 331 330
315 315 314 315 315 316 317 318 320 321 323 326 328 330 331 333 334 334 334 333 333 332 333 331 332 332 333 333 332 332 333 334 335 333 334 332 332 332 332 333 333 331
313 313 313 314 315 316 316 317 319 320 321 323 326 328 329 330 331 331 333 333 334 333 334 333 334 335 334 333 332 332 333 333 333 335 334 332 331 330 332 332 333 333
312 313 313 313 314 315 314 316 317 318 320 323 324 326 328 329 329 329 331 333 333 332 332 333 335 335 334 332 331 332 332 333 332 330 332 332 332 331 332 334 335 333
311 312 313 313 313 313 313 313 315 316 317 317 320 324 327 329 329 329 330 331 331 332 331 330 330 333 334 333 332 332 332 331 331 335 334 332 330 332 337 337 337 338
310 311 311 312 311 311 312 312 312 313 314 314 315 317 321 325 327 327 328 329 329 329 331 329 330 330 328 316 319 331 332 333 335 334 332 331 331 333 335 336 336 336
309 310 310 310 310 310 311 310 310 311 311 312 313 315 316 319 323 325 326 327 328 327 329 330 330 329 315 307 308 312 329 334 334 332 331 332 333 333 334 335 336 336
308 309 309 309 309 309 309 309 309 309 309 309 310 311 313 315 316 319 324 327 328 328 329 328 328 318 307 304 305 305 313 335 333 330 332 333 333 333 333 335 335 334
308 308 307 307 308 308 308 308 308 307 306 307 307 309 310 310 310 311 313 320 327 326 327 328 329 307 301 302 302 303 304 316 331 332 333 332 332 329 330 333 333 333
307 307 306 307 307 307 307 306 306 305 306 306 307 307 307 307 307 307 308 311 316 322 326 328 327 298 297 298 299 299 301 306 329 332 333 329 330 330 332 332 333 333
307 306 306 306 306 306 306 305 305 305 305 305 305 305 304 304 304 304 305 306 308 311 316 320 312 292 294 295 296 296 297 300 328 328 331 330 330 330 331 332 333 334
306 306 306 306 305 305 305 305 304 304 303 303 304 304 304 303 304 303 302 302 304 306 308 310 311 292 292 294 294 295 295 313 327 328 328 328 328 329 329 328 329 330
306 305 305 305 305 304 304 304 303 303 302 303 302 302 301 301 301 301 301 300 300 301 302 304 307 297 291 294 293 294 298 318 325 323 323 321 321 324 325 326 327 328
305 305 305 305 305 304 303 303 303 303 302 302 301 300 299 299 300 300 300 300 299 299 299 301 301 298 292 292 296 295 302 318 320 320 318 315 314 317 319 316 310 303
306 306 305 305 304 305 305 304 303 302 302 302 301 300 299 300 300 299 298 299 299 299 299 299 299 299 294 292 292 294 306 315 315 314 313 312 310 309 311 310 308 304
305 305 305 305 304 305 305 304 304 303 302 301 301 300 299 299 299 299 298 297 298 298 298 298 297 297 296 292 293 294 298 310 312 312 306 306 307 307 306 304 303 303

ECMWFNIL_sfc_thetae_075.txt.gz
Theta_e
332 333 333 333 334 335 334 335 335 337 337 335 334 335 336 339 339 339 340 340 339 338 337 337 338 338 337 336 336 335 337 335 338 335 334 336 336 335 334 335 337 337
327 328 329 331 332 334 335 337 337 335 338 338 336 336 335 334 337 338 338 338 339 338 337 337 338 336 334 333 336 338 338 337 333 333 332 334 336 335 335 335 334 334
324 325 326 327 329 333 335 336 336 338 338 339 338 334 334 333 337 335 336 338 338 338 337 337 338 338 338 338 337 337 337 336 333 334 337 336 335 335 335 333 332 332
323 324 324 326 328 330 332 334 335 336 336 337 338 337 333 333 333 333 335 338 337 337 338 337 337 337 338 337 338 337 337 336 335 338 335 335 335 334 333 333 330 331
323 323 323 324 325 326 327 329 332 333 333 332 335 333 333 334 334 333 336 338 338 338 337 337 337 336 337 335 334 332 333 333 335 336 334 334 335 334 333 330 329 333
322 322 323 323 324 324 324 325 328 330 331 333 332 334 333 333 331 335 336 334 337 337 336 336 335 336 336 333 333 332 331 331 336 333 332 333 333 334 334 333 332 332
321 321 321 322 322 323 323 324 324 325 327 328 332 333 333 335 333 334 335 335 335 335 336 335 336 335 336 336 332 332 333 331 334 335 334 333 335 334 333 333 332 330
320 321 320 320 320 321 321 321 322 323 325 327 329 331 334 334 335 334 335 335 334 333 333 335 334 335 335 334 334 333 331 333 333 335 331 332 334 334 332 333 333 330
319 320 319 319 319 319 320 320 321 322 324 325 326 328 331 334 333 334 335 333 331 333 331 331 334 334 335 335 332 332 333 332 334 332 333 330 331 331 331 332 332 332
318 318 319 318 318 318 319 319 320 321 323 323 324 326 327 331 334 332 332 332 330 330 332 332 329 334 336 336 334 331 330 331 332 332 330 329 332 331 331 331 332 332
317 317 317 318 317 317 318 319 319 320 321 320 322 323 325 328 330 332 332 330 333 332 332 334 332 331 331 332 335 334 332 334 331 331 330 330 333 332 332 331 331 332
315 315 316 317 316 316 317 318 318 318 318 319 320 320 322 325 327 330 331 331 331 330 332 332 332 331 331 330 330 331 330 331 334 334 332 332 329 330 330 333 334 332
314 314 315 316 316 316 316 316 316 317 317 316 317 318 319 320 322 325 328 331 331 330 328 329 331 331 331 332 331 330 330 334 334 335 332 329 331 329 332 332 335 334
313 314 314 315 315 315 315 315 315 315 315 316 315 315 316 317 317 319 321 326 330 331 331 329 329 330 331 331 332 331 330 332 332 334 333 333 333 333 333 333 334 334
313 313 314 314 313 313 313 313 313 314 314 314 313 313 314 314 315 316 316 317 320 329 329 328 327 328 330 330 331 331 331 329 330 329 330 330 328 330 329 332 333 332
311 312 312 312 312 312 312 312 312 312 312 312 311 312 312 313 313 313 312 313 314 317 324 329 328 330 326 315 314 326 329 330 332 331 331 333 334 333 333 333 332 332
310 310 310 310 311 311 311 311 311 311 310 310 310 310 310 310 311 310 310 310 311 312 314 319 327 328 314 307 305 305 321 329 328 329 329 329 329 326 332 330 331 331
309 309 309 309 309 309 309 310 310 309 309 308 308 308 308 309 308 308 308 308 308 308 311 314 319 311 300 300 302 303 305 322 329 329 326 329 330 328 329 332 332 331
308 308 307 308 308 308 308 309 308 308 307 307 307 308 307 306 306 306 305 305 305 304 306 308 314 299 295 294 294 295 298 307 327 330 328 330 328 327 329 329 329 329
307 307 307 307 308 308 308 307 307 306 307 307 307 307 305 305 305 304 304 304 303 303 302 304 308 300 294 294 293 293 294 298 319 326 329 328 329 328 328 328 328 328
306 306 306 306 307 307 307 306 306 306 306 306 305 305 304 303 303 302 302 302 302 302 301 301 303 297 294 292 292 292 293 295 315 323 328 326 327 328 327 329 327 328
305 305 305 305 306 306 305 305 305 305 305 305 305 305 305 304 303 302 301 301 301 301 300 299 301 296 294 292 291 292 292 304 313 322 325 327 326 328 328 327 327 327
306 305 305 305 305 305 304 304 304 304 304 305 304 304 303 303 302 302 301 300 299 299 299 298 299 297 293 292 291 291 295 307 313 320 325 327 328 328 329 327 320 325
306 305 304 304 304 304 304 304 304 304 304 304 303 303 302 303 303 302 302 301 299 299 298 297 297 297 293 291 291 291 293 303 312 318 323 324 323 323 320 312 308 303
305 305 304 304 304 304 305 304 304 303 304 304 303 303 303 303 302 302 302 301 300 299 299 297 296 296 294 291 291 292 295 306 312 319 321 320 318 317 316 313 309 303
305 304 304 304 304 304 305 304 305 304 303 303 303 302 302 302 302 302 301 301 300 299 298 297 296 295 295 291 291 292 292 302 314 314 312 311 311 312 310 306 304 303

ECMWFNIL_sfc_thetae_078.txt.gz
Theta_e
324 324 324 325 326 328 329 329 331 333 333 332 332 334 334 336 336 334 333 332 332 333 334 335 335 336 336 336 335 334 334 333 332 333 332 332 332 333 331 331 331 331
324 324 323 324 324 325 326 327 327 329 332 333 332 334 335 334 336 336 334 331 331 331 333 334 335 335 334 334 334 333 332 331 331 333 331 332 332 332 331 332 332 333
322 323 322 322 323 323 324 325 326 327 329 330 332 333 334 335 335 335 334 334 332 332 332 332 332 333 331 331 335 333 331 330 329 331 332 330 330 331 332 333 333 332
322 321 322 322 322 321 322 322 324 324 325 325 326 329 331 333 333 333 334 333 331 332 332 332 332 332 330 329 331 332 330 331 331 331 331 330 331 331 332 332 332 332
320 320 321 320 321 321 321 321 321 321 322 323 325 327 328 330 331 331 332 333 333 331 331 331 331 330 331 332 330 329 329 329 329 330 329 328 330 330 331 332 332 331
319 320 319 319 320 320 319 319 320 320 321 322 323 325 326 328 329 330 330 330 331 330 330 330 329 330 332 331 330 330 328 329 331 331 330 329 328 330 330 331 331 330
318 318 318 318 320 319 319 319 319 320 320 321 323 323 324 324 326 328 330 330 330 329 329 329 330 329 331 330 329 328 330 331 331 330 329 330 330 329 331 330 330 330
317 317 318 317 318 318 317 317 318 319 319 319 319 320 321 322 323 325 327 330 330 328 328 329 328 329 329 329 329 328 328 331 331 330 328 329 328 328 330 329 329 329
316 316 316 316 316 316 316 316 316 317 318 317 317 318 319 320 321 322 323 324 326 329 328 328 328 327 329 330 328 327 327 328 330 329 327 327 327 327 328 330 329 328
314 314 315 315 314 315 314 315 315 315 316 315 315 316 315 317 319 320 320 321 321 324 327 328 329 327 327 330 330 328 327 328 329 329 327 327 327 327 327 329 328 328
313 313 313 313 313 313 313 313 314 314 314 313 313 313 313 314 315 316 317 317 318 319 319 323 327 328 327 328 329 328 327 328 329 328 328 329 329 328 328 329 329 328
312 312 311 312 312 312 312 312 312 312 311 312 312 311 311 312 312 312 313 314 314 315 317 319 321 325 327 328 327 327 329 328 328 328 328 328 328 328 328 328 328 328
311 311 311 311 311 311 311 311 311 311 310 310 311 310 309 309 309 310 310 311 311 311 313 314 317 320 323 312 312 317 325 328 327 327 326 327 328 328 328 329 328 328
310 310 310 310 310 310 310 310 310 310 309 309 309 308 308 308 307 307 308 308 308 308 308 310 313 318 305 304 303 304 306 314 326 326 327 327 328 329 329 328 328 328
309 310 310 309 309 309 309 308 308 309 309 308 308 308 308 307 307 306 306 306 306 306 306 307 309 311 304 301 299 300 302 306 313 323 326 326 326 327 327 327 328 328
308 308 308 308 308 307 308 308 307 307 307 307 307 307 307 306 305 305 305 304 304 304 304 305 305 307 303 298 297 298 299 302 306 314 324 326 324 323 325 326 327 328
306 307 307 306 307 307 307 307 306 307 306 306 306 306 306 305 305 304 304 303 303 302 302 303 303 304 297 294 294 294 296 298 302 308 317 324 325 325 325 325 326 326
306 306 306 306 306 306 306 306 306 305 305 305 305 305 305 305 304 303 303 302 302 301 301 301 302 300 294 294 293 292 294 296 299 306 312 320 325 326 325 323 324 327
305 305 305 305 305 306 306 305 305 304 304 303 304 304 304 303 303 303 302 302 301 300 300 300 300 297 293 293 292 292 292 293 297 304 311 315 321 324 324 324 323 323
305 304 304 304 305 305 305 305 304 303 303 304 304 304 303 303 302 302 302 301 300 299 299 299 299 296 293 292 292 291 291 292 297 303 310 315 318 322 325 324 323 323
304 304 304 304 304 304 304 304 304 303 303 303 303 303 302 302 302 302 302 301 300 299 298 298 298 294 293 292 291 291 291 292 300 307 311 314 318 322 325 325 324 324
303 303 303 303 303 303 303 303 303 303 303 303 303 302 303 302 302 302 301 301 300 299 298 297 297 294 293 292 292 291 291 297 301 306 309 312 316 320 324 324 324 324
303 303 303 302 302 302 302 302 302 302 303 303 302 302 301 301 300 301 301 301 300 299 298 297 297 295 293 292 292 291 293 297 302 306 309 311 314 318 321 323 323 325
303 302 302 302 302 302 302 302 302 302 302 303 302 301 300 300 300 300 300 300 300 299 299 297 297 296 294 293 292 292 293 298 302 306 310 312 316 313 309 308 307 304
303 303 302 302 301 302 302 302 302 301 302 302 302 301 301 301 300 300 299 299 299 298 300 298 297 297 294 292 292 292 293 296 298 299 302 303 304 306 306 304 304 302
303 303 303 302 301 301 302 302 302 301 301 301 301 301 300 300 300 300 299 298 298 298 297 297 297 296 295 292 292 292 292 295 296 295 296 298 298 298 299 299 299 300

ECMWFNIL_sfc_thetae_081.txt.gz
Theta_e
317 318 318 319 319 321 319 320 321 321 322 322 322 324 326 328 331 331 331 330 328 327 327 328 329 329 331 330 329 330 330 329 330 330 330 328 328 328 327 327 326 327
317 318 319 317 317 318 318 319 320 319 319 319 320 322 324 326 329 330 330 330 329 328 327 328 328 328 329 329 327 326 326 328 328 331 328 327 327 328 327 327 327 328
315 315 315 315 315 315 316 318 318 318 317 318 319 320 323 325 326 328 329 330 330 329 328 327 327 327 328 328 328 327 327 329 329 328 328 327 328 328 328 328 328 329
314 314 313 314 315 315 315 315 316 316 316 316 317 319 321 321 322 323 325 328 329 329 328 327 327 327 327 327 326 326 326 327 328 327 327 327 328 329 329 329 328 329
312 313 313 314 314 314 313 313 313 315 315 315 315 317 317 317 318 319 321 323 325 326 326 327 327 326 326 326 327 326 325 325 326 328 327 326 327 327 328 328 328 328
312 313 313 313 313 312 312 311 312 313 313 313 313 315 315 315 316 317 318 318 320 322 322 324 326 326 326 326 326 326 325 325 326 327 326 325 326 327 328 328 328 327
310 311 311 311 311 311 311 310 311 311 311 312 312 311 312 313 314 314 315 315 316 317 318 319 321 323 326 326 325 325 326 326 325 325 326 325 325 326 327 328 328 327
309 310 310 310 309 309 309 309 309 309 310 310 309 309 310 310 310 311 312 312 312 312 313 316 318 319 317 314 313 315 322 327 326 325 326 327 327 325 327 327 328 327
309 308 308 308 308 308 308 308 308 308 309 308 308 308 309 309 308 309 309 308 308 308 309 309 312 311 306 307 306 306 306 309 318 325 325 325 326 324 325 327 327 327
307 307 307 307 306 307 306 307 308 308 309 308 308 308 307 307 307 306 307 306 306 306 305 306 308 306 304 301 302 303 303 305 308 314 322 325 324 324 325 325 325 325
306 306 306 306 306 306 305 306 306 307 308 307 307 307 306 306 306 306 305 304 304 304 303 304 306 304 301 299 299 300 300 301 303 307 313 320 325 325 326 325 325 325
305 305 305 305 306 305 305 305 306 306 306 307 307 306 305 305 304 304 304 303 303 302 302 303 304 302 298 298 297 297 298 298 300 302 307 313 322 326 326 326 326 325
304 304 304 304 305 305 305 305 305 305 305 305 306 305 304 304 304 303 303 302 302 302 301 302 303 301 298 297 296 296 296 297 297 299 303 308 314 322 326 326 326 326
304 304 304 304 305 305 305 305 304 304 304 305 306 304 304 303 303 303 302 302 301 301 301 301 302 299 297 296 296 295 295 295 296 298 300 304 309 316 324 327 326 326
303 304 304 304 304 304 304 303 303 303 304 304 304 304 304 303 304 303 302 301 300 300 300 300 300 298 297 296 295 294 294 294 295 296 298 301 306 312 319 326 327 326
303 303 303 303 303 303 303 303 303 303 302 303 303 303 303 303 303 303 302 301 299 299 299 299 299 298 299 296 296 295 294 294 294 295 297 299 303 309 316 322 325 325
302 302 302 302 302 302 302 303 303 302 302 302 302 302 301 302 302 302 301 300 300 299 298 298 298 298 295 293 293 294 295 294 294 294 296 298 302 307 313 318 323 324
301 301 300 301 301 301 301 302 302 302 301 301 301 300 300 301 301 301 301 300 299 299 298 298 298 297 293 293 293 293 294 295 295 295 296 298 302 306 311 317 321 323
300 300 299 300 300 300 300 300 300 300 300 300 300 301 299 299 299 300 300 299 299 298 298 298 297 295 293 293 293 292 293 295 297 298 298 300 304 307 311 315 319 321
299 299 299 299 299 299 299 299 299 298 299 300 300 299 298 298 298 298 299 298 298 298 297 298 297 295 292 292 292 292 292 294 298 299 302 304 307 309 311 314 316 320
299 298 298 298 298 298 298 298 298 298 298 299 298 298 297 297 297 297 298 298 297 297 297 297 297 294 292 292 292 292 293 295 297 298 301 302 303 305 306 309 312 317
298 297 297 297 297 297 297 297 296 297 297 298 298 297 297 297 297 297 297 297 297 297 296 295 296 294 292 292 292 291 293 296 296 296 297 298 300 301 302 302 303 303
298 297 296 296 296 296 296 296 295 295 296 297 296 296 296 296 295 296 296 295 295 295 295 294 294 294 292 292 292 291 293 295 295 295 296 296 297 298 299 299 300 300
297 297 296 295 295 295 295 295 295 294 295 296 295 294 295 295 295 295 295 295 295 294 295 294 294 295 293 292 292 292 293 293 294 294 294 295 296 296 297 297 298 300
297 296 296 295 295 295 295 294 294 295 294 294 294 294 295 294 296 294 294 294 294 295 298 295 294 295 294 292 292 292 293 293 293 293 293 294 294 295 296 296 296 298
296 297 296 295 294 294 295 295 295 294 294 294 293 294 294 293 294 294 293 293 293 294 294 294 294 294 294 292 292 292 292 293 293 292 291 293 294 294 293 294 295 295

ECMWFNIL_sfc_thetae_084.txt.gz
Theta_e
314 315 315 314 314 316 315 316 316 315 315 316 316 317 318 319 321 322 323 325 327 327 326 327 328 328 328 327 327 327 327 327 327 327 327 328 328 328 327 327 326 327
312 313 315 314 312 313 312 314 315 314 313 313 314 314 315 316 316 318 319 320 321 322 323 323 324 326 327 327 327 326 326 325 324 328 327 328 327 327 327 327 326 326
310 310 311 310 310 310 310 311 312 312 311 311 311 311 313 314 314 315 315 315 315 317 317 320 320 322 319 319 321 325 325 325 325 327 328 327 325 325 326 327 326 326
309 309 309 309 309 309 309 309 309 309 310 309 308 309 310 311 311 311 311 312 310 310 312 315 318 312 310 310 310 312 313 318 323 326 326 326 326 326 326 327 327 327
308 308 309 308 308 308 308 307 307 307 307 307 307 308 308 307 307 308 307 308 307 307 308 309 312 307 306 305 307 307 309 310 312 315 321 325 326 327 327 327 327 326
307 308 308 307 307 307 306 306 306 306 306 306 306 307 306 306 305 306 305 305 305 305 305 307 307 305 304 303 303 304 304 305 307 309 310 315 323 326 326 327 326 326
306 306 306 306 306 306 305 305 306 307 306 306 306 305 305 304 304 304 304 304 304 304 304 305 302 301 302 301 301 300 300 302 304 304 306 309 313 320 326 326 326 325
305 305 305 305 304 304 305 305 306 306 306 305 304 304 304 304 304 304 303 303 302 302 303 304 301 299 299 299 298 298 297 299 300 300 301 304 308 311 317 325 326 325
304 304 304 304 303 303 303 303 304 305 305 303 303 303 304 304 303 303 302 302 301 301 302 303 300 298 298 298 297 297 296 297 298 298 299 300 303 307 310 317 323 325
303 304 303 303 302 303 302 303 303 304 305 303 302 303 303 303 303 301 301 301 300 300 300 301 300 298 298 298 297 297 296 296 296 297 298 299 300 303 307 311 317 323
302 303 302 302 301 301 301 302 303 303 304 303 302 302 303 302 302 301 300 300 300 299 299 299 299 298 297 297 297 297 296 296 296 296 297 298 299 301 306 309 312 318
301 301 301 301 301 301 301 301 302 302 302 303 302 301 302 302 301 300 300 299 299 299 299 299 298 298 297 296 296 296 296 296 296 296 296 297 298 300 302 305 308 313
301 301 301 301 301 300 301 301 301 301 301 301 302 301 302 301 300 300 300 300 299 299 299 299 297 297 296 295 295 295 295 296 296 296 296 297 298 299 300 302 307 311
300 300 301 301 301 300 300 300 301 300 300 300 301 300 301 300 299 299 299 299 299 298 298 299 297 296 295 295 294 294 295 295 296 296 297 297 298 299 300 301 304 308
300 301 300 300 301 300 300 300 300 300 300 299 299 300 301 300 300 299 298 298 298 298 298 298 297 296 296 295 293 293 294 295 296 297 297 297 298 299 301 302 305 308
300 300 299 299 299 299 299 299 299 300 299 298 298 299 299 300 299 298 298 297 297 297 297 297 296 296 297 295 295 294 294 295 296 297 298 299 299 300 302 304 306 308
298 298 298 298 298 298 298 298 299 299 298 298 298 298 298 298 297 296 296 296 296 296 295 296 296 296 294 292 292 293 294 294 295 296 298 299 300 301 302 304 305 307
297 297 297 297 297 297 297 297 297 298 297 297 297 297 297 297 296 296 295 295 295 295 294 295 295 296 292 293 292 292 294 295 295 295 297 298 298 299 300 301 301 302
296 296 296 296 296 296 296 296 296 296 296 296 296 297 296 295 295 295 294 295 294 294 294 294 294 295 292 293 292 292 292 294 294 295 296 297 297 298 298 299 299 300
296 295 295 294 295 295 295 295 295 295 295 295 295 295 294 294 294 294 294 294 294 294 293 293 293 295 292 292 292 291 291 293 294 294 295 296 297 297 298 298 298 298
295 294 294 294 294 294 293 293 293 293 294 295 294 293 293 293 293 293 294 294 293 293 293 293 294 294 292 292 291 291 292 293 293 294 294 295 296 297 297 297 297 298
294 293 293 293 293 292 292 292 292 292 292 293 294 292 292 292 293 293 293 292 293 293 293 292 293 293 292 292 291 291 292 294 293 293 293 293 295 296 296 297 297 297
293 293 293 292 292 292 292 291 291 292 292 293 292 292 291 292 292 292 292 292 293 293 292 292 292 293 292 292 291 291 292 293 293 292 292 292 293 295 296 296 296 297
293 292 292 292 291 292 292 291 291 291 292 292 291 291 291 292 293 292 292 292 292 292 294 292 291 293 293 292 291 291 292 292 292 292 291 291 292 294 295 295 295 298
293 293 292 292 292 292 292 292 292 292 291 291 291 291 292 291 294 292 292 292 292 292 296 292 291 293 293 291 291 291 292 292 292 292 291 290 291 292 294 294 293 295
293 295 293 293 292 292 293 292 292 292 291 292 291 291 290 290 290 292 291 291 291 291 291 291 291 292 293 291 291 291 291 292 292 291 290 290 291 292 292 292 293 292

ECMWFNIL_sfc_thetae_087.txt.gz
Theta_e
310 311 310 308 308 309 308 308 308 307 307 307 307 307 308 309 310 309 310 309 309 310 311 312 309 308 307 309 310 312 314 314 317 318 318 322 325 326 326 327 327 327
308 309 310 308 307 307 307 307 306 306 305 305 306 305 306 307 306 306 306 306 306 306 308 308 307 307 305 306 307 309 309 310 310 312 311 314 319 324 326 326 326 327
306 306 306 305 305 305 305 306 306 305 305 305 305 305 305 306 305 305 305 305 304 304 306 304 303 304 304 303 304 305 304 305 306 308 309 310 314 318 322 325 326 326
306 306 306 305 305 304 305 305 304 304 304 303 303 304 305 305 304 303 303 305 303 303 305 302 301 301 300 300 301 301 302 302 303 305 305 307 310 312 314 319 323 325
305 305 305 305 305 305 304 304 303 303 302 302 302 303 303 302 302 302 302 302 302 303 303 300 300 299 299 299 299 299 299 300 301 301 302 303 305 307 310 313 316 320
304 305 305 304 304 303 303 303 303 302 302 302 302 303 301 301 301 301 302 301 302 303 302 300 298 298 298 297 297 297 298 298 298 299 299 299 301 303 306 309 311 314
303 303 303 303 302 303 303 302 302 303 302 302 302 301 300 300 300 301 301 301 301 301 300 299 298 297 297 297 297 296 297 298 298 298 297 297 299 299 302 304 306 309
302 302 302 302 302 301 302 302 302 301 302 301 300 301 301 299 299 300 300 300 300 299 298 298 297 297 296 296 295 295 295 297 297 297 297 298 298 298 299 300 303 305
301 301 301 300 300 300 300 301 301 301 302 300 300 300 301 300 299 299 299 299 298 298 298 297 296 296 296 295 295 294 294 295 296 297 297 297 297 297 298 299 300 302
301 301 300 300 299 299 299 300 300 301 303 300 300 300 299 299 300 299 298 298 298 297 297 296 296 296 295 295 294 294 294 294 295 296 297 297 297 297 298 299 300 300
300 300 299 299 299 299 299 299 299 299 301 301 300 300 299 299 299 299 298 298 297 297 297 296 295 295 295 294 294 294 294 294 295 296 297 298 298 298 301 300 300 300
299 299 299 299 299 298 298 298 299 299 299 300 300 299 299 298 298 298 299 297 297 297 297 296 295 295 295 294 294 294 294 294 294 295 297 298 299 299 300 300 300 301
298 298 298 298 298 298 299 298 298 298 298 298 299 298 297 297 297 297 297 297 296 296 296 296 295 295 295 294 293 294 294 294 294 294 296 297 299 300 301 301 302 303
297 297 298 299 299 298 298 298 298 297 297 298 299 297 296 296 296 296 296 296 296 295 296 296 295 294 294 294 293 293 293 293 293 294 295 296 298 299 300 301 301 302
297 297 297 297 298 298 298 297 297 296 297 297 297 297 298 296 295 295 295 294 294 294 294 295 294 294 295 294 293 293 293 293 293 293 294 295 296 297 298 299 300 300
296 296 296 296 296 296 296 297 296 296 296 296 296 296 295 297 295 295 294 294 293 293 293 294 294 294 296 295 294 293 293 293 293 293 294 294 295 296 297 298 298 299
296 295 295 295 295 295 295 296 296 295 295 295 295 295 295 295 294 294 293 294 293 293 292 293 293 295 294 292 292 293 294 293 293 292 293 294 294 295 295 296 297 298
295 294 294 294 294 294 294 294 295 294 294 294 294 294 294 294 293 293 293 293 293 292 292 293 293 296 292 292 292 292 293 293 292 292 293 293 293 294 295 296 296 296
293 293 293 293 293 293 293 293 293 293 293 293 293 294 293 292 292 292 292 293 293 292 292 292 292 294 292 292 292 291 292 293 292 292 292 292 293 293 294 295 295 295
292 292 292 291 292 292 292 292 292 291 291 291 293 292 292 292 292 291 292 292 292 292 291 291 291 294 292 292 292 291 291 292 292 292 292 292 292 293 293 294 295 294
292 292 291 290 290 290 290 290 290 289 291 291 291 291 291 290 290 290 291 292 291 291 291 291 292 293 292 291 291 291 291 292 292 292 292 292 292 292 293 294 294 294
292 290 290 289 290 290 289 289 288 288 288 290 291 289 290 290 290 290 290 289 290 290 290 290 291 292 292 291 291 290 291 292 291 291 291 291 291 292 292 294 294 294
291 290 290 289 289 289 288 288 289 289 289 291 289 288 288 289 289 289 290 289 290 290 289 290 290 291 291 291 291 291 291 291 291 291 291 291 291 292 292 293 293 294
290 290 289 289 288 288 288 288 288 288 289 289 287 287 288 288 290 289 290 289 289 289 290 290 289 291 292 291 291 291 292 290 290 290 290 290 290 291 292 292 293 296
289 290 289 288 289 288 289 288 288 288 288 288 288 287 288 288 292 289 289 289 289 289 294 290 288 291 292 291 291 291 291 290 290 289 289 289 290 290 291 291 291 293
291 291 290 289 289 288 289 289 289 288 288 287 287 288 288 287 288 289 288 289 289 288 289 289 288 289 291 291 291 291 291 291 290 289 289 289 290 290 289 290 290 291

ECMWFNIL_sfc_thetae_090.txt.gz
Theta_e
307 307 306 305 305 306 304 304 304 303 303 303 303 303 304 304 305 304 304 305 306 303 302 301 301 301 301 301 301 302 303 304 305 306 306 308 309 311 312 315 316 319
305 307 307 305 305 305 304 304 303 303 302 302 303 303 304 303 303 303 303 303 304 302 301 300 300 300 300 299 300 300 300 300 300 303 302 303 305 306 308 310 312 314
304 304 304 303 303 303 303 303 303 302 302 302 302 302 303 304 302 303 303 304 303 301 300 300 299 299 299 298 299 299 299 299 299 300 301 300 301 302 303 305 308 310
303 303 303 303 303 302 303 302 302 302 301 301 300 301 302 303 302 302 302 302 301 300 300 299 299 298 298 298 298 297 298 298 299 300 300 300 301 301 301 302 304 305
302 303 303 303 303 303 302 302 301 301 301 300 300 301 301 300 300 300 300 300 300 299 298 298 298 297 298 297 297 296 297 297 298 299 299 299 300 301 301 302 301 301
302 302 303 302 302 302 301 301 301 301 300 300 300 301 299 300 300 300 300 299 299 298 297 297 297 297 297 296 296 296 296 296 297 298 297 298 299 300 301 301 301 300
300 300 300 301 301 302 301 301 301 302 300 300 300 300 300 299 299 299 299 299 298 298 297 296 296 296 296 296 295 295 295 296 296 297 297 297 299 299 300 301 301 301
299 300 300 300 300 300 300 300 301 301 301 300 299 299 300 299 299 299 299 298 298 297 297 296 296 296 295 295 294 294 294 295 295 295 296 297 298 298 299 300 300 301
299 299 299 299 299 299 299 299 300 301 301 299 299 298 299 299 299 298 298 297 297 297 296 296 295 295 295 294 294 294 294 294 295 295 295 296 296 297 299 300 300 301
299 299 299 298 298 298 298 298 299 299 301 299 298 298 297 298 298 298 297 296 296 296 296 295 295 295 294 294 294 294 294 294 294 295 295 296 296 297 299 300 300 300
299 299 299 298 298 298 298 298 298 298 299 298 297 297 297 297 297 297 296 295 295 295 295 295 295 295 294 294 294 294 294 294 294 294 295 295 296 297 300 299 299 299
299 298 298 298 299 298 298 298 298 298 297 298 297 296 296 296 295 296 297 295 295 294 295 295 295 295 294 293 293 294 294 294 294 294 294 295 295 297 297 298 298 298
298 298 298 298 298 297 298 297 297 297 297 297 298 296 295 295 295 295 296 295 294 294 294 295 294 295 294 293 293 293 293 293 294 294 294 294 295 296 297 297 298 298
297 297 298 298 298 297 296 296 296 296 296 297 297 296 296 295 294 294 294 295 294 294 294 295 294 294 294 294 293 293 293 293 293 294 293 294 295 295 296 296 297 298
297 298 297 297 297 296 296 295 296 296 296 296 295 295 297 295 295 294 294 294 294 294 294 294 294 294 295 294 293 293 293 293 293 293 293 293 294 294 294 295 296 297
296 296 295 295 295 295 295 295 295 295 295 295 295 294 294 296 294 294 294 293 293 293 293 293 293 295 296 294 294 293 293 293 293 293 293 293 293 293 293 294 295 296
295 294 294 294 294 294 295 295 295 295 294 294 294 294 294 294 293 293 293 293 293 292 292 293 293 295 294 292 292 293 293 293 292 292 293 293 293 292 292 293 294 295
294 293 293 293 293 293 294 294 294 294 294 293 293 293 293 293 292 292 292 292 292 292 292 292 292 294 291 292 292 291 293 293 293 292 292 293 293 292 292 293 293 294
293 293 292 292 292 292 293 293 293 293 293 293 293 294 292 292 291 291 291 291 292 291 291 292 292 293 291 292 292 291 291 293 293 292 292 292 292 292 292 292 293 293
292 292 291 291 291 291 291 292 291 291 291 292 293 292 291 291 291 291 291 291 291 291 291 292 291 293 291 291 291 291 291 292 292 292 292 292 292 292 292 292 292 292
291 291 291 290 290 290 290 290 290 290 291 292 291 290 290 290 290 290 291 292 290 290 290 291 291 292 291 291 291 291 291 292 292 292 292 292 292 292 292 292 292 292
290 290 289 289 290 290 290 289 289 289 289 291 292 290 290 290 291 291 290 290 290 290 290 290 291 291 291 291 291 290 291 293 292 291 291 291 291 292 292 292 292 292
290 290 290 289 289 289 289 289 289 289 289 292 289 289 289 289 290 290 290 289 290 290 289 290 290 291 291 291 291 291 292 292 291 291 291 291 291 291 292 292 292 293
290 290 290 289 288 289 288 288 288 288 289 291 288 288 289 288 290 289 289 290 289 289 291 290 289 291 291 291 291 291 292 291 291 291 290 290 290 291 292 291 292 295
289 289 288 288 289 288 289 289 289 290 290 288 288 288 289 288 292 288 288 289 289 290 293 290 288 291 291 290 291 291 292 292 291 291 290 290 290 290 291 291 291 292
290 292 289 289 288 288 288 289 291 288 288 288 288 287 288 288 288 288 287 288 288 288 289 289 289 290 292 290 291 291 291 292 291 290 289 289 289 289 289 289 290 290

ECMWFNIL_sfc_thetae_093.txt.gz
Theta_e
312 311 310 309 308 309 308 308 308 307 307 307 306 306 306 307 308 308 307 307 306 306 305 306 306 305 305 306 306 306 307 307 307 306 306 306 306 306 306 306 307 308
310 310 310 309 308 308 307 307 307 306 306 306 306 306 306 306 307 307 306 305 305 305 305 305 305 305 304 304 305 305 305 305 305 306 305 306 305 306 306 306 306 307
309 309 308 307 306 307 307 307 307 306 305 305 306 306 305 306 306 306 305 305 304 304 304 304 304 304 303 304 304 304 304 304 303 304 305 305 305 305 306 306 306 306
308 308 307 307 307 306 307 306 306 306 305 304 304 305 305 306 306 305 304 305 304 303 303 303 303 303 303 303 303 303 303 303 303 304 304 305 306 305 305 306 306 306
308 307 307 307 306 306 306 305 305 304 304 304 305 305 305 305 304 304 304 303 303 303 302 302 303 302 303 303 303 302 302 302 303 303 303 303 304 304 304 305 305 305
307 307 307 306 306 306 305 304 304 304 304 304 304 305 304 304 303 303 303 302 302 302 302 302 301 302 302 302 302 302 302 301 301 301 301 302 303 303 303 304 305 304
306 306 306 306 306 305 305 304 304 304 303 304 304 303 303 302 302 302 302 302 301 301 301 301 301 301 301 301 301 301 301 301 301 301 300 301 301 302 303 304 304 303
306 306 305 305 304 304 304 303 303 303 303 303 303 303 303 302 301 302 302 301 301 300 300 300 300 300 300 300 300 300 300 300 300 300 300 300 301 300 301 303 303 302
305 305 304 304 303 303 303 303 303 303 303 302 301 301 302 302 301 301 301 300 300 300 300 300 300 300 300 300 299 299 299 300 300 300 300 300 300 300 300 301 301 301
304 303 303 303 302 302 302 303 303 302 302 301 301 301 300 301 301 300 300 300 299 299 299 299 299 299 299 300 299 299 299 299 300 300 300 300 300 300 300 300 300 300
303 303 303 302 302 302 302 302 302 302 302 301 301 300 300 300 300 301 300 299 299 299 299 299 300 299 299 298 299 299 299 299 300 300 300 300 300 300 301 300 300 300
303 303 302 302 302 302 302 302 302 301 301 301 300 300 300 300 300 299 299 298 298 299 299 299 299 299 298 298 298 299 299 299 299 300 300 300 300 300 300 300 300 299
302 302 302 302 302 302 302 301 301 301 300 300 300 299 299 299 299 299 299 299 298 299 299 299 298 298 298 298 298 298 298 298 298 299 299 300 300 299 300 300 300 300
302 302 302 301 302 301 301 301 300 300 300 300 300 299 299 298 298 298 299 299 299 299 299 299 299 298 298 297 297 298 298 298 298 298 298 299 299 299 299 299 299 299
301 302 302 302 301 301 301 300 300 300 300 299 299 299 299 299 299 298 298 298 298 298 298 299 298 297 297 296 296 297 298 298 298 298 298 298 298 298 299 299 299 299
301 302 301 302 301 301 300 300 300 300 300 299 298 299 299 299 299 298 298 297 297 298 298 298 298 297 295 294 294 295 297 298 298 298 298 298 298 298 298 298 298 298
301 301 301 301 301 301 300 300 299 300 299 299 299 299 299 299 298 298 297 298 297 297 297 298 297 296 292 292 292 292 296 298 298 298 299 298 298 297 297 297 298 298
301 301 301 301 301 300 300 300 300 299 299 299 299 299 299 299 298 298 297 298 298 297 297 297 298 294 291 292 292 291 293 296 299 298 298 298 298 297 297 297 296 296
301 300 300 300 300 300 300 300 299 298 298 298 298 299 299 298 297 297 297 297 297 297 297 297 297 293 291 291 291 291 291 294 298 298 297 297 297 297 297 296 296 295
301 300 300 300 300 300 299 298 298 298 299 299 298 298 298 297 297 297 297 297 297 297 297 297 297 293 291 291 291 291 291 293 299 298 298 298 297 297 296 296 295 294
300 300 300 300 300 299 299 298 298 298 298 298 298 297 297 297 296 296 296 297 297 297 297 296 297 292 291 291 291 291 291 294 298 298 297 298 297 297 297 296 296 295
300 300 300 299 299 298 298 297 298 298 298 298 298 298 298 297 297 297 296 296 296 297 297 296 297 292 291 291 291 290 292 297 297 297 296 296 296 297 297 296 296 295
300 299 299 298 298 298 297 298 297 298 298 299 298 297 297 297 297 296 296 296 296 296 296 296 297 294 291 291 291 290 293 297 297 296 296 295 295 296 296 296 296 296
300 299 298 298 298 297 297 298 299 299 298 299 297 297 296 297 297 296 296 296 296 296 296 296 297 296 291 291 291 290 293 296 296 295 295 295 295 296 296 296 296 295
300 299 299 298 298 298 299 298 298 298 298 299 298 298 298 298 297 296 296 296 296 296 295 296 297 296 293 291 290 291 293 296 295 295 294 294 294 295 296 296 295 296
301 300 300 299 298 299 300 299 299 299 299 299 298 298 297 298 297 297 296 296 296 296 297 297 296 297 296 291 291 291 291 295 296 294 293 294 294 294 294 295 295 295

ECMWFNIL_sfc_thetae_096.txt.gz
Theta_e
318 318 316 315 315 315 315 314 314 313 314 313 312 312 312 313 313 312 312 312 312 312 311 312 312 312 313 313 314 313 313 313 313 313 313 313 313 312 310 310 311 310
315 316 315 315 314 314 313 313 314 313 312 313 312 312 313 312 312 312 311 311 311 311 311 311 311 311 311 311 312 312 311 312 311 312 312 313 312 312 311 311 311 311
314 314 314 313 312 312 313 314 313 313 311 312 313 312 312 312 311 311 310 310 310 310 310 310 310 311 310 310 311 311 311 310 309 311 312 311 311 311 311 311 310 311
313 313 313 312 312 312 312 312 312 312 312 311 311 311 311 311 311 310 310 309 309 309 309 309 309 310 310 310 310 309 310 309 309 310 310 310 310 310 311 311 310 310
312 312 312 312 312 312 312 311 310 311 310 310 310 310 310 310 309 309 309 308 308 308 308 308 308 308 309 309 309 308 309 308 309 309 308 308 309 310 310 310 310 309
311 311 311 311 311 311 310 310 309 309 309 309 309 308 308 308 308 307 307 307 307 307 307 307 307 307 308 308 308 308 308 307 308 308 307 307 308 309 309 309 308 308
310 310 310 310 310 310 309 309 308 309 308 308 308 307 307 307 307 307 307 307 307 307 306 306 306 307 307 307 307 307 307 308 307 307 306 307 308 307 308 308 308 307
309 310 310 309 309 308 307 307 307 307 308 308 307 307 307 306 306 307 306 306 306 305 306 306 305 306 306 307 306 306 306 307 307 306 306 306 306 306 307 308 308 307
309 309 308 309 308 307 307 306 306 307 307 307 306 306 307 307 306 306 306 306 306 306 306 305 305 305 306 305 305 305 305 306 306 306 306 306 305 305 305 306 306 306
308 308 308 307 307 307 307 307 306 306 306 306 306 306 305 306 306 305 305 305 305 305 305 304 304 304 304 305 305 305 305 304 305 305 305 305 305 305 305 305 305 304
307 307 307 307 307 306 307 306 306 306 306 305 305 305 305 305 305 305 305 305 305 304 304 304 303 303 303 303 304 305 305 304 304 305 305 305 305 305 304 305 304 304
307 307 306 306 306 306 306 306 306 306 305 305 305 304 305 305 305 305 304 304 304 304 304 303 303 302 302 302 303 304 305 305 305 305 305 304 304 304 304 304 304 303
306 306 306 306 306 305 306 305 305 305 304 304 304 304 304 304 304 304 304 304 304 304 303 302 302 301 301 301 301 302 304 304 305 304 304 305 305 304 304 304 303 303
306 306 305 305 305 305 305 304 304 304 304 305 305 304 304 303 303 303 304 304 304 304 303 303 301 300 299 299 300 301 302 304 304 304 304 304 305 304 304 303 303 303
305 305 305 305 304 304 304 304 304 304 304 304 304 304 305 303 303 304 303 303 304 304 303 302 300 299 298 297 298 299 301 303 304 304 304 303 303 303 303 302 302 302
305 305 304 304 304 303 303 304 304 304 304 304 304 304 304 304 303 304 303 303 303 303 303 301 299 299 296 293 294 297 301 303 304 304 303 303 302 302 302 302 302 302
304 303 303 303 303 303 303 303 303 304 303 303 303 303 303 303 303 303 303 303 303 303 302 301 298 297 292 291 292 292 298 302 303 303 303 303 302 301 301 300 301 301
302 302 301 302 302 302 302 302 303 302 302 303 303 303 303 303 303 302 303 303 303 302 301 300 299 294 291 291 292 291 293 300 304 303 303 302 301 301 300 300 300 300
301 300 301 301 301 302 302 302 302 302 302 302 302 303 303 302 302 302 302 303 303 302 301 299 298 293 291 291 292 291 291 295 303 302 302 301 301 301 300 300 299 298
302 301 301 301 302 302 302 302 302 302 302 303 303 303 302 302 302 302 302 302 302 302 301 299 297 294 291 291 291 290 291 293 303 302 301 301 301 301 300 299 299 298
302 302 302 302 302 302 302 302 302 302 302 302 302 302 302 301 301 301 301 301 302 302 301 300 297 292 291 291 291 291 290 294 303 302 301 301 301 301 301 300 299 298
302 302 302 302 301 301 301 301 302 302 302 302 302 302 302 302 301 301 301 301 301 301 301 300 298 291 291 291 291 291 291 301 301 301 300 300 300 300 301 301 300 299
302 301 301 301 301 301 301 301 301 302 302 302 302 302 302 301 301 300 301 300 300 300 301 300 299 294 291 291 291 290 294 301 301 300 300 300 300 300 300 300 300 299
302 302 301 301 301 301 301 302 302 302 302 303 302 301 300 301 301 300 301 301 300 299 299 300 299 295 291 291 291 290 293 300 299 298 299 299 300 300 300 300 299 300
302 302 301 301 301 302 302 301 302 302 303 303 302 302 301 301 301 301 300 301 301 300 298 299 300 297 292 291 291 291 294 299 298 298 298 299 298 298 300 299 300 299
302 302 302 302 302 302 303 302 303 303 303 302 302 301 301 301 301 301 300 300 301 301 300 299 299 299 297 291 291 291 291 297 299 297 296 297 298 297 297 298 299 299

ECMWFNIL_sfc_thetae_099.txt.gz
Theta_e
321 320 319 318 318 318 318 317 316 317 317 316 315 315 313 314 315 315 314 314 314 314 313 314 314 314 314 315 315 313 312 313 313 315 315 314 313 314 313 313 314 312
319 319 318 318 317 317 317 317 317 316 316 316 315 314 314 314 313 314 313 312 312 312 312 313 313 313 313 313 313 313 311 312 312 314 313 312 312 313 312 313 313 313
318 318 317 316 315 316 316 316 316 316 314 314 315 314 313 314 313 312 312 312 312 311 311 312 313 312 312 312 312 312 311 310 311 312 312 311 311 311 312 312 312 312
316 316 316 316 315 315 316 316 315 315 314 313 313 313 312 312 312 312 311 311 311 310 311 311 312 312 312 311 311 310 311 311 311 311 311 311 311 311 311 311 311 311
315 315 316 315 315 315 315 314 313 312 312 311 312 312 312 311 311 310 310 310 310 310 310 310 310 311 311 311 311 310 310 310 310 310 310 309 310 310 310 311 310 310
315 314 314 314 314 314 313 312 311 311 311 310 310 311 310 311 310 309 310 310 309 309 309 309 309 309 310 310 310 310 309 309 309 309 308 308 309 309 309 310 309 308
313 313 313 312 312 311 311 311 311 311 310 310 310 309 310 309 309 309 309 309 309 308 307 308 308 309 309 309 309 309 309 309 309 308 308 308 309 308 308 310 308 307
312 312 311 311 311 310 310 310 310 309 310 310 310 309 309 308 308 309 309 309 308 307 307 307 307 307 308 309 307 308 308 308 309 308 307 307 308 307 307 308 307 306
312 311 310 310 310 309 309 309 309 310 310 309 308 308 309 308 308 308 308 308 307 307 307 307 307 306 307 307 307 307 307 307 308 307 307 306 306 306 305 306 306 305
310 310 310 310 309 309 309 309 308 308 308 308 308 308 307 308 308 307 308 308 307 306 305 305 305 305 305 306 306 306 307 307 307 307 307 307 306 305 305 305 305 304
310 310 309 309 309 308 309 308 308 308 308 307 307 307 307 307 307 307 307 307 306 305 304 304 303 303 303 304 305 306 307 307 307 306 307 306 306 306 305 305 304 303
308 309 308 308 308 308 308 308 308 307 307 307 307 306 306 306 307 307 307 306 305 305 304 303 302 302 302 302 303 304 306 307 307 307 307 306 306 306 305 305 304 303
307 307 307 308 307 307 308 307 307 307 306 306 306 306 306 306 306 306 307 306 305 304 302 302 301 300 300 301 302 304 306 306 307 306 306 306 306 305 305 304 304 303
307 307 307 307 307 307 306 306 306 306 306 307 307 306 306 306 306 306 307 306 306 304 302 302 300 299 299 300 301 303 305 306 306 306 306 305 306 305 304 304 303 303
306 307 307 306 306 305 306 306 306 306 306 305 306 306 306 306 306 306 306 306 305 304 302 301 300 299 298 298 299 300 303 306 306 305 305 305 304 303 304 303 303 302
306 306 305 306 305 305 305 305 305 305 305 304 304 305 306 306 306 307 306 305 304 303 302 300 299 299 296 293 294 297 300 304 306 306 305 304 303 303 302 302 302 302
305 305 305 304 304 304 304 304 304 304 304 304 305 305 306 306 306 306 306 305 303 301 300 300 298 297 293 292 292 292 298 302 305 304 304 303 303 302 301 301 301 301
304 304 303 303 303 303 303 303 303 303 303 304 305 305 305 306 305 306 306 306 304 301 300 299 298 294 291 292 292 291 293 299 305 304 304 303 302 302 302 301 301 300
304 304 303 303 303 302 302 302 302 303 303 304 304 305 306 305 305 305 305 306 304 301 299 298 298 293 291 292 292 291 291 295 304 304 303 302 302 302 302 301 301 300
304 303 302 302 302 303 303 303 303 303 304 305 304 305 304 304 304 304 305 305 305 302 299 298 296 294 291 291 292 290 291 293 305 304 304 303 302 302 302 301 301 299
302 302 302 303 303 303 304 304 304 304 303 303 304 303 303 303 303 303 303 304 305 303 301 298 297 292 291 291 291 291 290 295 304 304 303 303 303 302 302 301 301 300
303 303 303 303 303 303 303 303 303 303 303 304 304 303 304 303 303 303 302 303 304 304 302 299 296 291 291 291 291 291 291 303 302 303 302 302 302 301 302 301 301 300
303 303 303 303 303 303 303 303 303 303 303 304 303 303 303 302 303 303 303 302 302 303 303 300 297 294 291 291 291 291 294 302 301 301 301 301 302 300 301 301 301 300
303 303 303 303 303 302 302 303 303 304 304 304 303 302 302 303 303 303 303 302 300 300 302 301 298 295 291 291 291 291 294 301 300 299 300 300 301 301 301 301 300 299
303 303 303 303 303 303 304 303 304 304 304 305 303 303 303 302 302 302 302 303 302 300 300 301 300 297 292 291 291 291 295 300 299 298 299 299 300 299 300 301 300 301
304 304 304 304 303 304 304 304 304 305 304 304 303 303 303 303 302 302 302 302 303 302 300 300 300 299 297 291 292 292 292 298 300 297 296 298 299 299 298 300 299 300

ECMWFNIL_sfc_thetae_102.txt.gz
Theta_e
323 322 321 320 319 320 319 317 318 317 316 315 313 312 312 313 314 314 314 313 312 312 312 313 312 312 313 312 313 311 310 312 312 312 311 311 310 310 310 310 310 310
321 320 319 318 318 318 318 318 317 316 315 314 313 313 313 312 313 313 313 311 311 311 312 312 312 311 311 311 311 311 310 310 310 312 310 309 309 309 309 310 309 310
319 319 318 316 316 316 317 316 316 315 314 313 314 314 312 313 312 312 312 312 311 311 311 311 311 311 310 310 310 310 310 309 309 311 311 309 309 308 308 309 309 308
317 317 316 315 315 314 315 315 314 314 313 313 312 312 312 312 312 311 311 312 311 310 310 310 310 310 310 310 310 310 310 309 309 310 309 309 309 308 308 308 308 307
316 315 315 315 315 315 314 312 311 311 311 312 312 312 312 312 311 310 311 311 310 309 309 309 309 309 310 309 309 308 309 309 308 308 308 307 308 308 308 307 306 306
314 313 313 313 313 312 311 310 310 310 310 311 311 311 311 311 309 309 309 308 308 308 308 308 307 308 308 308 309 308 308 308 307 307 306 306 306 306 307 306 305 304
313 313 312 311 311 311 310 310 310 310 310 310 310 310 310 309 309 308 307 307 306 306 306 306 306 307 308 308 308 307 307 307 306 306 305 305 306 305 305 305 305 303
311 311 311 311 311 310 310 309 309 309 310 309 309 309 309 308 307 309 307 306 305 305 305 304 305 305 306 306 306 307 306 307 307 306 305 305 305 303 304 305 304 303
310 310 309 310 309 309 309 308 309 309 309 308 307 308 308 308 308 307 307 305 304 304 303 302 302 303 304 304 305 306 305 306 307 306 305 304 304 303 303 303 302 302
309 310 309 309 308 308 308 308 308 308 308 308 307 307 306 308 307 306 306 305 304 302 301 300 301 301 302 303 304 305 305 305 305 305 305 304 304 303 303 302 301 301
309 309 308 308 308 308 308 308 308 308 308 306 307 306 307 307 307 306 305 303 303 301 300 299 299 300 300 301 303 305 306 306 305 305 305 304 304 303 303 302 301 300
308 308 307 307 307 307 307 307 307 307 307 307 306 305 306 306 306 305 304 301 301 300 299 299 299 299 299 299 301 303 305 306 305 305 305 304 303 303 302 302 300 300
307 307 307 307 307 307 307 306 307 307 306 305 306 306 306 305 305 305 304 302 300 299 299 299 298 298 297 298 299 300 302 304 305 305 304 304 303 302 302 301 301 301
306 307 306 306 306 306 305 306 306 306 306 306 306 306 306 305 305 305 304 302 301 299 299 299 298 297 296 296 297 298 299 302 305 304 304 303 303 303 303 302 301 300
306 306 306 306 305 306 306 306 305 306 305 305 305 306 307 306 306 305 303 301 300 299 298 298 297 296 295 294 294 296 297 300 303 304 303 302 302 303 303 302 301 301
305 305 304 305 304 304 304 304 304 305 305 305 305 305 306 306 305 304 301 300 299 298 298 297 296 296 295 293 294 294 296 299 301 304 303 303 302 301 303 302 303 301
304 304 304 303 303 304 304 303 303 304 304 304 304 305 306 306 306 303 301 300 298 297 297 296 296 295 293 291 292 292 295 297 299 303 303 303 301 300 301 300 300 299
303 303 302 302 302 302 302 303 304 303 303 304 305 305 305 306 306 304 302 300 298 297 296 296 295 294 291 292 292 291 293 295 300 303 303 303 301 300 301 300 299 299
302 302 301 302 302 302 302 302 302 303 303 303 303 304 305 304 304 305 303 301 298 296 295 295 294 293 291 292 292 291 291 294 300 304 304 303 303 301 302 300 300 299
302 302 301 301 301 301 302 302 302 302 304 304 304 304 303 303 304 304 304 302 300 298 296 294 294 293 291 292 292 291 291 293 302 305 303 302 303 299 301 302 300 299
302 301 300 301 302 302 303 302 302 303 303 303 303 303 302 302 302 302 304 303 301 299 296 295 295 292 291 291 291 291 292 296 302 302 303 301 303 301 300 302 299 300
300 300 301 302 302 302 302 302 303 303 302 303 303 302 302 302 302 302 302 303 303 299 297 295 295 291 291 291 292 291 293 301 300 299 300 300 301 300 298 301 300 299
301 302 302 302 302 302 301 302 302 302 303 304 302 302 302 301 301 300 300 301 302 300 297 296 295 293 291 292 292 291 294 299 298 297 298 299 299 300 299 301 301 300
302 302 302 302 302 301 302 303 304 304 303 304 302 302 301 302 301 300 299 299 300 301 300 297 296 294 291 292 292 291 294 297 297 296 296 297 298 299 299 300 299 302
302 302 302 302 301 302 303 302 303 303 304 304 304 303 303 302 302 301 300 299 300 301 303 300 297 296 292 291 292 292 294 296 297 296 295 295 296 297 299 298 299 300
303 303 302 302 302 303 303 303 304 304 305 304 304 302 301 301 301 301 301 300 300 301 302 302 300 298 296 292 292 292 292 296 297 295 293 294 295 296 296 296 297 297

ECMWFNIL_sfc_thetae_105.txt.gz
Theta_e
316 315 314 313 314 314 312 311 310 309 308 308 306 306 306 307 309 307 307 307 308 307 307 307 307 307 308 307 307 306 307 306 307 306 305 306 304 304 305 304 302 303
314 315 315 313 313 313 312 311 310 309 308 307 307 306 307 306 307 307 306 306 306 306 306 306 307 306 306 306 306 306 304 304 305 310 305 304 304 304 304 303 302 302
313 313 313 312 310 310 310 310 309 308 307 307 307 307 308 307 306 306 306 306 305 305 305 306 306 306 306 305 305 305 304 303 304 304 306 304 304 303 303 303 302 302
312 312 311 311 310 310 310 309 308 308 307 306 305 307 308 309 305 305 306 308 304 304 304 305 305 305 305 305 304 304 304 303 304 304 303 303 304 303 302 303 302 301
311 311 312 312 310 309 307 307 306 306 306 305 306 307 307 305 305 304 304 304 304 303 303 303 304 304 305 304 304 303 304 302 303 303 302 301 302 303 303 302 300 299
311 310 310 309 308 306 306 305 306 305 305 305 305 307 305 304 303 303 303 302 302 302 302 302 302 303 303 303 303 302 302 303 302 302 302 301 301 302 303 301 299 298
309 308 307 307 306 306 305 305 306 306 304 305 305 304 304 303 303 302 302 302 301 301 300 300 300 300 301 302 302 301 302 302 301 302 301 300 301 300 301 300 299 298
307 306 306 306 305 304 305 304 304 304 305 304 303 303 303 304 303 302 301 300 299 298 298 298 299 299 299 300 301 301 301 304 303 301 300 299 299 299 299 300 298 297
306 306 306 305 304 303 303 304 304 303 304 302 302 303 304 303 302 301 300 299 298 297 297 297 298 298 298 299 300 301 300 300 302 300 300 299 298 298 298 298 297 297
305 304 304 303 303 303 302 303 303 303 304 302 302 303 302 302 301 300 299 298 297 297 296 296 297 297 297 298 298 299 300 300 300 300 299 299 298 298 297 297 296 295
304 304 303 303 302 302 302 302 302 302 303 302 302 302 302 301 300 299 297 297 297 296 296 295 295 295 295 296 297 297 298 299 300 299 299 299 298 298 302 296 297 295
303 303 302 302 302 301 301 302 302 302 301 302 302 301 301 300 299 298 298 296 296 296 296 295 294 294 294 294 295 295 297 298 300 299 299 298 297 297 297 298 296 296
302 302 302 302 301 301 302 302 301 301 302 302 303 302 301 300 299 298 298 296 296 296 295 294 294 293 292 292 293 294 295 297 299 298 298 299 297 297 297 297 296 296
302 302 302 301 301 301 301 301 301 301 301 302 302 301 301 300 298 298 297 297 296 295 295 295 293 292 292 292 292 293 294 296 297 299 298 297 298 298 298 296 297 297
302 301 301 302 301 301 300 300 300 300 301 302 302 302 302 299 298 297 296 295 295 294 293 293 293 293 293 292 291 292 293 294 296 297 298 297 296 297 296 296 295 296
301 301 300 300 300 300 300 300 300 300 300 301 301 301 299 298 297 296 295 294 294 293 292 293 292 293 294 294 294 292 292 294 295 297 297 296 296 296 295 295 295 294
300 300 300 299 299 299 299 300 300 300 300 300 300 300 299 298 296 295 294 293 292 291 291 292 292 293 293 292 292 294 294 293 294 296 297 296 295 295 295 295 295 295
299 299 299 299 299 299 299 299 299 299 299 299 300 300 300 298 296 295 294 292 292 290 290 291 291 294 291 292 292 292 294 294 293 296 298 296 295 294 295 295 294 295
299 298 298 297 298 298 299 299 299 299 299 299 299 300 299 298 295 294 293 292 291 290 289 290 290 293 291 292 292 292 293 295 296 297 296 296 294 293 294 294 295 295
298 298 297 297 298 298 298 298 298 298 298 299 299 298 298 298 296 295 294 292 291 290 289 290 290 292 292 292 292 292 293 295 295 296 296 296 296 294 294 294 294 293
298 297 297 297 297 297 297 298 298 298 298 298 298 297 296 297 297 295 294 293 291 290 290 290 291 292 291 292 292 292 293 295 294 295 295 295 295 295 294 295 294 295
297 296 296 296 297 297 297 297 297 297 296 297 296 295 295 295 296 297 294 292 291 290 289 289 290 291 291 292 292 292 293 295 293 293 293 293 294 295 295 295 294 293
297 297 296 297 297 297 297 296 296 296 296 297 295 295 294 293 293 295 295 293 292 291 289 288 288 291 291 291 291 292 293 293 292 292 292 292 292 293 294 295 295 293
297 297 297 297 297 296 296 296 296 297 297 298 295 294 293 293 293 293 294 294 292 291 291 289 289 291 291 291 291 292 293 291 291 291 290 291 291 293 293 293 296 303
298 298 298 297 297 296 297 296 297 297 298 297 296 296 295 294 295 293 292 292 293 293 299 292 289 292 292 291 291 292 293 291 292 290 290 289 290 291 293 293 292 297
298 298 298 298 297 297 297 297 297 297 297 297 296 296 295 295 294 293 292 292 293 294 297 293 291 291 291 291 292 292 292 292 292 290 290 289 289 292 291 291 291 291

ECMWFNIL_sfc_thetae_108.txt.gz
Theta_e
313 313 312 311 311 310 309 307 307 306 305 305 304 304 304 305 306 304 305 305 306 304 304 304 304 304 305 304 304 304 305 304 304 303 302 303 302 301 300 299 298 298
312 313 313 311 310 309 308 307 306 305 305 304 304 304 305 305 305 304 303 303 304 303 304 304 304 303 303 303 303 303 302 302 303 306 302 301 301 300 299 298 298 297
310 310 309 308 307 307 307 307 306 306 305 305 305 305 305 305 304 304 303 303 302 303 303 303 303 303 303 303 302 302 301 301 301 302 303 300 300 299 298 298 297 297
309 309 308 307 307 306 306 306 305 305 305 304 304 305 306 306 303 303 303 305 301 301 302 302 302 302 302 302 302 301 301 301 301 301 300 301 301 299 298 298 298 297
309 309 308 307 307 307 306 305 304 304 304 303 304 305 304 301 301 300 300 300 300 299 300 300 301 301 302 301 301 301 302 300 300 300 299 299 299 299 298 298 296 295
308 307 307 306 305 305 304 304 303 303 303 302 302 303 301 301 300 299 299 298 298 298 298 299 299 300 300 300 300 300 300 300 300 299 298 298 298 298 298 297 296 295
306 305 304 305 304 304 303 303 303 304 302 303 302 300 300 299 298 298 297 297 297 299 297 297 298 298 299 299 300 300 300 300 299 298 298 297 298 297 297 296 296 295
305 304 304 304 303 303 303 302 302 302 302 301 300 300 299 298 297 297 297 297 296 296 296 296 297 297 297 298 298 298 299 301 299 298 297 296 296 295 295 297 294 294
304 303 303 302 302 301 301 301 301 301 302 300 299 298 299 297 297 296 296 296 295 295 295 295 295 295 296 296 296 297 297 298 299 297 296 296 295 295 294 294 294 295
303 302 302 302 301 301 300 300 301 301 301 299 298 298 297 297 296 296 295 295 294 294 293 293 294 294 294 295 295 295 296 297 297 297 296 295 295 294 294 294 293 293
302 302 301 301 300 300 300 300 301 301 301 299 298 297 296 296 297 296 295 294 293 293 292 292 292 293 293 293 294 294 296 296 296 296 295 295 295 296 301 294 295 292
301 301 300 300 300 299 299 300 300 300 299 299 297 296 296 296 295 295 295 293 293 293 292 292 292 292 292 292 292 293 295 296 296 296 296 295 294 295 295 295 294 293
300 300 300 300 300 299 300 300 300 299 299 298 298 296 295 295 294 294 294 293 293 293 292 292 291 291 291 291 291 292 293 295 295 295 295 296 295 295 294 294 294 293
300 300 299 299 299 299 299 299 300 299 299 299 298 296 295 294 294 293 293 293 292 292 292 293 291 291 291 291 291 291 292 293 294 295 295 294 295 295 295 293 294 294
300 299 299 300 299 299 299 299 300 299 299 298 297 297 297 294 294 293 292 291 291 291 291 291 292 292 292 291 291 292 291 292 293 294 294 294 294 294 293 293 293 294
300 300 299 298 299 298 298 299 299 299 298 297 296 295 294 294 293 293 292 291 290 290 290 291 291 292 295 294 295 292 291 292 293 294 294 294 295 293 293 293 293 292
299 298 298 298 298 298 298 299 299 298 296 295 294 294 293 294 292 290 290 290 289 289 289 290 291 293 293 292 292 294 294 291 292 294 294 293 293 293 292 294 294 293
298 298 297 297 298 298 298 298 298 297 296 294 293 293 293 292 291 290 289 289 289 289 289 290 290 294 291 292 293 293 297 294 293 295 295 292 291 292 292 293 292 293
297 297 297 297 297 297 298 298 298 297 296 294 293 293 292 291 290 290 289 289 289 289 289 289 289 293 292 293 293 293 293 295 293 293 294 292 292 291 291 291 293 293
297 297 297 297 297 297 297 298 298 297 296 296 295 293 291 290 289 289 289 288 288 289 288 288 289 292 292 292 293 292 292 293 291 292 292 292 292 292 291 291 291 291
297 296 296 296 297 297 297 297 297 296 297 296 294 293 292 291 290 288 289 290 288 287 288 288 290 292 291 292 292 292 292 292 290 292 291 291 291 291 291 291 290 291
296 296 296 296 296 296 296 296 296 296 296 296 295 293 293 291 290 290 289 288 288 287 287 286 288 291 291 291 292 292 293 292 289 289 289 290 290 290 291 291 291 290
296 296 296 296 296 296 295 295 295 294 294 295 294 293 293 291 290 289 289 288 288 288 286 285 287 290 291 291 291 292 292 289 288 289 289 288 288 290 290 290 291 293
296 296 296 296 296 295 295 294 294 294 294 295 294 293 293 292 292 290 289 289 288 287 288 288 287 291 291 291 291 292 292 288 288 288 287 287 288 289 290 289 291 299
296 296 296 296 295 295 295 294 294 294 295 294 293 293 293 293 294 291 289 288 288 288 296 290 287 291 292 291 291 292 291 287 288 286 287 285 287 289 289 290 289 293
296 296 296 296 295 294 295 295 295 295 294 293 293 293 293 292 293 292 291 291 290 291 294 289 288 288 291 291 291 292 293 289 288 287 287 286 286 289 289 288 288 289

ECMWFNIL_sfc_thetae_111.txt.gz
Theta_e
315 313 311 310 309 308 306 305 304 304 303 303 302 302 303 304 305 304 304 304 304 303 303 303 303 303 303 302 303 303 302 301 300 299 299 298 296 296 296 295 295 295
312 313 313 310 309 308 306 305 304 303 303 302 302 302 303 303 303 303 302 302 302 302 302 302 302 302 302 301 301 301 300 300 300 302 298 297 296 295 295 294 294 294
311 310 309 307 306 305 305 305 304 303 303 302 303 302 303 303 302 302 301 301 301 301 301 301 301 301 301 301 300 300 299 299 298 298 298 296 296 295 295 294 294 294
309 308 307 306 305 305 305 304 303 304 303 303 302 303 303 303 301 301 301 304 300 300 300 301 300 300 300 300 300 299 299 299 298 298 297 297 297 296 295 296 296 294
307 307 306 306 305 305 304 304 302 302 302 302 302 302 302 299 299 299 299 299 299 299 299 299 299 300 300 300 299 298 299 298 298 297 296 295 295 296 295 295 294 293
307 306 306 305 305 304 303 302 302 302 301 300 300 300 298 298 298 298 298 298 298 298 298 298 298 299 299 299 298 298 297 297 297 296 295 295 294 295 296 294 293 293
305 305 304 305 303 303 302 302 302 302 300 299 299 297 297 297 297 297 297 298 298 299 297 297 297 297 298 298 298 297 297 296 296 296 295 294 296 294 294 294 294 293
304 304 304 303 303 302 302 301 300 300 299 298 297 297 297 296 296 296 296 296 296 296 296 296 296 296 296 297 298 297 296 297 296 295 294 293 293 293 293 294 292 292
303 303 303 302 302 301 300 300 299 299 299 296 296 295 296 296 295 295 295 295 295 294 294 294 294 294 295 296 296 296 296 295 296 294 294 293 293 292 292 292 292 292
302 302 301 301 300 300 299 299 298 297 298 296 295 295 295 295 294 294 294 294 294 293 293 293 293 294 294 294 295 296 295 295 294 294 293 293 293 292 292 292 290 290
301 301 300 300 299 299 298 298 297 297 297 295 295 295 294 294 295 294 293 293 293 292 292 292 292 293 293 293 293 294 295 294 293 293 293 293 293 294 298 292 292 290
300 300 300 299 299 298 298 298 297 296 296 296 295 294 293 293 293 293 293 292 291 291 291 291 291 291 292 292 292 293 294 294 294 293 293 293 292 293 292 292 291 290
300 299 299 299 299 298 298 297 296 295 295 295 295 294 293 293 292 292 293 291 291 291 291 291 291 291 290 290 291 292 293 293 293 293 293 292 292 292 292 291 291 291
299 299 299 298 298 298 297 297 296 295 295 295 295 293 292 292 291 292 292 291 291 291 291 292 291 290 289 289 290 290 292 292 293 293 293 292 292 292 292 292 292 292
299 299 299 299 299 298 297 296 296 295 295 294 294 293 294 291 291 290 290 289 289 290 290 291 292 292 291 290 290 289 289 292 292 293 293 293 292 291 291 291 292 292
299 299 298 298 298 297 297 296 295 295 294 293 292 292 292 292 290 290 289 289 289 289 289 291 291 292 295 296 298 291 290 292 293 293 292 291 293 292 292 292 291 290
298 298 297 297 297 297 297 296 295 294 293 292 292 291 291 292 290 289 288 288 289 289 289 290 290 292 294 292 294 296 293 293 293 292 291 290 291 291 290 294 292 291
297 297 297 297 297 297 296 295 294 293 292 291 290 290 290 289 288 288 288 288 289 289 289 290 290 295 292 293 294 294 296 294 292 292 292 289 289 289 290 291 290 289
297 297 296 297 297 297 296 294 292 292 291 290 289 290 288 288 287 287 287 287 288 288 288 289 288 293 292 293 293 292 293 294 292 291 292 290 289 289 289 289 289 292
297 297 296 296 297 296 295 293 292 291 290 290 290 289 288 287 287 287 287 287 287 288 288 287 288 293 292 292 292 291 292 293 289 290 290 289 290 289 289 288 289 290
297 297 296 296 296 296 295 293 292 291 291 291 289 288 287 287 287 286 287 288 287 286 288 287 289 292 291 292 291 291 291 291 289 291 290 289 288 289 289 289 289 289
297 296 296 296 296 295 295 294 293 292 291 290 289 287 287 288 287 288 287 286 286 286 287 285 287 291 291 291 291 291 292 291 288 288 288 288 288 288 289 289 289 290
297 296 296 296 296 295 294 294 293 292 291 291 289 288 287 287 287 286 286 285 286 286 286 284 286 290 291 291 291 291 290 287 287 288 287 286 287 287 287 288 288 292
297 297 296 296 295 295 294 294 293 293 292 293 289 288 287 287 287 287 285 286 285 284 286 286 285 290 291 291 291 291 291 286 286 287 285 286 286 287 287 286 288 298
297 297 296 296 295 295 295 294 293 293 293 292 291 289 289 289 291 287 286 286 285 286 296 288 285 290 291 290 291 292 290 284 286 286 286 283 284 286 286 287 287 291
298 297 296 296 295 294 294 294 294 294 292 292 292 291 290 289 290 288 286 286 287 289 290 285 285 287 290 291 291 291 292 287 285 286 286 285 284 288 288 286 286 287

ECMWFNIL_sfc_thetae_114.txt.gz
Theta_e
315 313 311 310 308 308 306 305 305 304 303 303 303 303 303 304 306 304 304 304 304 304 304 304 304 303 303 302 302 300 300 299 298 298 297 298 297 297 296 296 296 296
314 314 312 310 309 308 306 305 305 304 303 303 303 303 304 303 304 303 303 303 303 303 303 303 303 302 302 301 300 299 298 298 298 299 296 296 296 296 296 296 296 295
313 311 310 308 307 305 305 305 304 304 303 303 303 303 303 304 302 302 302 302 302 302 302 302 302 302 301 301 300 299 298 297 297 298 298 296 297 296 296 296 296 295
312 310 309 307 306 304 305 304 304 304 303 303 303 303 304 304 302 302 303 305 301 301 301 301 301 301 300 300 300 299 298 298 298 298 298 298 298 297 297 297 296 295
310 308 307 306 305 305 304 304 303 303 303 302 302 303 303 301 300 300 300 300 301 300 301 300 300 300 300 299 299 298 299 297 297 297 297 297 298 298 297 296 295 294
308 307 306 306 305 304 303 303 303 302 301 301 301 302 299 300 300 300 300 299 299 300 300 300 300 300 299 299 298 298 297 297 297 297 296 296 296 297 296 295 294 294
306 305 305 305 304 304 303 302 303 302 300 300 300 299 299 299 299 299 299 299 299 300 299 299 299 299 299 298 298 297 297 297 296 296 296 296 297 295 296 295 295 294
305 305 304 304 303 303 302 302 300 300 300 299 298 298 298 298 298 299 298 298 298 297 298 298 298 298 298 298 297 297 297 297 296 296 295 295 295 294 295 295 294 293
304 303 303 303 302 301 301 300 299 299 299 297 297 297 298 298 297 297 297 297 297 297 297 297 298 298 298 298 297 297 296 296 296 295 295 295 294 294 294 294 294 294
303 303 302 302 301 300 299 299 298 298 299 297 296 296 296 297 296 296 297 296 296 296 296 296 296 297 297 297 297 296 296 296 295 295 295 295 295 294 294 294 293 293
302 302 301 301 300 299 298 298 297 297 298 296 296 295 295 296 297 296 295 295 295 295 295 295 296 296 296 296 297 296 296 295 295 295 295 295 295 294 298 294 295 294
301 301 300 299 299 298 297 297 297 297 296 296 296 295 294 295 295 295 296 294 294 294 294 294 295 296 296 296 296 296 296 296 296 296 296 296 296 296 294 295 294 294
301 300 299 299 299 297 297 296 296 295 295 295 296 294 294 294 294 294 295 293 293 293 293 294 294 294 295 295 295 295 296 296 295 295 295 295 295 295 295 294 294 294
300 299 299 299 298 297 296 296 295 295 295 295 295 293 293 293 293 293 294 293 293 293 293 294 293 293 293 293 294 295 296 296 296 296 295 295 295 295 295 295 294 294
299 299 299 299 298 296 295 295 295 294 294 294 294 294 294 292 292 292 292 292 292 293 293 293 293 293 293 293 293 293 294 295 296 296 295 295 294 293 293 294 295 296
299 299 299 297 296 295 295 294 294 294 293 293 292 292 292 292 291 292 292 292 292 292 293 293 294 295 298 296 296 295 294 294 295 295 295 295 295 295 294 295 295 293
299 298 298 297 296 295 294 294 294 293 292 292 291 291 291 293 291 291 291 291 292 292 292 293 293 296 295 294 294 295 295 295 296 295 295 295 295 294 294 298 295 293
298 298 297 296 296 295 294 294 293 292 292 291 291 291 291 291 290 290 290 291 291 291 292 293 294 296 292 293 293 294 296 295 294 294 294 294 293 293 295 295 295 295
298 297 297 296 295 295 294 293 292 291 291 290 290 291 290 289 289 289 290 290 291 291 292 294 293 294 292 293 293 293 293 294 294 293 294 293 293 293 292 293 294 296
298 297 296 296 295 294 293 292 291 291 290 290 291 290 289 288 289 289 289 290 291 291 291 291 292 294 292 292 292 292 292 293 292 293 293 292 293 293 293 293 294 295
297 297 296 296 295 293 292 291 291 290 290 290 289 288 288 288 288 289 290 291 291 290 291 291 293 292 291 291 291 291 291 292 292 293 292 292 292 292 293 294 293 293
298 297 297 296 294 293 291 291 290 290 289 289 289 288 288 288 288 290 290 289 289 290 290 289 291 291 291 291 291 291 292 293 291 292 292 292 292 292 292 292 293 294
298 297 297 295 294 292 291 290 290 289 289 290 288 288 288 288 289 289 289 288 289 290 289 289 290 292 290 291 291 290 291 290 291 291 291 291 291 291 291 292 292 296
298 298 297 296 294 292 291 290 290 290 289 290 288 288 288 288 289 288 288 289 289 288 289 289 289 291 291 291 291 290 291 290 290 290 289 291 290 291 290 290 292 297
299 299 298 296 295 293 292 291 290 290 291 290 289 289 288 288 291 287 287 288 288 289 295 290 289 292 291 290 291 291 291 288 289 289 290 288 288 290 290 289 290 292
299 299 298 297 295 294 294 292 292 292 290 289 289 289 289 289 289 288 287 288 290 292 293 289 289 290 292 290 291 291 290 289 288 290 290 289 289 293 290 290 289 290

ECMWFNIL_sfc_thetae_117.txt.gz
Theta_e
321 319 317 315 314 315 314 313 314 314 315 314 313 313 312 313 314 314 314 313 313 312 311 311 310 309 308 307 307 305 305 305 304 305 304 303 302 302 301 301 303 302
320 318 316 315 313 313 313 314 315 314 314 314 313 313 313 313 314 314 313 312 312 311 310 309 308 307 306 306 306 305 304 304 303 304 303 302 302 302 302 302 302 302
319 318 315 314 313 312 313 314 315 314 313 313 314 313 313 313 313 313 312 312 311 310 310 309 308 307 306 306 305 305 304 304 303 304 303 302 302 301 301 301 301 301
318 316 315 313 312 312 313 313 314 313 313 312 312 312 312 312 312 312 311 311 310 310 310 309 307 306 305 305 305 304 304 304 304 304 302 302 302 301 301 301 301 300
315 314 314 312 311 312 313 313 312 312 312 312 312 312 312 312 311 311 311 310 310 309 309 307 307 306 305 305 305 304 304 303 304 303 301 301 302 302 301 301 300 299
315 313 311 310 311 311 313 312 312 312 312 311 311 312 311 311 310 310 310 310 309 308 307 307 306 305 305 305 305 304 304 303 303 302 301 300 300 301 301 301 299 299
312 311 310 311 311 312 312 312 312 312 312 311 310 310 311 310 310 309 309 309 308 308 307 306 305 305 305 305 304 304 303 303 302 301 300 300 300 300 301 300 299 298
311 310 310 310 311 311 312 311 311 311 311 310 310 310 310 309 309 309 309 309 308 307 307 306 305 305 305 304 303 302 303 303 302 301 300 300 300 298 299 300 300 298
310 309 309 310 310 310 311 310 310 310 310 309 309 309 310 309 309 309 308 308 308 307 306 306 305 304 305 304 303 302 301 302 302 301 301 300 299 298 298 300 299 299
309 309 309 310 310 311 310 310 309 309 309 309 308 308 308 309 309 308 308 308 307 307 306 306 305 304 304 303 303 302 302 301 302 302 301 300 299 298 299 299 299 298
309 309 309 310 310 310 310 309 309 308 308 308 308 308 307 307 307 308 308 307 307 306 306 305 305 304 303 303 304 304 303 302 301 301 302 301 300 299 299 299 299 299
309 310 310 311 310 309 309 308 308 308 308 308 308 307 307 307 307 307 307 306 306 306 306 305 305 304 303 302 303 304 304 303 303 302 301 301 301 300 299 300 300 299
310 311 310 310 309 308 308 307 307 308 307 307 307 307 307 306 306 306 307 306 306 306 306 306 305 304 304 304 303 303 303 303 303 302 302 302 301 300 300 300 300 300
311 311 310 309 308 307 307 307 307 307 307 307 306 306 306 306 306 306 306 306 306 306 306 306 306 305 304 304 303 304 304 303 303 303 302 302 302 301 301 301 301 301
310 310 309 307 306 306 306 305 305 306 306 305 306 306 306 306 306 305 304 304 305 305 305 306 305 305 305 305 304 304 304 303 303 302 302 302 301 301 301 301 301 301
308 308 306 306 305 305 305 305 304 304 304 304 304 305 305 305 305 305 305 304 304 304 305 305 306 306 304 301 302 304 304 304 304 304 302 302 301 301 301 301 300 301
307 306 305 304 304 304 304 304 303 303 303 303 303 303 303 304 304 303 304 304 304 304 304 305 305 304 297 294 295 298 304 305 304 303 303 302 301 301 301 301 300 300
306 305 304 303 304 303 303 303 303 302 302 302 302 302 303 303 303 303 304 304 305 305 305 305 306 300 293 293 294 294 300 305 305 303 303 302 302 301 301 301 301 300
305 304 303 303 303 303 303 302 301 301 301 301 301 302 302 302 303 303 303 303 304 304 304 305 305 295 293 293 293 293 295 301 304 304 302 302 302 302 301 301 301 299
304 303 302 302 303 303 302 301 301 301 301 301 301 301 301 301 302 302 302 303 303 304 304 305 305 295 293 293 293 292 292 298 304 305 304 303 302 302 302 302 300 300
302 302 302 302 302 302 301 301 301 301 300 300 300 300 300 300 301 301 302 302 303 304 304 304 304 293 292 292 292 292 292 297 306 305 304 304 304 303 302 302 301 302
302 302 302 302 301 301 300 300 300 300 299 299 299 299 300 300 301 301 301 302 303 303 303 303 301 291 291 291 291 291 292 303 304 304 303 303 303 302 302 302 301 302
302 301 300 300 299 298 298 298 298 298 298 298 297 297 297 298 300 301 302 301 301 302 303 302 300 293 291 291 291 291 296 303 304 302 302 302 302 302 301 301 302 302
301 300 299 298 298 297 297 297 297 297 296 296 296 296 297 298 300 300 301 301 301 301 302 301 301 296 290 291 291 291 298 303 302 302 301 301 301 301 301 301 302 299
301 300 299 298 297 298 297 296 295 295 296 296 296 297 298 299 299 299 299 300 301 302 300 301 300 296 290 291 291 291 298 302 301 301 300 300 300 299 300 300 300 298
302 301 299 298 297 297 296 296 296 295 295 295 296 297 297 298 298 299 299 299 300 301 300 301 300 299 296 290 291 291 293 301 301 300 299 299 300 299 298 299 300 300

ECMWFNIL_sfc_thetae_120.txt.gz
Theta_e
331 330 329 328 327 327 326 324 324 323 323 322 321 321 320 320 319 320 318 317 316 315 314 314 314 313 312 312 312 310 310 310 310 310 309 309 308 309 308 308 309 307
331 330 329 328 325 324 324 324 324 324 323 322 321 321 321 320 319 318 317 316 316 315 314 314 313 311 311 311 311 309 308 309 308 309 308 308 308 309 309 309 308 308
330 329 327 325 322 323 323 324 325 324 322 322 322 320 319 319 318 318 317 316 315 314 313 312 312 311 310 310 310 310 309 309 308 308 308 307 307 307 308 307 307 307
328 328 326 324 323 322 322 322 322 322 322 320 320 320 319 319 318 317 316 315 314 313 313 312 311 310 310 310 310 309 309 308 308 309 308 307 307 307 307 307 307 307
327 325 325 324 323 322 321 321 321 321 320 319 320 319 318 318 317 316 315 315 314 313 312 310 310 310 310 310 310 308 308 307 308 308 307 306 307 307 307 307 306 306
326 322 321 322 322 320 319 320 320 319 320 320 319 318 317 317 316 315 315 314 313 312 311 310 309 309 310 310 310 309 308 307 307 306 305 305 306 306 306 306 305 304
325 321 319 321 320 319 319 319 320 320 320 319 318 317 317 316 315 314 313 313 312 311 310 309 309 309 309 310 309 308 307 306 306 305 304 305 305 305 306 306 304 303
323 321 320 321 320 318 318 318 319 318 319 318 318 317 317 315 314 314 314 313 312 311 310 309 309 308 309 309 307 307 307 306 306 305 304 304 305 304 305 305 305 304
321 322 321 320 319 318 318 318 318 319 318 317 316 316 316 315 314 314 313 312 311 311 310 309 308 308 309 308 307 307 306 306 306 305 304 304 304 304 304 305 304 305
319 321 320 318 318 318 318 318 318 318 317 316 315 315 314 315 315 313 313 312 311 310 310 309 308 307 307 307 307 307 306 306 306 306 305 304 304 303 304 304 304 304
318 320 319 318 317 317 318 318 318 317 316 315 315 315 315 314 313 313 313 312 311 310 309 309 307 307 306 306 307 308 307 307 306 305 305 304 304 304 304 304 304 304
318 318 317 317 317 317 317 317 317 317 316 315 314 314 314 313 313 312 312 311 311 310 310 309 307 307 307 307 307 307 307 307 307 306 305 304 304 304 305 305 305 305
317 316 316 317 317 318 317 316 317 317 315 314 314 314 313 312 312 312 312 311 311 310 310 308 307 307 307 308 307 307 307 307 307 307 306 306 304 304 304 305 305 305
316 317 317 317 318 318 317 317 316 316 315 314 314 313 312 312 311 312 312 311 311 311 310 310 308 307 307 307 307 308 308 307 307 307 306 306 306 305 305 305 305 305
317 318 318 318 317 317 317 316 316 315 314 314 313 313 313 312 312 312 311 311 311 311 310 310 309 308 308 308 308 308 308 307 307 307 306 306 305 305 305 305 305 304
317 318 318 318 317 316 316 316 315 314 314 313 312 312 312 312 311 312 311 311 310 310 310 310 310 310 307 303 304 308 308 308 308 308 307 306 305 305 305 304 304 304
317 317 317 316 316 316 316 314 314 314 313 312 312 312 312 312 311 311 310 310 310 310 310 310 310 309 299 297 297 300 308 309 308 307 307 306 306 306 305 304 305 305
316 315 314 314 314 314 314 313 313 313 312 311 312 312 312 312 311 310 310 310 310 310 310 310 311 302 295 296 296 297 301 308 309 308 307 307 306 306 306 305 305 305
314 313 313 312 312 313 313 312 311 311 311 311 311 312 312 310 310 310 310 310 310 309 309 309 311 296 295 294 295 295 295 302 308 308 307 307 306 306 306 306 305 305
312 311 310 310 312 312 312 310 310 310 311 312 311 311 311 310 310 310 311 310 310 310 309 310 311 296 294 293 294 293 294 297 309 307 307 307 306 306 306 306 305 305
310 309 307 307 307 308 309 309 310 310 310 310 310 310 309 308 309 310 310 311 310 310 310 310 311 294 293 293 293 293 293 295 309 307 307 307 307 307 307 307 305 304
308 306 305 305 306 307 307 306 307 308 308 308 308 308 308 308 309 309 309 309 309 310 310 309 309 292 293 293 292 293 292 304 308 307 308 307 307 307 307 306 305 306
309 307 306 306 306 305 304 305 305 306 306 307 306 306 305 306 307 307 309 308 308 309 309 309 307 295 292 292 292 291 295 305 308 306 307 307 307 307 306 306 305 305
308 307 307 306 306 305 305 306 306 306 305 305 304 304 304 305 306 306 307 308 308 308 309 309 308 298 291 292 292 291 298 305 307 306 307 306 306 306 307 305 305 304
309 308 306 305 305 305 304 304 304 304 304 304 304 303 303 304 304 304 305 307 308 308 307 308 308 300 291 292 291 291 299 307 307 306 306 306 306 305 306 305 304 301
309 309 309 307 306 305 305 305 304 303 302 301 301 301 301 301 302 303 304 305 307 308 308 308 308 305 298 291 292 291 293 306 307 305 305 305 305 304 304 305 303 303